Date StartTime U_cm/s V_cm/s W_cm/s Ustd_cm/s Vstd_cm/s Wstd_cm/s Uvar_(cm/s)^2 Vvar_(cm/s)^2 Wvar_(cm/s)^2 KE_(m/s)^2 TurbulentKE_(m/s)^2 HorizWindSpeed_cm/s FrictionSpeec_cm/s DragCoef SpeedOfSound_m/s SonicTemperature_C Pressure_mb 
08/11/2013  00:00:00       89.818      101.437        1.067       55.598       41.093       39.927     3091.121     1688.595     1594.176        1.236        0.319      135.487       23.021        0.029      343.140       19.041      863.031
08/11/2013  00:01:00      120.155       99.013        7.485       51.146       43.626       37.197     2615.893     1903.191     1383.618        1.510        0.295      155.694       29.338        0.036      343.329       19.363      863.019
08/11/2013  00:02:00      162.275       86.880       25.898       60.967       42.383       36.970     3716.969     1796.309     1366.766        2.071        0.344      184.068       26.156        0.020      343.256       19.239      862.996
08/11/2013  00:03:00      192.370      111.988       35.137       74.706       50.718       47.533     5580.966     2572.362     2259.382        3.060        0.521      222.593       38.425        0.030      343.365       19.421      862.995
08/11/2013  00:04:00      107.813      100.249        6.624       54.956       36.560       37.324     3020.191     1336.605     1393.095        1.373        0.287      147.220       26.267        0.032      343.538       19.720      863.010
08/11/2013  00:05:00       33.670       24.358       18.918       49.720       42.766       21.724     2472.128     1828.973      471.929        0.343        0.239       41.557       16.195        0.152      343.378       19.447      863.026
08/11/2013  00:06:00       13.778       14.779       -4.204       28.302       41.930       18.940      801.002     1758.089      358.730        0.167        0.146       20.206       13.524        0.448      343.132       19.028      863.057
08/11/2013  00:07:00       41.610       21.597       18.373       35.288       30.399       15.306     1245.258      924.123      234.265        0.247        0.120       46.881       13.044        0.077      343.182       19.113      863.075
08/11/2013  00:08:00       81.766       42.721       22.156       35.086       24.505       21.579     1230.997      600.473      465.660        0.565        0.115       92.254       16.041        0.030      343.302       19.316      863.091
08/11/2013  00:09:00       66.543       40.710       16.975       33.016       35.287       24.527     1090.037     1245.193      601.596        0.465        0.147       78.008       10.975        0.020      343.174       19.099      863.113
08/11/2013  00:10:00       36.960        6.585        9.976       28.650       32.612       17.461      820.816     1063.561      304.892        0.185        0.109       37.542       12.714        0.115      342.986       18.780      863.141
08/11/2013  00:11:00       37.782      -52.685        5.072       28.015       35.914       25.474      784.840     1289.780      648.933        0.348        0.136       64.832       20.900        0.104      342.700       18.294      863.159
08/11/2013  00:12:00       22.928      -23.268        9.185       35.603       46.206       25.961     1267.558     2134.986      673.958        0.261        0.204       32.666       24.221        0.550      342.664       18.231      863.171
08/11/2013  00:13:00       13.435       20.002        7.298       28.116       32.374       15.330      790.514     1048.078      235.004        0.135        0.104       24.096        9.566        0.158      342.539       18.020      863.190
08/11/2013  00:14:00       54.504        4.338       16.695       40.402       41.316       31.174     1632.290     1707.044      971.832        0.379        0.216       54.676       25.878        0.224      342.417       17.811      863.185
08/11/2013  00:15:00       36.020      -19.547       12.803       28.365       28.553       30.043      804.581      815.284      902.556        0.218        0.126       40.982       19.687        0.231      342.367       17.725      863.179
08/11/2013  00:16:00       40.009      -28.226       13.417       27.260       34.427       26.784      743.110     1185.252      717.360        0.261        0.132       48.963       18.709        0.146      342.467       17.896      863.176
08/11/2013  00:17:00        4.437      -28.934       10.352       18.684       28.320       19.804      349.108      802.010      392.198        0.125        0.077       29.273       14.152        0.234      342.533       18.007      863.179
08/11/2013  00:18:00       29.961       -4.173       13.068       25.140       16.762       13.607      632.032      280.981      185.144        0.109        0.055       30.250        7.745        0.066      342.552       18.041      863.194
08/11/2013  00:19:00       -8.637       10.002       20.509       19.991       24.364       14.882      399.660      593.587      221.460        0.090        0.061       13.215       12.149        0.845      342.338       17.677      863.202
08/11/2013  00:20:00        2.107        0.266       23.785       15.432       32.911       21.382      238.142     1083.144      457.171        0.117        0.089        2.123       10.096       22.606      342.522       17.990      863.190
08/11/2013  00:21:00        7.797       -8.224       22.171       23.511       27.473       16.901      552.754      754.759      285.645        0.111        0.080       11.332        8.339        0.542      342.693       18.280      863.170
08/11/2013  00:22:00        9.712      -27.679       18.829       25.173       28.906       25.925      633.656      835.550      672.092        0.168        0.107       29.333       19.922        0.461      342.618       18.153      863.155
08/11/2013  00:23:00       21.587      -24.218        9.080       27.399       35.643       19.937      750.715     1270.434      397.493        0.178        0.121       32.442       20.972        0.418      342.647       18.203      863.155
08/11/2013  00:24:00       21.322       21.940        4.178       29.232       22.434       21.225      854.489      503.266      450.496        0.138        0.090       30.594       12.944        0.179      342.430       17.834      863.166
08/11/2013  00:25:00      -24.631       13.922       -1.087       16.052       20.516       12.509      257.664      420.902      156.482        0.082        0.042       28.293       12.301        0.189      342.883       18.603      863.171
08/11/2013  00:26:00      -22.872        2.507        1.512       18.788       17.354        9.546      352.999      301.149       91.131        0.064        0.037       23.009        6.853        0.089      342.912       18.653      863.183
08/11/2013  00:27:00       -3.469        4.483       10.442       11.632        8.893        6.902      135.292       79.079       47.640        0.020        0.013        5.668        3.490        0.379      342.561       18.058      863.179
08/11/2013  00:28:00        8.182        0.450        5.804        8.131       12.337       14.778       66.109      152.191      218.390        0.027        0.022        8.194        8.117        0.981      342.364       17.721      863.182
08/11/2013  00:29:00       21.543      -32.199       10.057       24.454       13.471       14.165      598.010      181.471      200.651        0.129        0.049       38.741        6.700        0.030      342.952       18.722      863.185
08/11/2013  00:30:00       12.430      -19.204       17.700       19.041       22.051       16.912      362.543      486.236      286.003        0.099        0.057       22.875       14.877        0.423      342.851       18.551      863.194
08/11/2013  00:31:00      -38.262      -86.760        1.990       24.026       28.772       15.946      577.260      827.804      254.290        0.533        0.083       94.823       10.427        0.012      343.026       18.848      863.205
08/11/2013  00:32:00      -64.442      -83.001       -7.069       18.123       18.324       10.554      328.425      335.768      111.396        0.593        0.039      105.080        4.477        0.002      343.331       19.367      863.206
08/11/2013  00:33:00      -54.911      -54.696       -2.811       26.836       31.994       13.592      720.181     1023.647      184.736        0.397        0.096       77.504       12.259        0.025      343.323       19.355      863.202
08/11/2013  00:34:00      -63.040      -55.092       -5.397       36.706       29.999       15.790     1347.367      899.969      249.311        0.477        0.125       83.721       10.791        0.017      343.206       19.156      863.205
08/11/2013  00:35:00      -53.092      -40.673        5.913       35.594       20.220       17.136     1266.955      408.867      293.645        0.324        0.098       66.881       16.446        0.060      343.076       18.934      863.214
08/11/2013  00:36:00      -97.220      -27.512       -4.853       37.954       24.627       16.730     1440.522      606.509      279.877        0.628        0.116      101.038       17.443        0.030      342.913       18.657      863.197
08/11/2013  00:37:00      -73.251       -7.167        1.109       27.323       18.224       12.026      746.528      332.124      144.630        0.332        0.061       73.600       13.072        0.032      343.005       18.812      863.173
08/11/2013  00:38:00     -102.778      -40.226       -0.892       15.466       17.161       12.715      239.190      294.504      161.680        0.644        0.035      110.369        8.181        0.005      343.082       18.943      863.167
08/11/2013  00:39:00     -120.566      -63.871        3.367       34.924       32.163       19.570     1219.706     1034.457      382.973        1.063        0.132      136.439       18.492        0.018      342.989       18.786      863.167
08/11/2013  00:40:00     -118.786      -36.990       -4.388       38.272       41.779       21.246     1464.740     1745.474      451.411        0.958        0.183      124.412       19.418        0.024      343.021       18.839      863.181
08/11/2013  00:41:00     -103.016        5.339       -6.127       43.077       23.855       16.369     1855.612      569.075      267.949        0.669        0.135      103.155       19.868        0.037      342.750       18.379      863.195
08/11/2013  00:42:00     -119.622       16.091       -8.970       31.232       25.724       13.715      975.428      661.737      188.106        0.824        0.091      120.700       12.411        0.011      342.607       18.135      863.201
08/11/2013  00:43:00     -142.708       -9.217      -12.104       47.216       29.463       17.943     2229.354      868.044      321.938        1.201        0.171      143.005       21.475        0.023      342.601       18.126      863.209
08/11/2013  00:44:00     -133.493      -38.797       -1.355       49.033       43.144       30.143     2404.213     1861.421      908.583        1.225        0.259      139.017       28.789        0.043      342.763       18.400      863.208
08/11/2013  00:45:00     -120.445      -47.477        5.531       40.793       38.704       24.642     1664.034     1497.994      607.233        1.028        0.188      129.465       19.600        0.023      342.860       18.566      863.203
08/11/2013  00:46:00      -31.093      -16.907        7.455       31.100       24.970       18.115      967.239      623.498      328.167        0.161        0.096       35.393       18.882        0.285      342.864       18.572      863.196
08/11/2013  00:47:00       17.371      -27.738       -0.802       21.799       23.110       25.166      475.199      534.070      633.314        0.136        0.082       32.728       17.789        0.295      342.633       18.178      863.203
08/11/2013  00:48:00       25.218       -1.905        3.677       20.229       12.768       16.934      409.204      163.030      286.770        0.076        0.043       25.290        5.331        0.044      342.256       17.538      863.223
08/11/2013  00:49:00       20.797        4.394       25.643       33.362       16.674       22.423     1112.995      278.031      502.780        0.150        0.095       21.256       17.575        0.684      342.189       17.425      863.238
08/11/2013  00:50:00       58.582      -24.273        6.765       27.160       24.598       25.155      737.642      605.060      632.759        0.302        0.099       63.411       15.368        0.059      342.111       17.292      863.259
08/11/2013  00:51:00       49.834      -29.317       15.473       21.851       32.118       25.015      477.474     1031.587      625.739        0.286        0.107       57.818       14.588        0.064      342.138       17.337      863.268
08/11/2013  00:52:00       49.690      -30.108        3.952       33.088       22.280       23.610     1094.826      496.403      557.437        0.277        0.107       58.100       13.759        0.056      342.216       17.470      863.279
08/11/2013  00:53:00       29.602      -64.128       -2.696       49.145       41.845       39.449     2415.205     1750.970     1556.256        0.536        0.286       70.630       19.220        0.074      341.727       16.641      863.273
08/11/2013  00:54:00       93.824      -80.776       -0.195       48.253       49.196       39.688     2328.334     2420.229     1575.165        1.082        0.316      123.805       31.763        0.066      341.899       16.932      863.267
08/11/2013  00:55:00       57.238      -52.798       23.377       45.916       51.191       39.898     2108.270     2620.552     1591.813        0.646        0.316       77.870       30.266        0.151      341.931       16.986      863.261
08/11/2013  00:56:00       48.884      -36.957       30.307       53.258       51.395       34.381     2836.437     2641.435     1182.053        0.567        0.333       61.282       22.063        0.130      342.105       17.284      863.271
08/11/2013  00:57:00       85.651      -75.181        6.075       53.066       51.837       45.802     2816.023     2687.063     2097.785        1.031        0.380      113.966       35.473        0.097      342.134       17.332      863.278
08/11/2013  00:58:00       42.306      -58.880       12.473       46.669       56.724       36.823     2178.023     3217.644     1355.927        0.608        0.338       72.503       29.279        0.163      342.162       17.378      863.292
08/11/2013  00:59:00       55.455      -62.999        2.968       43.173       48.179       38.571     1863.931     2321.200     1487.706        0.636        0.284       83.929       27.674        0.109      342.110       17.293      863.310
08/11/2013  01:00:00       16.531      -17.150       22.567       26.431       36.626       30.281      698.589     1341.492      916.951        0.202        0.148       23.820       20.454        0.737      341.987       17.081      863.313
08/11/2013  01:01:00       34.505      -32.013       20.453       51.041       51.439       33.689     2605.172     2645.924     1134.921        0.451        0.319       47.068       32.934        0.490      341.976       17.063      863.310
08/11/2013  01:02:00        7.747       10.914       35.423       26.324       34.614       26.832      692.939     1198.115      719.944        0.202        0.131       13.384       18.266        1.863      342.074       17.229      863.313
08/11/2013  01:03:00       48.775       58.202       41.358       51.280       46.206       38.190     2629.667     2134.983     1458.456        0.685        0.311       75.938       26.093        0.118      342.377       17.746      863.312
08/11/2013  01:04:00       61.871       68.547       72.027       48.013       33.611       27.161     2305.213     1129.671      737.697        0.894        0.209       92.340       18.198        0.039      342.437       17.846      863.319
08/11/2013  01:05:00       49.858       79.491       75.408       44.719       34.894       24.977     1999.784     1217.609      623.831        0.917        0.192       93.833       19.295        0.042      342.411       17.801      863.312
08/11/2013  01:06:00       10.931       44.227       74.771       23.740       33.573       16.582      563.569     1127.132      274.968        0.482        0.098       45.557       12.654        0.077      342.314       17.638      863.319
08/11/2013  01:07:00       13.134       -8.152       31.474       23.726       41.454       33.083      562.937     1718.415     1094.487        0.230        0.169       15.459       22.077        2.040      342.221       17.477      863.324
08/11/2013  01:08:00       41.219      -16.211       35.189       35.351       35.412       32.138     1249.717     1254.018     1032.858        0.337        0.177       44.293       16.609        0.141      342.138       17.337      863.332
08/11/2013  01:09:00       23.430      -24.048       23.162       30.299       38.147       27.033      918.031     1455.221      730.793        0.238        0.155       33.575       17.471        0.271      342.040       17.171      863.341
08/11/2013  01:10:00       -3.124        4.022       10.321       13.218       16.428       17.791      174.723      269.873      316.512        0.045        0.038        5.092       10.243        4.046      342.064       17.213      863.336
08/11/2013  01:11:00       48.394       40.379       16.944       36.274       28.800       23.786     1315.817      829.425      565.794        0.348        0.136       63.027        6.631        0.011      342.363       17.721      863.344
08/11/2013  01:12:00       98.432       88.341       54.593       51.476       35.728       35.275     2649.787     1276.509     1244.312        1.282        0.259      132.261       26.330        0.040      342.517       17.982      863.334
08/11/2013  01:13:00      133.413       69.848       25.407       48.714       31.765       27.205     2373.032     1009.040      740.138        1.372        0.206      150.591       23.941        0.025      342.607       18.134      863.332
08/11/2013  01:14:00      116.080       66.715       19.220       35.433       29.351       29.793     1255.480      861.486      887.630        1.065        0.150      133.886       19.723        0.022      342.514       17.976      863.323
08/11/2013  01:15:00      124.132       68.759       32.221       46.470       33.263       28.656     2159.498     1106.423      821.194        1.263        0.204      141.903       20.751        0.021      342.531       18.005      863.311
08/11/2013  01:16:00      108.216       70.484       21.108       46.922       35.557       31.064     2201.721     1264.284      964.979        1.078        0.222      129.146       27.060        0.044      342.483       17.925      863.319
08/11/2013  01:17:00      104.816       67.321       41.011       43.523       29.155       30.426     1894.216      850.001      925.711        1.043        0.183      124.573       23.453        0.035      342.491       17.940      863.315
08/11/2013  01:18:00      114.187       83.477       45.137       42.757       31.430       29.352     1828.138      987.821      861.535        1.286        0.184      141.446       20.383        0.021      342.514       17.977      863.310
08/11/2013  01:19:00       97.514       73.065       35.381       51.048       34.173       27.242     2605.895     1167.788      742.143        1.031        0.226      121.851       14.393        0.014      342.501       17.955      863.304
08/11/2013  01:20:00      128.428       76.681       33.773       51.359       35.126       26.262     2637.752     1233.863      689.671        1.404        0.228      149.578       20.913        0.020      342.581       18.090      863.299
08/11/2013  01:21:00      103.506       64.900       18.557       36.911       24.904       22.371     1362.395      620.218      500.481        0.888        0.124      122.170       18.849        0.024      342.553       18.043      863.286
08/11/2013  01:22:00       96.397       61.521       27.828       46.522       26.447       24.209     2164.253      699.429      586.054        0.865        0.172      114.356       17.277        0.023      342.476       17.914      863.292
08/11/2013  01:23:00       62.918       45.295        3.386       34.267       26.544       24.749     1174.233      704.596      612.504        0.426        0.125       77.527       14.958        0.037      342.472       17.906      863.289
08/11/2013  01:24:00       60.827       46.566       15.301       15.808       16.463       21.252      249.903      271.041      451.655        0.354        0.049       76.605        2.313        0.001      342.405       17.792      863.284
08/11/2013  01:25:00      100.624       65.305       19.787       26.514       25.144       26.739      702.974      632.235      714.953        0.842        0.103      119.958       15.199        0.016      342.180       17.408      863.273
08/11/2013  01:26:00       84.670       58.029       24.710       33.475       19.256       21.994     1120.564      370.807      483.722        0.656        0.099      102.646        4.566        0.002      342.473       17.907      863.270
08/11/2013  01:27:00       98.556       56.864       14.354       23.284       20.202       22.513      542.153      408.134      506.835        0.730        0.073      113.784       12.262        0.012      342.314       17.638      863.277
08/11/2013  01:28:00       84.743       48.928       16.347       21.449       22.385       17.144      460.040      501.105      293.918        0.555        0.063       97.853        9.936        0.010      342.469       17.901      863.279
08/11/2013  01:29:00      112.410       74.174       33.770       24.957       22.742       27.152      622.829      517.193      737.251        1.058        0.094      134.677        7.357        0.003      342.336       17.674      863.286
08/11/2013  01:30:00      133.595       88.359       39.213       40.146       31.365       38.584     1611.698      983.787     1488.750        1.564        0.204      160.172       23.916        0.022      342.432       17.838      863.281
08/11/2013  01:31:00       99.140       77.339       62.439       51.980       34.246       38.533     2701.944     1172.774     1484.798        1.253        0.268      125.738       23.127        0.034      342.327       17.658      863.289
08/11/2013  01:32:00       21.465       87.240       91.198       50.990       41.828       29.330     2599.936     1749.593      860.250        1.080        0.260       89.842       22.603        0.063      342.170       17.392      863.311
08/11/2013  01:33:00      -10.113       22.523       51.008       30.079       37.687       32.208      904.733     1420.317     1037.328        0.329        0.168       24.689       28.912        1.371      341.920       16.969      863.329
08/11/2013  01:34:00       63.055      -58.253       12.821       61.508       53.503       37.016     3783.270     2862.528     1370.177        0.777        0.401       85.845       27.119        0.100      341.923       16.973      863.334
08/11/2013  01:35:00       30.062      -14.567       24.774       53.547       42.758       42.157     2867.232     1828.281     1777.198        0.410        0.324       33.406       30.482        0.833      342.083       17.245      863.334
08/11/2013  01:36:00       26.570        1.143       35.073       36.653       37.460       34.440     1343.449     1403.242     1186.121        0.293        0.197       26.594       12.779        0.231      341.999       17.102      863.326
08/11/2013  01:37:00       11.843       -8.692       40.231       28.423       41.949       31.115      807.842     1759.758      968.128        0.268        0.177       14.690       13.221        0.810      341.854       16.856      863.322
08/11/2013  01:38:00       14.722      -24.528       27.501       34.249       39.036       29.588     1173.008     1523.838      875.476        0.257        0.179       28.607       19.406        0.460      341.906       16.944      863.311
08/11/2013  01:39:00       42.863      -50.472       10.893       33.353       36.290       30.885     1112.451     1316.976      953.905        0.394        0.169       66.217       26.470        0.160      341.640       16.494      863.311
08/11/2013  01:40:00       62.496      -79.953        1.291       32.156       24.996       28.293     1034.036      624.782      800.519        0.638        0.123      101.480       16.246        0.026      341.647       16.504      863.321
08/11/2013  01:41:00       22.951      -59.756        2.741       29.227       27.496       23.253      854.193      756.010      540.701        0.313        0.108       64.012       13.138        0.042      341.868       16.880      863.328
08/11/2013  01:42:00       33.673      -19.938        9.996       37.665       34.032       25.353     1418.620     1158.204      642.772        0.242        0.161       39.133       17.240        0.194      342.168       17.389      863.338
08/11/2013  01:43:00       43.142      -23.843       17.443       28.979       27.543       19.550      839.780      758.610      382.218        0.236        0.099       49.292       15.413        0.098      341.887       16.912      863.340
08/11/2013  01:44:00       52.487        6.448        8.878       25.228       23.217       20.678      636.430      539.027      427.582        0.224        0.080       52.882       16.673        0.099      341.847       16.845      863.339
08/11/2013  01:45:00       38.396      -13.112        5.471       30.000       19.823       15.698      900.029      392.955      246.421        0.161        0.077       40.573       15.806        0.152      342.228       17.490      863.341
08/11/2013  01:46:00       45.364      -56.777        0.529       22.435       35.433       16.067      503.349     1255.478      258.144        0.365        0.101       72.674       18.814        0.067      342.321       17.649      863.341
08/11/2013  01:47:00       92.169      -92.837      -11.520       38.036       35.987       19.808     1446.701     1295.099      392.346        1.019        0.157      130.820       16.897        0.017      342.452       17.871      863.341
08/11/2013  01:48:00      118.568      -97.968       -2.754       28.032       32.934       21.790      785.777     1084.619      474.793        1.300        0.117      153.805       18.728        0.015      342.480       17.920      863.347
08/11/2013  01:49:00       47.570      -16.008       22.632       56.426       60.461       35.141     3183.945     3655.474     1234.862        0.555        0.404       50.191       43.120        0.738      342.349       17.695      863.349
08/11/2013  01:50:00       19.580       40.581       65.078       33.761       34.371       26.850     1139.825     1181.372      720.930        0.465        0.152       45.058       23.166        0.264      342.466       17.894      863.349
08/11/2013  01:51:00       33.577      -53.559       31.879       35.564       45.446       27.487     1264.818     2065.316      755.515        0.455        0.204       63.214       27.244        0.186      342.525       17.998      863.344
08/11/2013  01:52:00       57.054      -79.994       10.561       38.552       36.101       33.944     1486.276     1303.268     1152.208        0.685        0.197       98.256       19.433        0.039      342.592       18.110      863.341
08/11/2013  01:53:00       16.038       14.231       53.650       30.766       40.713       18.787      946.567     1657.509      352.949        0.315        0.148       21.442       19.538        0.830      342.492       17.940      863.358
08/11/2013  01:54:00       28.928      -39.073       23.225       27.942       33.162       24.384      780.777     1099.733      594.586        0.269        0.124       48.616       23.594        0.236      342.583       18.094      863.359
08/11/2013  01:55:00       14.852      -54.035       12.251       22.385       38.750       20.584      501.087     1501.548      423.703        0.286        0.121       56.039       15.023        0.072      342.493       17.941      863.367
08/11/2013  01:56:00       20.143       25.274        9.924       13.239       10.837       16.918      175.262      117.438      286.230        0.086        0.029       32.318       10.805        0.112      342.310       17.630      863.379
08/11/2013  01:57:00       12.700       16.367        3.554        9.085       13.906        6.619       82.530      193.386       43.811        0.038        0.016       20.716        4.601        0.049      342.292       17.599      863.376
08/11/2013  01:58:00       34.877       11.142       -2.902       10.626       13.121       10.179      112.915      172.172      103.611        0.087        0.019       36.613        4.946        0.018      342.263       17.549      863.363
08/11/2013  01:59:00       50.172       49.012       -2.369       23.152       19.229       14.980      535.995      369.739      224.415        0.303        0.057       70.139       10.641        0.023      342.186       17.419      863.354
08/11/2013  02:00:00       27.840       70.876       -1.589       22.003       30.189       23.589      484.132      911.349      556.458        0.388        0.098       76.147       16.376        0.046      342.158       17.371      863.355
08/11/2013  02:01:00       44.164       86.759      -14.585       26.579       46.126       16.931      706.427     2127.568      286.646        0.640        0.156       97.353       16.029        0.027      342.398       17.780      863.363
08/11/2013  02:02:00       52.738       25.529       14.728       17.248       21.786       17.487      297.480      474.612      305.811        0.236        0.054       58.592       13.526        0.053      342.359       17.710      863.374
08/11/2013  02:03:00       32.578        3.669        1.292       15.563       20.899       14.778      242.209      436.750      218.398        0.099        0.045       32.784       10.584        0.104      342.265       17.553      863.381
08/11/2013  02:04:00        5.976       -6.096       -2.055       10.141       11.552        6.734      102.836      133.449       45.344        0.018        0.014        8.536        6.549        0.589      342.272       17.565      863.378
08/11/2013  02:05:00       11.549       11.452       -3.825        9.048       11.176        7.521       81.860      124.913       56.560        0.027        0.013       16.264        5.764        0.126      342.318       17.642      863.376
08/11/2013  02:06:00       16.253       15.253        4.758       10.451       10.020        6.630      109.230      100.409       43.951        0.039        0.013       22.289        4.315        0.037      342.339       17.679      863.369
08/11/2013  02:07:00        3.642       -2.676       14.341        7.986        7.329        8.059       63.777       53.715       64.945        0.020        0.009        4.519        4.270        0.893      342.240       17.510      863.356
08/11/2013  02:08:00       -2.163      -17.202       11.327       10.770       16.032       11.571      116.003      257.025      133.896        0.047        0.025       17.337        6.808        0.154      342.317       17.641      863.336
08/11/2013  02:09:00       -2.492      -23.409       20.386       13.061       21.378       18.721      170.591      457.016      350.493        0.097        0.049       23.541       10.930        0.216      342.250       17.528      863.332
08/11/2013  02:10:00       10.277       21.173       29.643       14.415       15.777        9.493      207.806      248.921       90.111        0.099        0.027       23.536        4.737        0.041      342.133       17.329      863.323
08/11/2013  02:11:00       16.207       15.246       12.213       11.561       11.419       15.487      133.665      130.387      239.860        0.057        0.025       22.251        5.177        0.054      342.154       17.364      863.326
08/11/2013  02:12:00        4.187       30.012       -9.185        6.522       10.257        7.854       42.533      105.201       61.684        0.061        0.010       30.302        6.983        0.053      342.269       17.560      863.332
08/11/2013  02:13:00        2.488       29.165       -1.218        5.632        9.805        8.416       31.720       96.130       70.827        0.053        0.010       29.271        6.327        0.047      342.243       17.516      863.343
08/11/2013  02:14:00      -32.826       41.871      -11.023       20.175       18.533        8.331      407.031      343.462       69.410        0.189        0.041       53.205        7.991        0.023      342.267       17.556      863.354
08/11/2013  02:15:00      -56.094       35.786      -11.115       12.233       15.073        8.028      149.656      227.200       64.451        0.250        0.022       66.537        5.105        0.006      342.221       17.479      863.368
08/11/2013  02:16:00      -29.249       33.155       -6.574       11.694       10.853        5.564      136.746      117.779       30.961        0.114        0.014       44.212        3.879        0.008      342.291       17.597      863.375
08/11/2013  02:17:00      -17.295       23.094       -0.232       15.969       13.688        9.646      255.005      187.365       93.052        0.068        0.027       28.852        9.804        0.115      342.151       17.359      863.388
08/11/2013  02:18:00      -16.355       16.390       -2.203       32.725       18.661       10.402     1070.926      348.216      108.205        0.103        0.076       23.154       11.664        0.254      342.066       17.215      863.394
08/11/2013  02:19:00       14.661       21.320       -4.044       12.994       11.809        6.617      168.854      139.442       43.782        0.052        0.018       25.874        4.592        0.031      342.047       17.184      863.395
08/11/2013  02:20:00       10.176       -4.310        0.190       11.768       15.957       11.043      138.487      254.628      121.941        0.032        0.026       11.051       10.566        0.914      341.956       17.028      863.394
08/11/2013  02:21:00       -6.728      -34.300        3.108       10.835       15.933       16.428      117.394      253.871      269.883        0.094        0.032       34.953        8.253        0.056      341.966       17.046      863.406
08/11/2013  02:22:00       -1.245      -21.029       18.323        9.055       22.987       10.808       82.001      528.410      116.818        0.075        0.036       21.066        6.459        0.094      341.920       16.968      863.419
08/11/2013  02:23:00        6.393       32.894       38.946       22.071       19.524       13.524      487.143      381.178      182.904        0.185        0.053       33.509        5.644        0.028      341.831       16.817      863.439
08/11/2013  02:24:00       69.465       47.398       15.704       19.788       17.388       20.426      391.548      302.353      417.216        0.421        0.056       84.095       12.786        0.023      341.874       16.889      863.450
08/11/2013  02:25:00        9.551       48.709        1.550       20.982       37.916       18.479      440.250     1437.624      341.460        0.234        0.111       49.636       20.748        0.175      341.628       16.472      863.455
08/11/2013  02:26:00       -3.413      169.756      -20.975       13.305       32.322        9.511      177.026     1044.697       90.450        1.529        0.066      169.790        7.871        0.002      341.771       16.715      863.453
08/11/2013  02:27:00       20.639      161.860      -31.699       20.673       28.459       14.789      427.383      809.907      218.723        1.454        0.073      163.170       12.525        0.006      341.888       16.914      863.443
08/11/2013  02:28:00      -10.115      115.460      -20.296       20.529       21.124       11.114      421.452      446.232      123.517        0.742        0.050      115.902       11.942        0.011      341.827       16.810      863.435
08/11/2013  02:29:00      -62.013       71.364      -14.796       31.904       19.350       13.918     1017.893      374.427      193.723        0.537        0.079       94.543       15.171        0.026      341.619       16.457      863.431
08/11/2013  02:30:00      -68.194       36.181      -15.121       20.312       20.066       13.389      412.573      402.628      179.262        0.359        0.050       77.198       14.715        0.036      341.594       16.414      863.430
08/11/2013  02:31:00      -47.938        1.878      -11.573       10.293       14.521       10.663      105.938      210.845      113.704        0.143        0.022       47.974        5.564        0.013      341.589       16.407      863.432
08/11/2013  02:32:00      -48.040      -35.213      -12.126       19.811       15.687       13.912      392.470      246.091      193.539        0.226        0.042       59.563        6.466        0.012      341.600       16.425      863.426
08/11/2013  02:33:00      -60.859      -39.480       -2.388       22.605       19.720       11.306      510.974      388.887      127.817        0.315        0.051       72.543        5.261        0.005      341.566       16.367      863.419
08/11/2013  02:34:00      -55.736      -39.560       -2.489       24.666       14.694       14.185      608.436      215.906      201.226        0.285        0.051       68.349        9.475        0.019      341.599       16.424      863.420
08/11/2013  02:35:00      -15.516      -24.264        5.240       18.645       12.997       11.281      347.628      168.910      127.267        0.075        0.032       28.801       10.271        0.127      341.651       16.513      863.418
08/11/2013  02:36:00      -22.724      -26.366       -1.835       15.617        7.476        9.381      243.883       55.887       88.004        0.080        0.019       34.807        8.031        0.053      341.682       16.564      863.411
08/11/2013  02:37:00      -14.143      -18.527       -7.097        9.961       10.304        6.412       99.212      106.173       41.116        0.042        0.012       23.308        6.229        0.071      341.839       16.830      863.405
08/11/2013  02:38:00       -5.734        1.357        0.036        5.764        3.608        4.712       33.220       13.015       22.206        0.005        0.003        5.893        3.780        0.411      341.802       16.766      863.403
08/11/2013  02:39:00       -5.998       -3.989       -0.592        5.191        3.895        3.930       26.947       15.170       15.448        0.005        0.003        7.203        3.913        0.295      341.818       16.796      863.409
08/11/2013  02:40:00      -23.713       -6.124       -1.493        9.738        4.494        2.220       94.831       20.195        4.928        0.036        0.006       24.490        2.568        0.011      341.853       16.854      863.416
08/11/2013  02:41:00      -37.164       -7.665       -4.545        4.038        6.649        4.343       16.302       44.203       18.864        0.077        0.004       37.946        2.022        0.003      341.773       16.717      863.426
08/11/2013  02:42:00      -27.375      -12.045       -2.601        5.199        4.734        4.254       27.031       22.410       18.097        0.048        0.003       29.908        2.043        0.005      341.742       16.666      863.427
08/11/2013  02:43:00      -16.778       -9.631        2.420       11.302        9.817        8.962      127.730       96.366       80.311        0.034        0.015       19.346        7.742        0.160      341.650       16.510      863.421
08/11/2013  02:44:00        3.518       -9.247        3.410       10.683       10.983       11.676      114.134      120.618      136.325        0.024        0.019        9.893        5.118        0.268      341.601       16.428      863.422
08/11/2013  02:45:00       -3.959      -12.232        9.076       18.403       18.539       15.169      338.657      343.680      230.101        0.058        0.046       12.857       14.777        1.321      341.441       16.156      863.421
08/11/2013  02:46:00        8.846      -14.154       -1.851       18.951       25.758       13.529      359.151      663.480      183.026        0.074        0.060       16.691       10.668        0.409      341.362       16.023      863.426
08/11/2013  02:47:00       32.377      -38.069        8.196       37.525       36.485       30.503     1408.110     1331.169      930.459        0.312        0.183       49.976       21.962        0.193      340.963       15.348      863.416
08/11/2013  02:48:00       48.158      -31.909       -0.872       46.267       30.344       26.906     2140.598      920.760      723.915        0.356        0.189       57.769       22.000        0.145      341.059       15.510      863.415
08/11/2013  02:49:00      -10.455      -12.991       -4.394       29.794       16.754       16.234      887.659      280.691      263.557        0.086        0.072       16.676       15.405        0.853      341.346       15.996      863.414
08/11/2013  02:50:00      -69.565      -26.203        2.406       24.982       19.332       11.084      624.116      373.716      122.848        0.333        0.056       74.336        4.300        0.003      341.513       16.275      863.419
08/11/2013  02:51:00      -52.222      -28.128        2.292       32.468       23.703       15.064     1054.156      561.821      226.932        0.268        0.092       59.316       15.460        0.068      341.425       16.129      863.417
08/11/2013  02:52:00      -47.524      -17.150        4.908       24.210       17.954       12.701      586.131      322.333      161.309        0.182        0.053       50.524        7.303        0.021      341.266       15.860      863.408
08/11/2013  02:53:00      -29.070       -1.112       -0.415       16.892       17.480        9.479      285.342      305.540       89.856        0.076        0.034       29.091        7.286        0.063      341.102       15.582      863.402
08/11/2013  02:54:00      -51.965       -8.909       -5.871       14.740       11.666        7.766      217.273      136.094       60.316        0.161        0.021       52.723        5.377        0.010      341.149       15.663      863.398
08/11/2013  02:55:00      -82.294       -4.636       -3.691       36.117       18.470       18.807     1304.466      341.133      353.721        0.440        0.100       82.425       15.104        0.034      341.025       15.452      863.405
08/11/2013  02:56:00      -64.795       20.359       -1.863       51.105       49.401       27.680     2611.766     2440.457      766.190        0.522        0.291       67.918       21.007        0.096      340.756       14.994      863.406
08/11/2013  02:57:00     -189.811       27.311      -18.276       50.232       61.126       30.017     2523.275     3736.332      901.022        2.213        0.358      191.766       20.458        0.011      340.729       14.949      863.402
08/11/2013  02:58:00      -75.842       32.487      -14.046       39.609       32.311       23.156     1568.909     1044.016      536.185        0.508        0.157       82.507       18.495        0.050      340.834       15.128      863.396
08/11/2013  02:59:00      -53.304       18.377       -2.887       17.584       29.723       14.572      309.202      883.446      212.346        0.230        0.070       56.383        8.829        0.025      340.978       15.372      863.401
08/11/2013  03:00:00      -12.272      -16.910        3.989       22.467       13.265        8.473      504.775      175.973       71.794        0.060        0.038       20.894        6.879        0.108      340.972       15.361      863.401
08/11/2013  03:01:00       19.307      -15.515       -9.336       16.627       16.376       11.424      276.457      268.164      130.497        0.069        0.034       24.768        7.202        0.085      341.011       15.428      863.399
08/11/2013  03:02:00       -5.081      -23.631      -10.396       22.441       18.190       18.654      503.615      330.879      347.981        0.094        0.059       24.171       16.988        0.494      340.920       15.271      863.400
08/11/2013  03:03:00       -4.758      -23.228       -6.428       39.038       17.087       16.731     1523.990      291.958      279.938        0.135        0.105       23.710       18.662        0.620      340.819       15.102      863.419
08/11/2013  03:04:00      -63.559        1.521       -7.079        8.503       12.206        8.557       72.301      148.979       73.230        0.219        0.015       63.578        0.823        0.000      340.894       15.229      863.426
08/11/2013  03:05:00      -45.272       13.511       -5.954       17.382       17.660       13.481      302.143      311.863      181.724        0.153        0.040       47.245        9.703        0.042      340.993       15.397      863.428
08/11/2013  03:06:00      -59.670       14.903       -8.083       26.649       18.678       10.810      710.144      348.871      116.862        0.251        0.059       61.503       10.282        0.028      341.060       15.511      863.440
08/11/2013  03:07:00      -39.757        1.234       -1.156       16.917       19.318       13.491      286.198      373.187      182.005        0.121        0.042       39.777        9.840        0.061      340.988       15.389      863.453
08/11/2013  03:08:00        3.439      -11.042       10.408       22.391       20.349       12.316      501.361      414.080      151.690        0.065        0.053       11.565        4.789        0.171      340.887       15.218      863.463
08/11/2013  03:09:00      -17.106      -53.886       14.834       46.861       46.671       22.143     2195.977     2178.199      490.307        0.414        0.243       56.536       22.072        0.152      340.826       15.114      863.478
08/11/2013  03:10:00      -97.791      -73.380       -1.911       47.016       40.066       29.951     2210.485     1605.286      897.064        0.983        0.236      122.260       20.484        0.028      340.944       15.314      863.485
08/11/2013  03:11:00     -107.492      -69.465        3.066       40.404       35.141       22.099     1632.490     1234.876      488.376        0.987        0.168      127.984       16.743        0.017      340.923       15.277      863.485
08/11/2013  03:12:00     -134.131      -40.542       -7.358       44.572       38.990       23.044     1986.672     1520.219      531.005        1.186        0.202      140.124       19.976        0.020      340.908       15.253      863.481
08/11/2013  03:13:00     -129.886      -23.141        1.068       58.152       29.866       29.212     3381.632      891.962      853.346        1.127        0.256      131.932       31.194        0.056      340.709       14.917      863.493
08/11/2013  03:14:00     -121.857      -35.271       -7.870       44.926       25.399       18.571     2018.354      645.129      344.885        0.958        0.150      126.859       10.712        0.007      340.701       14.903      863.483
08/11/2013  03:15:00      -46.968      -14.016       -0.169       31.082       18.968       15.798      966.118      359.780      249.562        0.199        0.079       49.015       15.656        0.102      340.755       14.994      863.480
08/11/2013  03:16:00      -68.694      -14.514       -4.371       26.651       21.922        9.964      710.296      480.590       99.289        0.312        0.065       70.211        6.919        0.010      341.038       15.474      863.482
08/11/2013  03:17:00      -72.795      -13.412       -4.913       20.225       12.541        9.868      409.048      157.277       97.378        0.308        0.033       74.020        7.837        0.011      341.010       15.426      863.474
08/11/2013  03:18:00     -106.551      -19.579      -10.947       18.462       14.811       11.418      340.860      219.367      130.371        0.627        0.035      108.334        5.361        0.002      340.978       15.373      863.477
08/11/2013  03:19:00      -84.664       -5.205       -7.675       37.930       20.403       13.311     1438.650      416.273      177.175        0.464        0.102       84.824       13.111        0.024      340.818       15.101      863.490
08/11/2013  03:20:00      -86.184       28.108       -8.006       41.872       32.780       21.959     1753.240     1074.555      482.219        0.580        0.166       90.652       18.308        0.041      340.702       14.905      863.495
08/11/2013  03:21:00     -102.429       30.644       -2.137       34.062       26.423       20.988     1160.250      698.193      440.494        0.687        0.115      106.914       21.029        0.039      340.906       15.250      863.492
08/11/2013  03:22:00      -79.458      -26.254       -4.082       21.449       33.266       13.490      460.054     1106.615      181.984        0.438        0.087       83.683       12.013        0.021      340.908       15.253      863.507
08/11/2013  03:23:00      -71.759      -30.294       -3.626       16.850       25.666       14.214      283.932      658.767      202.049        0.361        0.057       77.891       11.801        0.023      340.832       15.124      863.502
08/11/2013  03:24:00      -89.173      -11.723       -9.919       13.990       16.952       12.393      195.726      287.360      153.598        0.441        0.032       89.940        8.995        0.010      340.785       15.045      863.504
08/11/2013  03:25:00      -74.506      -14.570       -7.093       29.820       18.681       15.969      889.248      348.995      255.009        0.365        0.075       75.918       15.220        0.040      340.737       14.962      863.504
08/11/2013  03:26:00      -21.113       -5.650       14.578       26.197       31.807       18.560      686.301     1011.664      344.456        0.137        0.102       21.856       11.129        0.259      340.603       14.738      863.495
08/11/2013  03:27:00      -44.204        9.135        1.039       25.828       18.253       17.266      667.093      333.160      298.114        0.167        0.065       45.138       15.180        0.113      340.633       14.789      863.479
08/11/2013  03:28:00      -61.621      -21.959       -3.280       17.710       18.041       12.421      313.647      325.484      154.285        0.254        0.040       65.416        5.020        0.006      340.750       14.987      863.470
08/11/2013  03:29:00      -58.573      -14.949       -9.439       15.558       18.490       11.856      242.051      341.883      140.570        0.223        0.036       60.450        7.060        0.014      340.709       14.917      863.461
08/11/2013  03:30:00      -23.561       -7.992       -1.171       20.999       14.691       12.847      440.947      215.834      165.046        0.072        0.041       24.879       10.350        0.173      340.653       14.821      863.461
08/11/2013  03:31:00      -80.549       -6.459      -11.459       22.008       12.083        9.639      484.359      145.995       92.904        0.369        0.036       80.808        8.753        0.012      340.637       14.794      863.462
08/11/2013  03:32:00      -65.453      -16.621      -17.672       16.578       18.196       13.111      274.817      331.109      171.898        0.283        0.039       67.530        7.003        0.011      340.550       14.650      863.446
08/11/2013  03:33:00      -73.532      -16.717      -13.526       16.477       17.221        9.388      271.483      296.549       88.125        0.326        0.033       75.408        7.329        0.009      340.572       14.685      863.439
08/11/2013  03:34:00      -78.405      -29.040      -15.001       16.498       22.182        8.823      272.168      492.055       77.850        0.403        0.042       83.610        6.266        0.006      340.546       14.641      863.433
08/11/2013  03:35:00      -54.332      -43.804       -4.397       25.393       21.844       14.159      644.810      477.179      200.466        0.311        0.066       69.790       13.447        0.037      340.507       14.576      863.421
08/11/2013  03:36:00      -86.475      -39.202       -8.519       14.497       13.558       10.914      210.163      183.816      119.116        0.480        0.026       94.946        3.282        0.001      340.561       14.668      863.416
08/11/2013  03:37:00      -83.019      -36.038      -10.341       23.101       24.823       12.332      533.663      616.174      152.082        0.480        0.065       90.504       10.599        0.014      340.576       14.693      863.430
08/11/2013  03:38:00      -89.986      -49.386       -6.889       25.160       17.349       13.753      633.021      300.984      189.139        0.585        0.056      102.647       12.519        0.015      340.539       14.631      863.431
08/11/2013  03:39:00     -101.229      -50.943       -7.506       11.833       14.105        7.498      140.027      198.939       56.225        0.665        0.020      113.324        6.453        0.003      340.598       14.729      863.429
08/11/2013  03:40:00      -73.317      -40.312        0.713       31.058       17.822       15.797      964.618      317.618      249.543        0.427        0.077       83.668       13.839        0.027      340.545       14.640      863.430
08/11/2013  03:41:00      -49.756      -37.398        0.862       30.621       14.672       15.071      937.655      215.261      227.121        0.263        0.069       62.244       15.026        0.058      340.580       14.699      863.428
08/11/2013  03:42:00      -54.882      -37.302       -2.146       27.690       15.447       13.448      766.734      238.596      180.854        0.280        0.059       66.359       13.111        0.039      340.585       14.707      863.414
08/11/2013  03:43:00      -59.649      -37.425       -4.345       21.499       19.413       10.368      462.205      376.862      107.498        0.296        0.047       70.417        7.295        0.011      340.609       14.748      863.403
08/11/2013  03:44:00      -80.667      -41.203       -8.792       13.156       15.730        8.884      173.075      247.442       78.931        0.439        0.025       90.581        5.419        0.004      340.607       14.744      863.415
08/11/2013  03:45:00      -90.925      -48.154       -5.755       26.913       15.397       17.154      724.324      237.054      294.254        0.594        0.063      102.889       10.923        0.011      340.525       14.606      863.422
08/11/2013  03:46:00      -69.745      -57.587       -0.713       40.544       35.502       21.234     1643.846     1260.386      450.876        0.577        0.168       90.447       21.919        0.059      340.494       14.554      863.429
08/11/2013  03:47:00      -75.959      -73.306       -0.455       44.541       38.400       22.816     1983.893     1474.597      520.574        0.756        0.199      105.563       21.514        0.042      340.474       14.519      863.429
08/11/2013  03:48:00     -125.039      -56.822       -3.595       28.226       40.009       18.287      796.687     1600.749      334.404        1.080        0.137      137.345       15.167        0.012      340.486       14.540      863.439
08/11/2013  03:49:00      -76.620      -41.601       -7.464       28.428       22.748       15.814      808.170      517.473      250.075        0.462        0.079       87.185       12.425        0.020      340.420       14.429      863.442
08/11/2013  03:50:00      -80.219      -21.794       -0.860       34.446       25.209       19.232     1186.506      635.484      369.873        0.455        0.110       83.127       18.125        0.048      340.317       14.253      863.426
08/11/2013  03:51:00      -86.879      -37.306       -1.969       24.935       22.776       14.081      621.771      518.753      198.266        0.514        0.067       94.550        9.863        0.011      340.381       14.361      863.422
08/11/2013  03:52:00      -47.370      -41.646        3.446       21.810       26.381       14.564      475.683      695.958      212.100        0.269        0.069       63.074        6.092        0.009      340.488       14.543      863.416
08/11/2013  03:53:00      -61.934      -26.929        5.958       38.670       16.124       10.242     1495.358      259.997      104.903        0.323        0.093       67.535       11.377        0.028      340.548       14.645      863.422
08/11/2013  03:54:00     -123.308      -39.000      -14.087       17.530       19.866       13.796      307.307      394.662      190.330        0.891        0.045      129.329        9.035        0.005      340.466       14.505      863.419
08/11/2013  03:55:00     -121.404      -29.286       -5.358       31.824       24.704       14.945     1012.770      610.264      223.353        0.874        0.092      124.886       16.398        0.017      340.355       14.319      863.421
08/11/2013  03:56:00     -115.422      -68.855       -1.321       45.278       29.513       18.967     2050.076      871.006      359.763        1.067        0.164      134.400       14.548        0.012      340.381       14.361      863.420
08/11/2013  03:57:00      -90.524      -56.737        5.951       58.302       33.294       22.986     3399.079     1108.498      528.370        0.824        0.252      106.835       22.069        0.043      340.536       14.624      863.428
08/11/2013  03:58:00      -68.014      -60.568        2.250       47.465       20.722       19.303     2252.907      429.386      372.598        0.568        0.153       91.073       16.123        0.031      340.653       14.821      863.426
08/11/2013  03:59:00      -65.239      -37.800        2.415       23.457       16.910       14.278      550.222      285.951      203.870        0.337        0.052       75.399       10.181        0.018      340.586       14.709      863.421
08/11/2013  04:00:00      -36.900      -38.913       11.742       38.234       22.546       17.704     1461.815      508.342      313.431        0.265        0.114       53.627       21.562        0.162      340.555       14.656      863.432
08/11/2013  04:01:00      -80.941      -37.536       -3.591       21.366       24.850       13.036      456.489      617.546      169.929        0.461        0.062       89.221       12.393        0.019      340.456       14.487      863.448
08/11/2013  04:02:00      -84.487      -38.498        1.097       29.871       16.668       14.417      892.303      277.837      207.861        0.500        0.069       92.845       13.382        0.021      340.472       14.516      863.433
08/11/2013  04:03:00      -97.937      -26.948       -6.553       21.206       23.730       12.294      449.715      563.097      151.142        0.576        0.058      101.577       10.571        0.011      340.478       14.526      863.419
08/11/2013  04:04:00      -88.924      -52.673       -6.766       24.356       29.573       16.447      593.223      874.572      270.512        0.623        0.087      103.353       14.474        0.020      340.469       14.511      863.413
08/11/2013  04:05:00      -59.746      -38.080       -1.270       36.831       20.204       17.486     1356.501      408.210      305.757        0.355        0.104       70.850       18.734        0.070      340.436       14.455      863.413
08/11/2013  04:06:00      -34.217      -46.956        3.635       40.136       35.962       20.031     1610.937     1293.239      401.245        0.335        0.165       58.100       17.341        0.089      340.443       14.467      863.413
08/11/2013  04:07:00      -78.624      -47.728        2.176       39.001       30.837       18.845     1521.107      950.908      355.151        0.565        0.141       91.977       12.708        0.019      340.392       14.380      863.413
08/11/2013  04:08:00      -56.226      -42.231        1.251       42.834       30.478       24.131     1834.765      928.929      582.307        0.415        0.167       70.319       23.452        0.111      340.338       14.289      863.426
08/11/2013  04:09:00      -95.918      -60.771       -5.211       33.281       34.485       19.993     1107.644     1189.226      399.720        0.781        0.135      113.548       22.702        0.040      340.301       14.227      863.427
08/11/2013  04:10:00      -82.608      -24.904      -10.655       19.467       16.502       10.328      378.979      272.300      106.677        0.416        0.038       86.281        6.165        0.005      340.285       14.201      863.427
08/11/2013  04:11:00      -49.087      -38.512        1.372       29.160       14.821       15.270      850.292      219.673      233.177        0.260        0.065       62.392       14.619        0.055      340.343       14.298      863.433
08/11/2013  04:12:00      -43.125      -31.035       -1.416       15.815       11.657        7.291      250.104      135.893       53.165        0.163        0.022       53.131        6.527        0.015      340.496       14.557      863.444
08/11/2013  04:13:00      -50.664      -18.163       -9.246       11.273        8.600        9.144      127.076       73.955       83.612        0.163        0.014       53.821        4.624        0.007      340.501       14.564      863.453
08/11/2013  04:14:00      -71.647      -16.770       -8.014       14.793       13.302        7.131      218.839      176.934       50.857        0.296        0.022       73.584        5.496        0.006      340.395       14.387      863.466
08/11/2013  04:15:00     -103.909      -54.344      -15.459       15.654       14.613       11.681      245.049      213.528      136.451        0.729        0.030      117.262        8.709        0.006      340.291       14.210      863.475
08/11/2013  04:16:00      -74.439      -42.062       -5.358       20.445       15.087       11.607      418.015      227.615      134.734        0.406        0.039       85.501        7.204        0.007      340.269       14.173      863.491
08/11/2013  04:17:00      -83.832      -39.918       -3.428       14.879       13.206       10.043      221.383      174.394      100.867        0.456        0.025       92.851        7.693        0.007      340.447       14.472      863.488
08/11/2013  04:18:00      -79.358      -31.464      -13.497       18.675       13.744        9.549      348.751      188.896       91.179        0.405        0.031       85.368        8.540        0.010      340.337       14.290      863.480
08/11/2013  04:19:00     -103.490      -10.709      -10.253       18.078       15.545        9.749      326.806      241.651       95.036        0.580        0.033      104.043        4.011        0.001      340.299       14.221      863.469
08/11/2013  04:20:00     -115.560      -16.744      -13.289       12.279       17.191       10.341      150.765      295.517      106.927        0.718        0.028      116.767        5.367        0.002      340.231       14.109      863.474
08/11/2013  04:21:00      -70.112       -2.200       -7.284       30.972       14.222       10.740      959.287      202.266      115.347        0.313        0.064       70.146       11.692        0.028      340.130       13.938      863.472
08/11/2013  04:22:00      -36.517       -5.126       -3.885       18.886       16.842       11.889      356.687      283.669      141.350        0.108        0.039       36.875        9.104        0.061      340.175       14.013      863.457
08/11/2013  04:23:00      -54.782      -17.831       -6.521       15.402       12.136        8.423      237.208      147.287       70.944        0.191        0.023       57.611        3.391        0.003      340.231       14.106      863.448
08/11/2013  04:24:00      -20.714       -7.209       -1.853       23.115       14.866        8.468      534.293      221.001       71.714        0.066        0.041       21.932        5.618        0.066      340.137       13.949      863.452
08/11/2013  04:25:00      -58.226      -19.897       -3.681       14.266       13.724       11.528      203.506      188.357      132.897        0.216        0.026       61.532        8.068        0.017      340.477       14.525      863.445
08/11/2013  04:26:00      -14.618      -16.128        0.115       27.371       10.034       10.598      749.150      100.689      112.318        0.072        0.048       21.767        9.601        0.195      340.428       14.443      863.438
08/11/2013  04:27:00       -5.159      -20.985       -4.893       24.845       17.551       10.641      617.255      308.050      113.224        0.076        0.052       21.610        4.536        0.044      340.245       14.133      863.445
08/11/2013  04:28:00       -2.861      -17.626       -3.616        9.937       15.167        9.577       98.736      230.036       91.725        0.038        0.021       17.857        8.716        0.238      340.199       14.055      863.459
08/11/2013  04:29:00       -6.743       -9.726       -7.636       10.962       15.896        8.620      120.169      252.689       74.304        0.032        0.022       11.835        8.474        0.513      340.476       14.524      863.468
08/11/2013  04:30:00       -0.179      -28.392       -1.811       13.876       11.580       10.042      192.542      134.088      100.834        0.062        0.021       28.393        5.453        0.037      340.589       14.714      863.472
08/11/2013  04:31:00      -55.238      -35.587       -9.349       27.574        9.037       13.056      760.352       81.664      170.447        0.271        0.051       65.709       12.511        0.036      340.710       14.917      863.466
08/11/2013  04:32:00      -88.629      -29.057      -11.437       14.480       16.257       10.368      209.657      264.289      107.495        0.471        0.029       93.271        9.649        0.011      340.857       15.166      863.465
08/11/2013  04:33:00      -86.923        7.842      -10.444       20.512       11.755        8.926      420.723      138.170       79.668        0.418        0.032       87.276        8.531        0.010      340.874       15.194      863.463
08/11/2013  04:34:00      -33.200      -32.781        2.156       19.194       11.117       13.624      368.397      123.595      185.612        0.143        0.034       46.657       10.791        0.053      340.739       14.968      863.462
08/11/2013  04:35:00      -58.332      -67.289       -3.953       29.926       17.793       18.423      895.551      316.578      339.392        0.475        0.078       89.053       16.879        0.036      340.728       14.951      863.455
08/11/2013  04:36:00      -53.572      -73.914        0.671       34.042       30.797       21.440     1158.884      948.474      459.680        0.545        0.128       91.287       19.803        0.047      340.757       14.998      863.455
08/11/2013  04:37:00      -64.916      -59.019       11.597       38.161       39.623       21.584     1456.235     1569.948      465.869        0.566        0.175       87.734       23.493        0.072      340.712       14.922      863.456
08/11/2013  04:38:00     -103.433      -49.950        4.920       36.577       31.781       20.939     1337.899     1010.004      438.437        0.800        0.139      114.862       19.640        0.029      340.713       14.923      863.458
08/11/2013  04:39:00      -85.595      -52.177        0.890       40.882       30.733       26.649     1671.327      944.502      710.181        0.669        0.166      100.245       25.178        0.063      340.675       14.860      863.454
08/11/2013  04:40:00      -79.051      -50.038       -6.698       31.131       28.282       18.349      969.122      799.860      336.694        0.545        0.105       93.557       15.348        0.027      340.709       14.916      863.452
08/11/2013  04:41:00      -44.202     -114.625        3.549       38.459       45.056       25.279     1479.093     2030.029      639.040        0.963        0.207      122.852       20.846        0.029      340.684       14.875      863.443
08/11/2013  04:42:00     -105.078      -84.149        2.628       55.019       51.108       31.469     3027.089     2612.019      990.289        1.238        0.331      134.620       30.039        0.050      340.680       14.866      863.440
08/11/2013  04:43:00      -88.306     -136.051       -3.833       66.116       60.257       31.381     4371.349     3630.917      984.776        1.765        0.449      162.197       37.266        0.053      340.674       14.856      863.450
08/11/2013  04:44:00      -73.946      -79.338        3.391       52.146       50.111       30.004     2719.232     2511.073      900.234        0.895        0.307      108.455       20.940        0.037      340.690       14.884      863.452
08/11/2013  04:45:00      -36.003     -121.415        1.031       66.890       49.884       31.880     4474.299     2488.401     1016.343        1.201        0.399      126.640       25.976        0.042      340.668       14.850      863.448
08/11/2013  04:46:00      -50.528      -75.515        8.764       46.703       48.738       33.630     2181.192     2375.433     1130.949        0.701        0.284       90.861       28.585        0.099      340.626       14.778      863.456
08/11/2013  04:47:00      -84.104      -80.410        3.032       49.337       48.414       25.455     2434.167     2343.948      647.950        0.949        0.271      116.359        5.078        0.002      340.546       14.642      863.453
08/11/2013  04:48:00      -71.702      -82.989       -7.424       43.927       37.416       25.690     1929.617     1399.962      659.976        0.804        0.199      109.674       17.425        0.025      340.496       14.558      863.448
08/11/2013  04:49:00      -57.622      -71.953        1.145       38.072       38.044       20.836     1449.444     1447.333      434.155        0.591        0.167       92.182       20.620        0.050      340.445       14.470      863.441
08/11/2013  04:50:00      -54.030      -38.084        5.112       45.906       39.073       24.536     2107.341     1526.729      602.027        0.432        0.212       66.104       18.069        0.075      340.403       14.398      863.441
08/11/2013  04:51:00     -116.754      -49.576        1.121       44.343       39.515       23.469     1966.334     1561.455      550.777        1.008        0.204      126.844       20.992        0.027      340.367       14.339      863.440
08/11/2013  04:52:00     -121.198      -29.534        0.468       52.296       28.530       24.795     2734.919      813.936      614.770        0.986        0.208      124.745       28.229        0.051      340.324       14.265      863.439
08/11/2013  04:53:00      -83.087      -10.851        3.909       47.650       28.919       18.324     2270.567      836.303      335.779        0.524        0.172       83.793       20.709        0.061      340.344       14.299      863.432
08/11/2013  04:54:00      -29.680      -29.286        5.349       22.409       19.922       16.263      502.180      396.898      264.491        0.147        0.058       41.696       13.167        0.100      340.322       14.262      863.419
08/11/2013  04:55:00      -32.133      -33.537       -3.096       30.185       15.558       15.334      911.136      242.040      235.131        0.178        0.069       46.447       18.009        0.150      340.429       14.445      863.407
08/11/2013  04:56:00      -25.295      -57.509      -11.278       22.547       21.546       14.237      508.363      464.241      202.700        0.262        0.059       62.826       11.662        0.034      340.507       14.576      863.412
08/11/2013  04:57:00      -94.897      -20.428       -6.427       44.504       18.809       15.454     1980.562      353.766      238.827        0.602        0.129       97.071       20.377        0.044      340.499       14.562      863.425
08/11/2013  04:58:00     -105.584        1.766       -3.602       54.005       23.754       23.054     2916.552      564.266      531.506        0.759        0.201      105.599       26.390        0.062      340.275       14.181      863.437
08/11/2013  04:59:00     -110.693       -2.111       -5.891       44.041       31.643       22.175     1939.644     1001.279      491.747        0.786        0.172      110.713       23.047        0.043      340.171       14.005      863.447
08/11/2013  05:00:00     -100.297      -48.061       -3.709       38.030       39.253       23.150     1446.280     1540.813      535.903        0.795        0.176      111.218       15.481        0.019      340.126       13.931      863.463
08/11/2013  05:01:00      -94.494      -56.290       -3.351       24.181       20.816       15.417      584.738      433.325      237.682        0.668        0.063      109.989        7.573        0.005      340.215       14.082      863.472
08/11/2013  05:02:00      -67.719      -48.150      -14.185       21.809       13.892        9.899      475.611      192.982       97.983        0.394        0.038       83.092        8.703        0.011      340.274       14.181      863.473
08/11/2013  05:03:00      -14.814      -29.114        9.916       22.794       34.136       16.346      519.569     1165.258      267.176        0.156        0.098       32.666        8.744        0.072      340.283       14.196      863.467
08/11/2013  05:04:00      -63.581      -30.649       -1.048       27.334       28.334       14.818      747.149      802.803      219.565        0.338        0.088       70.583       10.307        0.021      340.287       14.203      863.463
08/11/2013  05:05:00      -31.195      -47.132        7.033       48.159       29.489       20.150     2319.326      869.595      406.004        0.342        0.180       56.520       20.174        0.127      340.238       14.119      863.482
08/11/2013  05:06:00      -60.206      -52.538        2.319       29.873       20.245       15.945      892.388      409.865      254.241        0.397        0.078       79.906       11.739        0.022      340.185       14.030      863.495
08/11/2013  05:07:00      -38.492      -39.096       10.181       33.744       34.494       22.584     1138.650     1189.829      510.059        0.298        0.142       54.864       24.244        0.195      340.088       13.867      863.489
08/11/2013  05:08:00      -77.994      -53.682        4.884       47.932       34.486       26.740     2297.520     1189.256      715.012        0.659        0.210       94.683       27.332        0.083      340.090       13.872      863.486
08/11/2013  05:09:00     -107.994      -64.515       -8.441       32.299       29.818       19.048     1043.248      889.125      362.835        0.910        0.115      125.797       14.362        0.013      340.064       13.828      863.499
08/11/2013  05:10:00      -82.848      -66.921       -1.694       45.111       31.972       21.210     2035.010     1022.193      449.865        0.743        0.175      106.500       23.806        0.050      339.953       13.638      863.514
08/11/2013  05:11:00      -23.474      -93.593        3.418       14.441       20.531       11.069      208.543      421.516      122.517        0.504        0.038       96.492        5.567        0.003      339.988       13.700      863.518
08/11/2013  05:12:00      -10.807      -84.724        2.744       14.562       14.143       10.468      212.045      200.021      109.573        0.391        0.026       85.411        6.145        0.005      340.010       13.737      863.500
08/11/2013  05:13:00      -35.393      -78.877        4.371       31.434       35.607       20.912      988.107     1267.882      437.301        0.509        0.135       86.453       20.060        0.054      340.029       13.766      863.510
08/11/2013  05:14:00      -39.030      -46.907       11.185       45.815       27.734       20.478     2098.978      769.194      419.329        0.357        0.164       61.021       23.384        0.147      339.963       13.656      863.539
08/11/2013  05:15:00      -32.715      -69.644       -0.469       42.457       38.964       24.274     1802.583     1518.229      589.243        0.491        0.196       76.945       20.156        0.069      339.965       13.661      863.563
08/11/2013  05:16:00      -18.897      -31.921        8.016       26.045       21.414       16.202      678.341      458.580      262.507        0.142        0.070       37.095       11.732        0.100      339.898       13.548      863.570
08/11/2013  05:17:00      -31.615       -7.778       -0.069       19.301       14.602       11.708      372.520      213.232      137.072        0.089        0.036       32.558        9.026        0.077      339.826       13.425      863.577
08/11/2013  05:18:00      -23.983       -7.762        7.909       20.139       11.689       10.057      405.560      136.639      101.148        0.067        0.032       25.208       10.996        0.190      339.811       13.401      863.577
08/11/2013  05:19:00      -27.986      -23.303        4.379       37.399       17.322       13.030     1398.717      300.053      169.783        0.161        0.093       36.417       12.935        0.126      339.864       13.489      863.570
08/11/2013  05:20:00      -69.695      -28.499        1.873       37.317       21.714       22.760     1392.563      471.496      518.040        0.403        0.119       75.297       11.265        0.022      339.868       13.496      863.567
08/11/2013  05:21:00      -47.147      -52.919        3.654       55.055       41.480       30.532     3031.021     1720.597      932.219        0.536        0.284       70.875       29.088        0.168      339.731       13.265      863.580
08/11/2013  05:22:00      -96.607      -73.974       -1.927       65.636       50.198       34.803     4308.036     2519.822     1211.216        1.142        0.402      121.677       32.084        0.070      339.585       13.018      863.592
08/11/2013  05:23:00     -122.577     -115.391       -5.353       53.296       45.317       33.094     2840.458     2053.610     1095.205        1.718        0.299      168.345       28.173        0.028      339.591       13.027      863.591
08/11/2013  05:24:00     -108.126      -95.494      -16.512       28.781       34.568       15.416      828.340     1194.963      237.650        1.167        0.113      144.258       13.729        0.009      339.616       13.073      863.592
08/11/2013  05:25:00      -75.466      -65.948       -5.348       44.568       33.736       23.114     1986.332     1138.113      534.274        0.687        0.183      100.221       20.060        0.040      339.622       13.082      863.591
08/11/2013  05:26:00      -61.717      -24.288       10.116       41.445       25.009       18.603     1717.729      625.464      346.082        0.359        0.134       66.324       20.649        0.097      339.558       12.975      863.596
08/11/2013  05:27:00      -84.343      -54.297        0.910       51.107       40.852       21.757     2611.938     1668.912      473.363        0.741        0.238      100.309       25.039        0.062      339.594       13.033      863.615
08/11/2013  05:28:00      -94.995      -58.078       -1.976       50.731       45.814       28.446     2573.615     2098.922      809.196        0.894        0.274      111.342       26.435        0.056      339.571       12.995      863.620
08/11/2013  05:29:00      -50.374       -4.798       -0.095       43.844       28.448       18.921     1922.266      809.293      358.010        0.282        0.154       50.602       16.826        0.111      339.484       12.849      863.611
08/11/2013  05:30:00      -80.997       -3.736        0.890       21.030       19.381       14.153      442.273      375.638      200.312        0.380        0.051       81.083       11.997        0.022      339.598       13.043      863.606
08/11/2013  05:31:00      -62.130      -27.247       -1.278       21.776       30.081       17.132      474.182      904.857      293.514        0.314        0.084       67.842       12.856        0.036      339.606       13.055      863.614
08/11/2013  05:32:00     -101.872      -13.635       -4.201       46.286       24.107       22.457     2142.406      581.146      504.321        0.690        0.161      102.780       18.940        0.034      339.494       12.865      863.619
08/11/2013  05:33:00     -128.907      -77.462      -15.515       25.473       35.144       17.877      648.882     1235.077      319.590        1.253        0.110      150.390       14.155        0.009      339.420       12.741      863.622
08/11/2013  05:34:00      -90.181      -50.021      -12.752       39.284       24.407       15.028     1543.228      595.708      225.844        0.658        0.118      103.125       11.440        0.012      339.381       12.676      863.621
08/11/2013  05:35:00      -87.484      -50.786       -3.640       41.037       24.772       18.181     1684.042      613.668      330.535        0.644        0.131      101.157       17.411        0.030      339.367       12.652      863.618
08/11/2013  05:36:00      -74.691      -38.046       -1.905       34.469       28.840       17.279     1188.093      831.732      298.578        0.467        0.116       83.822       14.479        0.030      339.453       12.797      863.631
08/11/2013  05:37:00      -12.711      -31.054        5.919       34.527       23.618       19.817     1192.138      557.824      392.728        0.165        0.107       33.555       18.229        0.295      339.438       12.772      863.637
08/11/2013  05:38:00       -3.490      -58.415       -2.048       21.540       29.462       18.605      463.970      868.028      346.137        0.255        0.084       58.519       12.503        0.046      339.472       12.829      863.638
08/11/2013  05:39:00      -59.948      -69.477       -3.044       22.240       39.491       11.846      494.620     1559.517      140.329        0.531        0.110       91.765        9.669        0.011      339.382       12.677      863.635
08/11/2013  05:40:00      -75.494      -15.660       -5.917       32.004       21.969       16.142     1024.287      482.637      260.558        0.387        0.088       77.101       12.740        0.027      339.371       12.660      863.645
08/11/2013  05:41:00      -86.322      -28.485       -2.272       50.499       23.612       17.422     2550.181      557.514      303.512        0.584        0.171       90.900       22.741        0.063      339.364       12.647      863.658
08/11/2013  05:42:00      -22.122      -57.169        7.427       29.030       35.891       23.382      842.762     1288.129      546.740        0.324        0.134       61.300       19.538        0.102      339.377       12.669      863.666
08/11/2013  05:43:00      -17.668      -61.471        4.160       35.989       29.571       23.082     1295.237      874.449      532.780        0.340        0.135       63.960       19.925        0.097      339.426       12.752      863.678
08/11/2013  05:44:00      -17.668      -55.298      -10.844       34.445       31.407       17.015     1186.480      986.378      289.518        0.297        0.123       58.052       22.270        0.147      339.459       12.806      863.683
08/11/2013  05:45:00      -32.486      -51.094        4.063       49.579       38.203       25.110     2458.100     1459.483      630.520        0.411        0.227       60.547       15.796        0.068      339.434       12.765      863.692
08/11/2013  05:46:00      -92.322      -91.308       -9.297       33.555       23.167       17.285     1125.919      536.698      298.759        0.945        0.098      129.848       15.792        0.015      339.396       12.699      863.707
08/11/2013  05:47:00      -90.779      -63.598       -0.450       32.821       36.393       20.953     1077.220     1324.426      439.032        0.756        0.142      110.840       16.029        0.021      339.324       12.579      863.735
08/11/2013  05:48:00      -79.640      -54.250      -11.101       37.455       28.250       16.861     1402.893      798.086      284.293        0.595        0.124       96.362       14.940        0.024      339.303       12.544      863.748
08/11/2013  05:49:00      -49.538      -52.970       -1.879       30.655       16.462       17.075      939.736      271.004      291.553        0.338        0.075       72.525       14.231        0.039      339.378       12.670      863.749
08/11/2013  05:50:00      -60.227      -61.879       -2.808       24.282       25.592       17.296      589.625      654.958      299.163        0.450        0.077       86.350       10.271        0.014      339.362       12.644      863.750
08/11/2013  05:51:00      -45.970      -67.756        8.214       48.862       62.251       25.502     2387.543     3875.219      650.344        0.684        0.346       81.879       32.597        0.158      339.278       12.500      863.755
08/11/2013  05:52:00      -57.691      -80.988        6.842       39.578       56.842       29.832     1566.396     3231.038      889.926        0.781        0.284       99.434       25.602        0.066      339.205       12.379      863.762
08/11/2013  05:53:00      -71.816      -56.941       -1.312       37.913       37.607       20.933     1437.363     1414.286      438.182        0.585        0.164       91.650       19.466        0.045      339.234       12.429      863.766
08/11/2013  05:54:00      -72.440      -66.704        4.444       36.654       28.600       23.683     1343.500      817.942      560.883        0.622        0.136       98.474       20.658        0.044      339.230       12.420      863.771
08/11/2013  05:55:00      -57.170      -50.315        6.003       36.562       21.180       21.174     1336.763      448.605      448.334        0.403        0.112       76.158       19.511        0.066      339.183       12.342      863.780
08/11/2013  05:56:00      -36.123      -44.476       11.099       33.939       21.508       19.783     1151.871      462.581      391.376        0.271        0.100       57.297       19.881        0.120      339.234       12.427      863.775
08/11/2013  05:57:00      -29.314      -29.865       10.982       47.913       26.173       25.700     2295.699      685.026      660.471        0.276        0.182       41.848       27.146        0.421      339.195       12.361      863.770
08/11/2013  05:58:00      -73.650      -67.249        6.124       43.415       33.049       25.539     1884.833     1092.232      652.228        0.681        0.181       99.733       22.851        0.052      339.198       12.367      863.779
08/11/2013  05:59:00      -60.099      -35.171        7.168       47.506       34.078       24.310     2256.797     1161.323      590.986        0.445        0.200       69.634       23.716        0.116      339.184       12.343      863.789
08/11/2013  06:00:00     -120.710      -53.545       -1.453       35.924       32.192       21.675     1290.564     1036.334      469.800        1.012        0.140      132.053       19.931        0.023      339.086       12.179      863.796
08/11/2013  06:01:00     -112.530      -40.863       -2.570       22.671       20.815       16.609      513.988      433.260      275.861        0.778        0.061      119.720       13.076        0.012      339.058       12.130      863.798
08/11/2013  06:02:00     -105.853      -21.497      -11.552       26.155       14.952       12.176      684.094      223.576      148.245        0.643        0.053      108.014        8.781        0.007      339.116       12.227      863.817
08/11/2013  06:03:00      -85.705      -50.813      -15.834       20.155       23.198       10.696      406.242      538.126      114.411        0.562        0.053       99.636        9.284        0.009      339.211       12.391      863.825
08/11/2013  06:04:00      -90.451      -24.936       -7.764       22.811       21.805       11.740      520.361      475.462      137.839        0.500        0.057       93.826        5.267        0.003      339.122       12.238      863.820
08/11/2013  06:05:00     -136.226       -9.828      -11.121       24.467       20.475       16.113      598.624      419.229      259.640        1.003        0.064      136.580       13.146        0.009      338.996       12.028      863.830
08/11/2013  06:06:00     -105.226      -15.524       -1.941       43.340       28.173       23.702     1878.359      793.743      561.787        0.728        0.162      106.365       24.579        0.053      338.909       11.880      863.834
08/11/2013  06:07:00     -122.951      -25.189       -1.780       35.735       33.538       24.533     1276.988     1124.802      601.870        0.938        0.150      125.505       22.397        0.032      338.944       11.939      863.824
08/11/2013  06:08:00      -93.962      -59.151       -0.581       50.469       24.241       23.012     2547.103      587.625      529.552        0.800        0.183      111.030       10.733        0.009      339.046       12.110      863.834
08/11/2013  06:09:00      -87.974       19.810       -8.593       33.140       27.405       17.687     1098.230      751.046      312.813        0.518        0.108       90.176        3.400        0.001      338.951       11.952      863.838
08/11/2013  06:10:00     -123.901       41.304      -10.499       32.635       20.419       16.846     1065.041      416.945      283.804        0.947        0.088      130.605       11.781        0.008      339.127       12.247      863.840
08/11/2013  06:11:00      -92.058      -11.094       -7.075       21.946       18.881       11.647      481.624      356.483      135.659        0.481        0.049       92.724        6.979        0.006      339.150       12.287      863.854
08/11/2013  06:12:00      -31.237      -27.475       -4.983       42.265       21.396       20.112     1786.293      457.805      404.486        0.220        0.132       41.601       16.006        0.148      339.112       12.223      863.861
08/11/2013  06:13:00      -72.305       -8.764       -8.101       27.658       25.506       15.230      764.952      650.545      231.958        0.351        0.082       72.834       13.587        0.035      338.996       12.027      863.859
08/11/2013  06:14:00      -60.985       -5.899       -8.548       19.889       15.258       12.222      395.579      232.816      149.385        0.230        0.039       61.270       12.422        0.041      338.996       12.025      863.864
08/11/2013  06:15:00      -87.883       31.216      -13.909       13.632       14.211        9.549      185.818      201.954       91.179        0.469        0.024       93.262        4.991        0.003      338.951       11.951      863.874
08/11/2013  06:16:00     -101.052       19.392       -9.802       17.109       14.629       11.081      292.716      214.004      122.783        0.566        0.031      102.896        3.985        0.001      339.104       12.209      863.871
08/11/2013  06:17:00      -66.494        9.085      -10.104       23.980       18.523       13.729      575.053      343.107      188.495        0.286        0.055       67.112        7.495        0.012      339.126       12.246      863.870
08/11/2013  06:18:00      -57.965      -11.800       -4.632       20.613       13.145       14.344      424.916      172.791      205.746        0.216        0.040       59.154       12.433        0.044      339.147       12.280      863.870
08/11/2013  06:19:00      -62.598      -14.137       -4.337       21.544       15.572       12.205      464.162      242.487      148.968        0.250        0.043       64.174       12.323        0.037      339.143       12.273      863.874
08/11/2013  06:20:00      -95.640      -14.571      -12.278       20.661       23.893       12.472      426.874      570.890      155.551        0.533        0.058       96.743       10.464        0.012      339.129       12.250      863.862
08/11/2013  06:21:00     -107.941      -52.739      -12.785        9.351       10.659       10.130       87.435      113.613      102.616        0.745        0.015      120.136        4.245        0.001      339.087       12.179      863.858
08/11/2013  06:22:00     -120.020      -43.779      -12.920       14.475       14.414       14.380      209.531      207.759      206.782        0.856        0.031      127.755        7.442        0.003      339.121       12.237      863.871
08/11/2013  06:23:00     -110.867      -44.963       -9.701       14.029       14.646       11.420      196.805      214.512      130.406        0.747        0.027      119.638        8.330        0.005      339.213       12.392      863.883
08/11/2013  06:24:00     -111.409      -56.085      -11.152       21.546       18.319       15.624      464.251      335.583      244.102        0.836        0.052      124.730       10.799        0.007      339.118       12.231      863.882
08/11/2013  06:25:00     -105.008      -64.092       -7.510       18.143       15.594       13.264      329.156      243.165      175.934        0.797        0.037      123.022        8.281        0.005      339.116       12.231      863.880
08/11/2013  06:26:00     -106.806      -54.759       -1.381       29.394       22.939       17.162      864.019      526.209      294.547        0.805        0.084      120.026       16.671        0.019      339.067       12.144      863.885
08/11/2013  06:27:00      -72.586      -55.404       -1.000       38.146       23.791       23.351     1455.143      566.012      545.249        0.545        0.128       91.315       21.023        0.053      339.114       12.226      863.884
08/11/2013  06:28:00     -100.123      -55.515       -1.364       29.937       30.639       20.226      896.202      938.775      409.093        0.768        0.112      114.484       12.012        0.011      339.115       12.227      863.881
08/11/2013  06:29:00      -95.654      -60.177       -8.625       40.179       25.284       18.425     1614.323      639.294      339.473        0.772        0.130      113.008       22.050        0.038      339.024       12.074      863.876
08/11/2013  06:30:00     -113.401      -55.453      -11.730       34.543       29.298       25.081     1193.219      858.377      629.072        0.938        0.134      126.233       20.814        0.027      339.056       12.128      863.871
08/11/2013  06:31:00     -117.846      -49.690       -5.762       23.812       33.375       15.043      567.007     1113.873      226.285        0.915        0.095      127.893       10.442        0.007      339.045       12.110      863.875
08/11/2013  06:32:00      -92.577      -25.907        1.870       44.884       27.314       17.764     2014.576      746.036      315.545        0.616        0.154       96.134       19.459        0.041      339.011       12.052      863.872
08/11/2013  06:33:00     -117.361       -3.213        2.580       51.430       36.179       23.535     2645.084     1308.953      553.894        0.915        0.225      117.405       26.018        0.049      338.969       11.982      863.878
08/11/2013  06:34:00     -124.074      -43.449       -3.970       32.408       29.818       18.703     1050.303      889.129      349.787        0.979        0.114      131.462       15.153        0.013      339.024       12.075      863.882
08/11/2013  06:35:00     -136.967      -41.806       -6.158       32.367       25.456       22.784     1047.614      648.010      519.093        1.138        0.111      143.205       21.753        0.023      339.116       12.229      863.883
08/11/2013  06:36:00      -87.706      -39.394        4.362       38.881       27.745       15.142     1511.714      769.769      229.279        0.589        0.126       96.147       13.573        0.020      339.131       12.254      863.890
08/11/2013  06:37:00     -125.362      -57.372      -13.042       26.909       27.771       19.587      724.105      771.227      383.653        1.053        0.094      137.866       18.612        0.018      339.221       12.404      863.894
08/11/2013  06:38:00     -118.918      -58.546       -1.725       37.415       28.974       18.727     1399.913      839.484      350.684        1.008        0.130      132.548       11.211        0.007      339.223       12.408      863.896
08/11/2013  06:39:00     -127.307      -59.164       -2.104       49.057       32.198       20.178     2406.547     1036.680      407.166        1.178        0.193      140.383       16.960        0.015      339.202       12.374      863.893
08/11/2013  06:40:00     -105.716      -67.718        7.969       42.628       40.616       23.593     1817.172     1649.650      556.627        0.992        0.201      125.546       21.304        0.029      339.253       12.460      863.891
08/11/2013  06:41:00      -95.488      -60.074       -3.220       40.694       40.246       27.122     1656.037     1619.702      735.617        0.837        0.201      112.813       20.541        0.033      339.322       12.575      863.886
08/11/2013  06:42:00     -110.237      -46.322      -10.438       47.889       37.425       25.666     2293.352     1400.623      658.720        0.938        0.218      119.573       19.649        0.027      339.352       12.625      863.891
08/11/2013  06:43:00     -100.225      -91.115       -6.321       43.119       36.646       26.718     1859.246     1342.910      713.843        1.115        0.196      135.451       25.199        0.035      339.336       12.599      863.892
08/11/2013  06:44:00      -88.767      -85.177       -0.800       52.731       44.537       33.411     2780.578     1983.588     1116.297        1.051        0.294      123.023       27.756        0.051      339.314       12.562      863.891
08/11/2013  06:45:00     -150.792      -74.645       -8.348       36.306       30.861       22.863     1318.138      952.421      522.703        1.559        0.140      168.256       19.129        0.013      339.343       12.611      863.899
08/11/2013  06:46:00     -106.795      -48.650       -1.058       34.264       36.723       16.261     1174.050     1348.584      264.434        0.828        0.139      117.354       12.336        0.011      339.415       12.732      863.906
08/11/2013  06:47:00      -99.023      -61.452       -2.337       38.683       33.610       24.871     1496.336     1129.614      618.569        0.842        0.162      116.542       23.987        0.042      339.401       12.708      863.919
08/11/2013  06:48:00     -110.928      -68.123       -2.113       33.681       31.659       23.744     1134.392     1002.316      563.787        0.982        0.135      130.176       17.946        0.019      339.419       12.738      863.937
08/11/2013  06:49:00     -102.347      -60.040       -6.494       39.955       32.747       21.696     1596.436     1072.357      470.711        0.863        0.157      118.658       22.757        0.037      339.421       12.743      863.946
08/11/2013  06:50:00      -68.907      -43.423        6.878       68.241       42.179       34.236     4656.788     1779.051     1172.121        0.714        0.380       81.448       41.875        0.264      339.465       12.816      863.943
08/11/2013  06:51:00     -109.335      -69.631      -19.574       30.126       31.654       19.633      907.573     1001.992      385.467        0.974        0.115      129.625       10.821        0.007      339.485       12.850      863.954
08/11/2013  06:52:00     -127.859      -25.659      -11.140       38.323       50.636       23.181     1468.666     2564.043      537.379        1.085        0.229      130.408       19.333        0.022      339.460       12.809      863.960
08/11/2013  06:53:00      -77.341      -36.876        1.648       40.146       36.263       23.225     1611.670     1314.971      539.386        0.540        0.173       85.682       24.816        0.084      339.503       12.881      863.954
08/11/2013  06:54:00     -131.552      -42.030      -16.868       39.958       33.569       23.226     1596.671     1126.882      539.437        1.131        0.163      138.103       23.307        0.028      339.530       12.926      863.953
08/11/2013  06:55:00     -106.653      -53.457       -7.636       50.531       41.270       19.427     2553.390     1703.173      377.419        0.946        0.232      119.300       18.022        0.023      339.604       13.051      863.959
08/11/2013  06:56:00     -106.618      -72.183       -7.270       40.442       36.215       21.201     1635.557     1311.542      449.463        1.001        0.170      128.755       19.858        0.024      339.644       13.118      863.953
08/11/2013  06:57:00     -101.688     -107.294        1.563       49.053       46.718       29.518     2406.151     2182.596      871.323        1.366        0.273      147.825       24.794        0.028      339.602       13.046      863.955
08/11/2013  06:58:00     -109.490     -103.424       -5.206       50.760       57.424       26.726     2576.565     3297.473      714.279        1.465        0.329      150.614       26.055        0.030      339.589       13.027      863.962
08/11/2013  06:59:00     -141.956      -93.610       -6.158       53.085       50.978       35.624     2817.986     2598.804     1269.051        1.782        0.334      170.043       35.870        0.044      339.575       13.002      863.950
08/11/2013  07:00:00     -113.638      -78.404        1.612       53.632       55.861       32.513     2876.374     3120.487     1057.122        1.306        0.353      138.060       34.424        0.062      339.628       13.090      863.957
08/11/2013  07:01:00     -121.349      -91.062       -1.188       62.098       49.218       34.819     3856.108     2422.423     1212.338        1.525        0.375      151.717       29.775        0.039      339.625       13.087      863.957
08/11/2013  07:02:00     -119.358      -82.156        7.335       63.942       51.954       36.395     4088.592     2699.220     1324.576        1.458        0.406      144.900       35.983        0.062      339.719       13.245      863.943
08/11/2013  07:03:00     -136.141      -89.786        0.426       72.479       50.330       36.119     5253.167     2533.119     1304.596        1.784        0.455      163.083       28.746        0.031      339.824       13.421      863.944
08/11/2013  07:04:00     -161.455     -132.117      -14.527       63.028       61.732       36.614     3972.500     3810.782     1340.574        2.643        0.456      208.621       32.439        0.024      339.663       13.146      863.948
08/11/2013  07:05:00     -131.773     -114.875       -3.508       65.105       54.065       37.939     4238.690     2923.022     1439.336        1.959        0.430      174.816       37.817        0.047      339.737       13.274      863.935
08/11/2013  07:06:00     -126.856      -93.585       -3.905       67.561       44.026       32.247     4564.430     1938.310     1039.869        1.620        0.377      157.640       35.664        0.051      339.836       13.441      863.940
08/11/2013  07:07:00     -104.422      -67.893       -5.172       47.378       30.808       26.267     2244.720      949.155      689.945        0.971        0.194      124.552       29.119        0.055      339.860       13.483      863.951
08/11/2013  07:08:00      -99.993      -58.956       -2.232       50.055       39.922       24.318     2505.493     1593.772      591.352        0.908        0.235      116.079       27.752        0.057      339.956       13.645      863.941
08/11/2013  07:09:00     -131.453      -52.538       -9.498       36.767       34.503       19.208     1351.782     1190.447      368.965        1.152        0.146      141.563       16.271        0.013      339.930       13.601      863.951
08/11/2013  07:10:00      -92.762      -26.058       -0.407       31.473       32.250       16.957      990.550     1040.087      287.537        0.580        0.116       96.352       18.787        0.038      339.959       13.649      863.957
08/11/2013  07:11:00      -49.098      -30.614        8.350       48.515       32.487       19.473     2353.689     1055.423      379.201        0.360        0.189       57.861       25.061        0.188      340.132       13.941      863.941
08/11/2013  07:12:00      -60.019      -50.598       -7.567       35.576       26.035       21.616     1265.629      677.827      467.272        0.431        0.121       78.501       21.935        0.078      340.020       13.753      863.939
08/11/2013  07:13:00     -114.104      -36.358      -13.440       19.263       20.371       11.131      371.053      414.961      123.896        0.772        0.045      119.756       10.969        0.008      340.043       13.790      863.936
08/11/2013  07:14:00      -62.741      -20.567       -1.529       20.529       14.842       11.106      421.435      220.274      123.340        0.256        0.038       66.026        6.981        0.011      340.067       13.833      863.919
08/11/2013  07:15:00       -0.502      -11.605       11.619       14.600       17.959       20.725      213.146      322.519      429.515        0.062        0.048       11.616        6.847        0.347      340.406       14.404      863.921
08/11/2013  07:16:00      -18.043        0.423        9.859       19.791       19.270       17.114      391.674      371.332      292.885        0.074        0.053       18.048       13.145        0.530      340.273       14.179      863.921
08/11/2013  07:17:00      -39.205      -18.867        9.972       26.453       26.002       16.835      699.762      676.107      283.423        0.183        0.083       43.509       12.590        0.084      340.293       14.213      863.926
08/11/2013  07:18:00      -19.334      -72.606        1.682       30.076       19.798       12.775      904.577      391.976      163.190        0.355        0.073       75.136       12.415        0.027      340.015       13.744      863.936
08/11/2013  07:19:00      -37.726      -59.103        0.765       17.598       20.688       10.676      309.675      428.007      113.969        0.288        0.043       70.118       10.737        0.023      340.048       13.798      863.933
08/11/2013  07:20:00      -22.831      -35.936        0.127       28.521       18.732       17.444      813.425      350.883      304.280        0.164        0.073       42.575       17.805        0.175      340.188       14.036      863.933
08/11/2013  07:21:00      -46.861      -57.999        2.232       26.948       23.968       15.492      726.180      574.454      240.006        0.355        0.077       74.564       14.852        0.040      340.141       13.956      863.929
08/11/2013  07:22:00      -44.459      -58.325        7.866       33.487       31.107       19.336     1121.361      967.630      373.889        0.395        0.123       73.338       25.066        0.117      340.152       13.976      863.937
08/11/2013  07:23:00      -50.299      -64.236       -0.578       24.740       23.193       14.993      612.066      537.899      224.780        0.402        0.069       81.586       10.670        0.017      340.097       13.883      863.934
08/11/2013  07:24:00      -54.167      -47.491       -1.570       41.316       26.386       19.771     1707.020      696.201      390.892        0.399        0.140       72.039       19.579        0.074      340.117       13.916      863.925
08/11/2013  07:25:00      -71.666      -59.198       -7.192       43.514       36.344       15.945     1893.480     1320.853      254.241        0.608        0.173       92.954       16.686        0.032      340.132       13.943      863.916
08/11/2013  07:26:00      -77.477      -88.362       -2.347       55.464       36.493       25.959     3076.230     1331.760      673.879        0.945        0.254      117.518       28.117        0.057      340.055       13.811      863.908
08/11/2013  07:27:00      -74.976      -83.908       -2.606       48.596       36.837       22.489     2361.533     1356.968      505.752        0.845        0.211      112.525       24.840        0.049      340.052       13.806      863.914
08/11/2013  07:28:00     -103.702      -97.159       -1.476       28.576       26.110       19.090      816.577      681.716      364.409        1.103        0.093      142.105       17.593        0.015      340.090       13.871      863.920
08/11/2013  07:29:00      -90.676      -98.489       -8.196       29.487       25.257       21.495      869.493      637.898      462.047        0.998        0.098      133.874       17.468        0.017      340.134       13.946      863.927
08/11/2013  07:30:00      -92.513      -99.989      -12.956       27.800       24.771       19.571      772.857      613.624      383.030        1.025        0.088      136.222       15.890        0.014      340.125       13.930      863.930
08/11/2013  07:31:00      -47.997      -35.814       -1.794       30.051       22.265       14.641      903.076      495.722      214.362        0.260        0.081       59.886       14.088        0.055      340.162       13.993      863.938
08/11/2013  07:32:00      -43.316      -78.313       -0.756       14.301       19.729       13.059      204.526      389.247      170.550        0.439        0.038       89.495        9.814        0.012      340.179       14.022      863.943
08/11/2013  07:33:00      -32.456      -31.288        7.415       19.051       25.942       16.812      362.927      672.967      282.628        0.170        0.066       45.081       14.813        0.108      340.371       14.343      863.944
08/11/2013  07:34:00      -34.122      -72.156        5.493       21.762       25.333       12.366      473.581      641.780      152.913        0.383        0.063       79.818        9.651        0.015      340.257       14.153      863.943
08/11/2013  07:35:00      -47.823      -67.563        5.476       36.137       22.105       18.182     1305.893      488.617      330.580        0.450        0.106       82.776       20.373        0.061      340.342       14.297      863.942
08/11/2013  07:36:00      -39.704      -85.083        0.493       19.637       36.117       18.292      385.600     1304.438      334.602        0.542        0.101       93.891       17.916        0.036      340.291       14.210      863.949
08/11/2013  07:37:00      -53.269      -74.744        0.808       29.123       36.170       21.257      848.140     1308.293      451.855        0.552        0.130       91.784       20.490        0.050      340.305       14.233      863.938
08/11/2013  07:38:00      -46.007      -92.012       -2.838       22.070       29.491       16.337      487.097      869.728      266.894        0.611        0.081      102.873       13.070        0.016      340.307       14.236      863.937
08/11/2013  07:39:00      -82.834     -108.310       -1.006       21.122       44.494       20.814      446.152     1979.715      433.236        1.073        0.143      136.354       10.956        0.006      340.323       14.265      863.935
08/11/2013  07:40:00      -59.039      -69.272        1.159       43.588       43.958       27.693     1899.926     1932.278      766.914        0.644        0.230       91.018       30.454        0.112      340.416       14.422      863.939
08/11/2013  07:41:00      -47.082      -91.463       -0.058       40.667       38.147       27.085     1653.807     1455.162      733.603        0.721        0.192      102.870       26.888        0.068      340.400       14.395      863.946
08/11/2013  07:42:00      -34.077      -48.930        9.462       33.014       37.497       22.062     1089.940     1406.027      486.734        0.331        0.149       59.627       20.175        0.114      340.519       14.597      863.947
08/11/2013  07:43:00      -46.593      -45.615       -1.385       36.916       30.839       21.196     1362.779      951.069      449.280        0.351        0.138       65.205       21.569        0.109      340.579       14.696      863.948
08/11/2013  07:44:00      -54.115      -62.455        5.009       43.748       39.810       19.200     1913.892     1584.854      368.653        0.536        0.193       82.638       17.615        0.045      340.457       14.491      863.952
08/11/2013  07:45:00      -25.493      -24.152       -1.704       22.002       29.512       13.551      484.075      870.968      183.642        0.139        0.077       35.117        7.213        0.042      340.535       14.624      863.952
08/11/2013  07:46:00      -36.620      -57.478       -0.093       15.535       39.062       15.347      241.324     1525.831      235.535        0.332        0.100       68.153       12.826        0.035      340.554       14.654      863.957
08/11/2013  07:47:00      -29.826     -100.699       -9.699       21.323       23.934       13.899      454.681      572.842      193.189        0.617        0.061      105.023        4.345        0.002      340.507       14.576      863.954
08/11/2013  07:48:00      -37.837      -86.998       -5.730       16.519       31.706       16.315      272.893     1005.262      266.172        0.529        0.077       94.870        8.943        0.009      340.604       14.739      863.953
08/11/2013  07:49:00      -34.186      -74.784        1.903       19.799       25.563       14.697      392.017      653.451      216.011        0.401        0.063       82.227       11.375        0.019      340.609       14.748      863.953
08/11/2013  07:50:00      -62.415      -67.580       -5.413       32.125       26.098       16.931     1032.027      681.127      286.668        0.525        0.100       91.993       17.180        0.035      340.610       14.748      863.946
08/11/2013  07:51:00      -68.775      -81.407        4.718       40.812       33.963       20.747     1665.605     1153.484      430.432        0.731        0.162      106.570       22.830        0.046      340.643       14.805      863.940
08/11/2013  07:52:00      -70.753     -101.361       -7.798       28.942       26.656       18.038      837.630      710.520      325.380        0.861        0.094      123.613       15.505        0.016      340.630       14.783      863.933
08/11/2013  07:53:00      -52.427     -114.192        4.886       16.584       28.758       17.370      275.015      827.034      301.721        0.861        0.070      125.652       12.088        0.009      340.642       14.803      863.931
08/11/2013  07:54:00      -32.354      -74.022       -2.946       41.167       29.629       21.697     1694.746      877.901      470.744        0.479        0.152       80.784       16.318        0.041      340.770       15.020      863.924
08/11/2013  07:55:00      -53.879      -63.352       -0.507       26.157       25.595       20.292      684.213      655.122      411.756        0.433        0.088       83.165       16.274        0.038      340.824       15.111      863.921
08/11/2013  07:56:00      -85.616     -103.294       -6.140       14.387       18.119       12.948      206.997      328.290      167.643        0.937        0.035      134.163        7.399        0.003      340.801       15.073      863.923
08/11/2013  07:57:00      -58.259     -113.916        1.735       31.390       38.941       19.641      985.359     1516.431      385.763        0.963        0.144      127.949       20.943        0.027      340.808       15.085      863.923
08/11/2013  07:58:00      -40.037      -57.053        1.695       51.509       40.220       31.588     2653.168     1617.666      997.792        0.506        0.263       69.699       30.945        0.197      341.073       15.533      863.923
08/11/2013  07:59:00      -59.630      -66.123       -3.085       44.627       42.312       26.614     1991.603     1790.311      708.280        0.621        0.225       89.039       25.948        0.085      340.848       15.151      863.925
08/11/2013  08:00:00      -44.024      -78.361        2.886       29.804       41.431       19.223      888.256     1716.519      369.521        0.553        0.149       89.881       19.877        0.049      340.921       15.274      863.934
08/11/2013  08:01:00      -59.818     -106.152       -7.392       23.549       30.588       15.267      554.538      935.601      233.095        0.831        0.086      121.846        7.964        0.004      340.867       15.185      863.938
08/11/2013  08:02:00      -57.736     -101.784       -5.917       24.781       31.594       15.507      614.092      998.180      240.467        0.779        0.093      117.019       11.244        0.009      340.903       15.244      863.936
08/11/2013  08:03:00      -47.732      -90.332       -1.340       41.007       33.148       18.870     1681.612     1098.763      356.067        0.679        0.157      102.167       19.513        0.036      340.892       15.226      863.940
08/11/2013  08:04:00      -78.235     -114.153       -2.638       35.440       40.976       20.756     1255.990     1679.063      430.821        1.126        0.168      138.389       19.898        0.021      340.900       15.239      863.934
08/11/2013  08:05:00      -54.148      -62.791        5.893       42.678       47.911       25.018     1821.412     2295.418      625.885        0.583        0.237       82.914       27.478        0.110      341.039       15.475      863.931
08/11/2013  08:06:00      -42.399      -84.852        4.335       37.389       47.839       24.313     1397.944     2288.587      591.113        0.665        0.214       94.855       22.348        0.056      341.047       15.488      863.923
08/11/2013  08:07:00      -62.814      -93.067       -4.282       32.203       45.038       18.872     1037.065     2028.441      356.166        0.802        0.171      112.281       17.823        0.025      341.030       15.459      863.924
08/11/2013  08:08:00      -66.946      -66.796       -1.326       36.370       43.823       16.743     1322.772     1920.499      280.339        0.623        0.176       94.569        9.816        0.011      341.044       15.483      863.922
08/11/2013  08:09:00      -40.436      -50.439        0.498       38.488       34.183       17.230     1481.311     1168.446      296.883        0.356        0.147       64.647       12.301        0.036      341.123       15.619      863.916
08/11/2013  08:10:00      -40.776      -73.160        3.428       36.244       46.302       22.040     1313.616     2143.904      485.763        0.548        0.197       83.756       15.845        0.036      341.074       15.534      863.914
08/11/2013  08:11:00      -51.570     -112.103        3.975       47.036       33.766       24.764     2212.416     1140.167      613.262        0.960        0.198      123.396       23.313        0.036      341.048       15.491      863.913
08/11/2013  08:12:00      -49.504      -73.133        6.939       35.777       30.034       24.819     1280.020      902.069      615.964        0.532        0.140       88.312       21.593        0.060      341.110       15.595      863.902
08/11/2013  08:13:00      -34.855      -46.089       13.151       35.277       38.933       22.070     1244.460     1515.795      487.063        0.338        0.162       57.784       17.334        0.090      341.305       15.926      863.900
08/11/2013  08:14:00      -63.912      -63.727        2.900       35.336       33.240       17.207     1248.633     1104.885      296.082        0.540        0.132       90.255       15.980        0.031      341.150       15.663      863.901
08/11/2013  08:15:00      -54.645      -77.880       -0.546       22.838       24.956       16.241      521.580      622.804      263.769        0.523        0.070       95.138        9.265        0.009      341.147       15.661      863.900
08/11/2013  08:16:00      -85.162      -35.595       -3.805       26.424       17.446       13.380      698.215      304.351      179.012        0.486        0.059       92.302       11.284        0.015      341.211       15.768      863.903
08/11/2013  08:17:00      -43.288      -16.583        6.501       34.285       32.343       20.777     1175.481     1046.048      431.678        0.242        0.133       46.356       20.541        0.196      341.457       16.183      863.897
08/11/2013  08:18:00      -33.775      -34.840       10.348       41.193       31.855       21.444     1696.847     1014.716      459.861        0.282        0.159       48.525       21.480        0.196      341.538       16.319      863.898
08/11/2013  08:19:00      -42.717      -25.943        6.067       33.550       42.350       23.381     1125.580     1793.555      546.662        0.300        0.173       49.978       18.076        0.131      341.609       16.442      863.891
08/11/2013  08:20:00      -55.160      -81.978        4.240       32.589       52.289       24.276     1062.058     2734.114      589.324        0.708        0.219       98.808       24.655        0.062      341.267       15.862      863.886
08/11/2013  08:21:00      -61.872      -79.075       -0.760       44.754       34.711       25.789     2002.963     1204.855      665.055        0.698        0.194      100.404       23.664        0.056      341.336       15.977      863.878
08/11/2013  08:22:00      -26.695      -80.634        2.543       16.258       22.757       13.432      264.309      517.893      180.407        0.409        0.048       84.938        6.160        0.005      341.338       15.981      863.877
08/11/2013  08:23:00      -63.506      -41.055        4.984       44.932       34.310       21.292     2018.919     1177.210      453.344        0.470        0.182       75.621       26.472        0.123      341.466       16.198      863.865
08/11/2013  08:24:00      -61.379      -63.800       -1.626       35.904       34.493       18.430     1289.115     1189.766      339.668        0.533        0.141       88.531       14.976        0.029      341.410       16.104      863.867
08/11/2013  08:25:00      -32.907     -103.256        6.490       21.264       32.528       18.393      452.148     1058.079      338.312        0.682        0.092      108.372        8.509        0.006      341.313       15.940      863.867
08/11/2013  08:26:00      -51.884     -128.242       -0.583       28.285       38.691       23.877      800.066     1496.974      570.092        1.100        0.143      138.340       23.513        0.029      341.414       16.110      863.855
08/11/2013  08:27:00      -24.115      -25.724       -3.597       19.499       32.773       20.414      380.198     1074.077      416.735        0.156        0.094       35.260       14.833        0.177      341.602       16.429      863.861
08/11/2013  08:28:00      -12.961       14.876       20.824       26.079       36.051       24.741      680.091     1299.675      612.111        0.171        0.130       19.730       10.812        0.300      342.028       17.153      863.859
08/11/2013  08:29:00       -3.465      -49.358       10.527       40.699       38.712       22.565     1656.448     1498.628      509.191        0.311        0.183       49.479       21.705        0.192      341.808       16.779      863.857
08/11/2013  08:30:00      -51.924      -50.899        3.770       45.303       34.694       25.416     2052.402     1203.681      645.997        0.460        0.195       72.710       29.636        0.166      341.754       16.688      863.859
08/11/2013  08:31:00      -60.272      -52.778       -0.439       38.189       35.858       20.268     1458.392     1285.774      410.803        0.479        0.158       80.114       20.059        0.063      341.468       16.201      863.862
08/11/2013  08:32:00     -103.333      -74.561       -8.175       30.787       44.676       16.817      947.820     1995.975      282.801        0.976        0.161      127.425        9.773        0.006      341.429       16.135      863.858
08/11/2013  08:33:00      -59.962      -40.472       -1.315       14.281       21.353       13.767      203.934      455.968      189.529        0.304        0.042       72.342        8.767        0.015      341.440       16.154      863.850
08/11/2013  08:34:00      -38.675       -2.823       -1.870       17.329       29.722       13.869      300.304      883.396      192.357        0.144        0.069       38.778       12.428        0.103      341.601       16.427      863.842
08/11/2013  08:35:00      -45.281     -111.906        3.844       22.585       36.501       17.854      510.062     1332.328      318.775        0.837        0.108      120.720       10.600        0.008      341.434       16.145      863.847
08/11/2013  08:36:00     -104.047     -110.459       -8.680       33.380       23.350       16.219     1114.212      545.210      263.052        1.251        0.096      151.746       14.161        0.009      341.437       16.149      863.851
08/11/2013  08:37:00      -30.754      -18.715        9.443       32.930       23.996       21.557     1084.389      575.822      464.707        0.175        0.106       36.000       19.093        0.281      342.059       17.204      863.864
08/11/2013  08:38:00      -28.117      -21.056        4.986       24.072       20.197       17.201      579.484      407.934      295.858        0.127        0.064       35.127       16.682        0.226      342.065       17.214      863.862
08/11/2013  08:39:00      -15.110       31.656       41.018       20.232       26.434       23.340      409.323      698.748      544.743        0.228        0.083       35.077       12.352        0.124      342.479       17.919      863.862
08/11/2013  08:40:00      -13.494        5.528       32.953       26.027       26.777       21.707      677.405      717.027      471.183        0.158        0.093       14.582       16.467        1.275      342.062       17.209      863.867
08/11/2013  08:41:00      -32.686       12.711        7.554       19.332       21.742       23.697      373.707      472.734      561.545        0.135        0.070       35.071       13.666        0.152      341.974       17.060      863.865
08/11/2013  08:42:00      -34.388       17.728       27.556       27.304       13.998       15.683      745.510      195.941      245.958        0.172        0.059       38.689       13.545        0.123      341.943       17.007      863.869
08/11/2013  08:43:00       -8.868       19.808       -2.985       25.465       17.669       26.267      648.448      312.182      689.978        0.106        0.083       21.703        8.974        0.171      342.043       17.177      863.860
08/11/2013  08:44:00       58.277      -14.252        4.693       27.938       36.393       26.089      780.507     1324.417      680.639        0.320        0.139       59.994       19.092        0.101      341.470       16.204      863.861
08/11/2013  08:45:00       57.004       14.097       40.164       43.716       36.726       32.225     1911.105     1348.778     1038.441        0.468        0.215       58.721       28.968        0.243      341.625       16.470      863.852
08/11/2013  08:46:00       32.708        6.119       30.933       42.376       35.698       26.615     1795.708     1274.316      708.346        0.292        0.189       33.275       24.006        0.520      342.144       17.350      863.845
08/11/2013  08:47:00       47.924       28.916       45.509       47.969       33.761       31.836     2301.038     1139.775     1013.501        0.483        0.223       55.972       24.420        0.190      341.784       16.738      863.836
08/11/2013  08:48:00       -4.449       39.603       64.049       21.293       38.393       24.443      453.398     1474.012      597.453        0.411        0.126       39.852       20.278        0.259      342.321       17.650      863.835
08/11/2013  08:49:00       12.041       42.853       57.698       38.848       33.508       25.311     1509.168     1122.753      640.633        0.429        0.164       44.512       18.445        0.172      342.283       17.584      863.838
08/11/2013  08:50:00       18.763       -0.780       31.668       29.149       43.915       29.681      849.659     1928.484      880.981        0.251        0.183       18.779       26.446        1.983      342.215       17.470      863.840
08/11/2013  08:51:00       21.242       -1.089       13.307       20.666       32.786       19.192      427.074     1074.930      368.319        0.125        0.094       21.270        6.599        0.096      342.022       17.141      863.842
08/11/2013  08:52:00        8.823      -40.759        4.221       25.578       38.635       31.563      654.231     1492.680      996.249        0.245        0.157       41.703       24.748        0.352      341.761       16.699      863.837
08/11/2013  08:53:00       16.168      -14.071        8.845       36.188       41.022       40.718     1309.556     1682.808     1657.993        0.259        0.233       21.433       19.117        0.796      342.048       17.185      863.830
08/11/2013  08:54:00       -8.555        9.923       53.023       32.660       37.780       27.728     1066.663     1427.358      768.815        0.312        0.163       13.102       22.015        2.823      342.824       18.503      863.824
08/11/2013  08:55:00        7.950       33.966       56.551       31.306       33.074       30.057      980.085     1093.918      903.396        0.370        0.149       34.884       27.648        0.628      342.647       18.203      863.817
08/11/2013  08:56:00       15.006       11.056       34.835       45.624       32.002       32.129     2081.544     1024.127     1032.287        0.285        0.207       18.639       24.154        1.679      342.360       17.716      863.806
08/11/2013  08:57:00        7.788      -32.282       25.587       29.415       45.178       38.201      865.262     2041.078     1459.302        0.306        0.218       33.208       32.132        0.936      342.484       17.928      863.805
08/11/2013  08:58:00       54.541       12.040       31.214       66.282       49.171       45.220     4393.336     2417.758     2044.888        0.647        0.443       55.854       46.785        0.702      342.597       18.118      863.792
08/11/2013  08:59:00       83.723      -11.314       24.804       48.564       47.032       42.339     2358.490     2211.991     1792.587        0.706        0.318       84.484       39.529        0.219      342.146       17.350      863.778
08/11/2013  09:00:00       42.264        3.435       35.701       55.748       38.294       35.024     3107.803     1466.410     1226.672        0.444        0.290       42.403       35.121        0.686      342.539       18.019      863.781
08/11/2013  09:01:00       10.833       -3.473       43.303       27.941       52.214       28.474      780.704     2726.291      810.780        0.316        0.216       11.376       24.683        4.708      342.675       18.252      863.770
08/11/2013  09:02:00       12.019       18.785       50.459       42.391       40.413       27.797     1797.032     1633.200      772.667        0.362        0.210       22.301       28.814        1.669      342.797       18.457      863.769
08/11/2013  09:03:00        5.722        1.976       29.122       35.949       41.177       33.670     1292.328     1695.575     1133.666        0.250        0.206        6.053       30.925       26.103      342.797       18.460      863.769
08/11/2013  09:04:00       -9.944       13.962       32.811       29.020       23.290       22.746      842.138      542.402      517.382        0.164        0.095       17.141       12.313        0.516      342.953       18.723      863.768
08/11/2013  09:05:00        6.588       -9.807       36.172       23.853       28.380       19.669      568.945      805.443      386.878        0.160        0.088       11.814       10.067        0.726      343.012       18.825      863.759
08/11/2013  09:06:00        0.861       12.883       43.316       32.377       33.772       23.692     1048.268     1140.540      561.299        0.240        0.138       12.912       18.568        2.068      343.635       19.887      863.754
08/11/2013  09:07:00       27.709       -0.057       49.298       38.418       62.981       41.699     1475.939     3966.553     1738.776        0.519        0.359       27.709       39.076        1.989      342.896       18.626      863.750
08/11/2013  09:08:00       -9.516      -34.170        7.119       39.751       58.000       33.407     1580.170     3363.947     1116.050        0.368        0.303       35.470       30.998        0.764      342.730       18.343      863.738
08/11/2013  09:09:00      -48.820      -57.014       20.625       51.326       61.291       24.725     2634.375     3756.565      611.339        0.653        0.350       75.060       29.412        0.154      342.968       18.748      863.734
08/11/2013  09:10:00      -35.772      -22.903       11.811       32.215       31.526       20.278     1037.817      993.892      411.200        0.219        0.122       42.475       13.450        0.100      342.957       18.729      863.723
08/11/2013  09:11:00      -26.199      -30.942        2.342       26.082       28.544       20.072      680.263      814.778      402.878        0.177        0.095       40.544       22.432        0.306      342.927       18.680      863.719
08/11/2013  09:12:00      -44.591       -6.503       12.629       31.647       28.978       20.645     1001.514      839.745      426.209        0.223        0.113       45.063       17.846        0.157      342.941       18.702      863.703
08/11/2013  09:13:00      -30.851       15.587       20.438       36.653       23.710       18.254     1343.472      562.163      333.194        0.193        0.112       34.565       17.551        0.258      343.195       19.137      863.688
08/11/2013  09:14:00      -18.989       17.653        8.832       16.077       22.775       23.157      258.458      518.688      536.263        0.103        0.066       25.927       10.292        0.158      343.440       19.554      863.680
08/11/2013  09:15:00      -42.682       -5.340        9.052       27.305       42.123       23.055      745.545     1774.340      531.520        0.249        0.153       43.015       16.699        0.151      343.146       19.052      863.674
08/11/2013  09:16:00      -44.368      -28.386        4.553       33.087       25.938       21.213     1094.745      672.766      450.009        0.251        0.111       52.671       19.870        0.142      343.005       18.813      863.670
08/11/2013  09:17:00      -83.717      -54.532        2.694       42.529       30.633       23.007     1808.725      938.358      529.342        0.663        0.164       99.911       12.032        0.015      342.744       18.368      863.658
08/11/2013  09:18:00      -38.536      -31.225       14.838       43.942       40.407       22.612     1930.934     1632.733      511.300        0.338        0.204       49.599       22.840        0.212      343.134       19.033      863.651
08/11/2013  09:19:00      -45.048      -43.295       10.461       40.818       28.802       23.975     1666.142      829.531      574.782        0.354        0.154       62.480       20.469        0.107      343.021       18.839      863.638
08/11/2013  09:20:00      -85.786      -49.817       -1.213       50.450       43.139       27.027     2545.228     1861.006      730.480        0.749        0.257       99.202       27.103        0.075      342.921       18.670      863.634
08/11/2013  09:21:00      -96.855      -22.453       -3.851       42.861       25.554       23.996     1837.031      653.030      575.818        0.648        0.153       99.424       26.228        0.070      343.078       18.938      863.623
08/11/2013  09:22:00      -81.224      -16.247       -6.324       23.734       25.901       20.267      563.312      670.879      410.749        0.427        0.082       82.833       15.270        0.034      342.806       18.473      863.620
08/11/2013  09:23:00      -26.074      -11.518        6.457       14.391       22.256       16.917      207.100      495.330      286.172        0.092        0.049       28.505       15.873        0.310      343.222       19.181      863.607
08/11/2013  09:24:00      -61.875      -38.743        3.012       70.522       38.838       19.561     4973.360     1508.357      382.624        0.610        0.343       73.004       17.179        0.055      343.019       18.836      863.597
08/11/2013  09:25:00     -103.281       -0.249       -1.134       30.553       31.994       23.043      933.477     1023.645      530.985        0.658        0.124      103.282       19.437        0.035      342.840       18.531      863.576
08/11/2013  09:26:00      -45.940       -8.174       12.458       40.012       31.189       23.742     1600.934      972.768      563.667        0.273        0.157       46.662       16.069        0.119      343.299       19.313      863.571
08/11/2013  09:27:00      -51.589      -29.386        5.088       38.841       34.360       23.771     1508.653     1180.594      565.061        0.340        0.163       59.372       27.369        0.212      343.171       19.094      863.561
08/11/2013  09:28:00      -70.771      -43.303        3.246       51.987       32.875       24.384     2702.625     1080.749      594.600        0.564        0.219       82.968       14.939        0.032      343.035       18.864      863.552
08/11/2013  09:29:00      -36.075      -95.037        4.737       23.095       23.820       17.460      533.378      567.411      304.847        0.588        0.070      101.654       11.680        0.013      342.780       18.429      863.547
08/11/2013  09:30:00      -49.674      -57.935       -5.089       14.090       34.034       12.573      198.520     1158.296      158.082        0.368        0.076       76.315       11.990        0.025      342.755       18.386      863.536
08/11/2013  09:31:00       22.846       28.000       22.359       35.139       16.237       24.912     1234.784      263.645      620.629        0.196        0.106       36.138       19.419        0.289      343.139       19.041      863.532
08/11/2013  09:32:00       29.242       15.608        5.097       25.713       18.883       15.233      661.145      356.569      232.037        0.119        0.062       33.147        8.699        0.069      343.039       18.871      863.514
08/11/2013  09:33:00      -31.007      -25.598       -1.026       17.672       25.815       13.154      312.310      666.396      173.025        0.138        0.058       40.208        5.660        0.020      343.118       19.004      863.511
08/11/2013  09:34:00      -28.509      -77.897        0.054       30.523       36.950       26.753      931.641     1365.339      715.725        0.495        0.151       82.950       11.672        0.020      343.019       18.838      863.512
08/11/2013  09:35:00      -59.902      -63.135      -11.740       30.954       33.624       16.011      958.140     1130.547      256.338        0.503        0.117       87.030       16.927        0.038      342.924       18.674      863.512
08/11/2013  09:36:00      -58.818      -48.066        3.505       21.702       21.528       12.947      470.967      463.441      167.631        0.344        0.055       75.960        9.079        0.014      343.071       18.924      863.517
08/11/2013  09:37:00      -40.913      -34.184       -2.595       11.717       15.108       10.642      137.282      228.259      113.249        0.166        0.024       53.314        4.864        0.008      342.998       18.799      863.517
08/11/2013  09:38:00      -45.066      -33.325       -1.730       16.492       15.068       16.485      271.999      227.038      271.770        0.196        0.039       56.049        7.936        0.020      343.061       18.906      863.510
08/11/2013  09:39:00      -54.484       -2.259       -7.442       20.820       18.482       20.229      433.464      341.572      409.208        0.211        0.059       54.530       15.139        0.077      343.154       19.066      863.503
08/11/2013  09:40:00      -63.923       16.009       -6.820       15.804       16.748        9.842      249.762      280.507       96.873        0.251        0.031       65.897        4.573        0.005      343.080       18.940      863.501
08/11/2013  09:41:00      -51.676       -3.297       -6.970       17.610       20.649       12.945      310.111      426.387      167.562        0.182        0.045       51.781       10.914        0.044      343.281       19.282      863.496
08/11/2013  09:42:00      -10.212      -19.522       29.097       18.094       42.474       29.724      327.405     1804.075      883.517        0.217        0.151       22.032       26.354        1.431      343.519       19.687      863.490
08/11/2013  09:43:00       10.124       11.010       46.304       38.290       46.912       36.325     1466.148     2200.705     1319.487        0.368        0.249       14.957       32.783        4.804      343.796       20.162      863.480
08/11/2013  09:44:00       18.427       23.705       59.020       42.312       63.836       34.105     1790.307     4075.027     1163.178        0.571        0.351       30.025       37.487        1.559      343.785       20.143      863.478
08/11/2013  09:45:00       50.195        7.746       38.393       55.296       40.100       33.989     3057.610     1607.986     1155.245        0.494        0.291       50.789       33.340        0.431      343.663       19.935      863.477
08/11/2013  09:46:00        1.867        7.279       42.589       22.818       39.371       18.893      520.677     1550.059      356.956        0.215        0.121        7.514       21.077        7.868      343.848       20.249      863.479
08/11/2013  09:47:00      -29.725       -4.603        8.376       26.950       18.864       18.393      726.279      355.844      338.309        0.120        0.071       30.079       10.658        0.126      343.594       19.817      863.471
08/11/2013  09:48:00       -1.535       23.745       47.217       30.282       41.418       28.802      917.009     1715.417      829.580        0.313        0.173       23.794       27.906        1.375      343.974       20.464      863.464
08/11/2013  09:49:00       35.527       11.829       30.904       39.534       28.991       26.112     1562.957      840.452      681.812        0.272        0.154       37.444       16.370        0.191      343.668       19.942      863.457
08/11/2013  09:50:00        3.545      -27.794       30.674       30.659       31.049       25.121      939.967      964.052      631.048        0.213        0.127       28.019       14.656        0.274      344.223       20.890      863.451
08/11/2013  09:51:00       22.921       22.440       48.682       42.450       34.078       33.501     1801.964     1161.330     1122.333        0.374        0.204       32.077       23.995        0.560      344.015       20.534      863.447
08/11/2013  09:52:00       21.783        2.652       16.001       45.059       21.989       24.424     2030.305      483.510      596.516        0.192        0.156       21.944       19.450        0.786      343.773       20.122      863.442
08/11/2013  09:53:00        5.024        2.291       28.005       25.291       29.749       24.771      639.635      885.011      613.592        0.148        0.107        5.522       12.247        4.919      343.931       20.392      863.437
08/11/2013  09:54:00       32.984      -15.211       27.106       32.232       35.238       33.571     1038.916     1241.742     1126.991        0.273        0.170       36.323       21.333        0.345      343.467       19.600      863.436
08/11/2013  09:55:00       30.302      -46.517       12.045       39.934       55.504       40.855     1594.716     3080.691     1669.094        0.478        0.317       55.516       29.516        0.283      343.176       19.105      863.438
08/11/2013  09:56:00       30.828        5.787       28.113       38.986       42.223       34.113     1519.897     1782.742     1163.704        0.312        0.223       31.366       25.941        0.684      343.856       20.262      863.445
08/11/2013  09:57:00       25.334       41.921       19.616       24.779       33.251       24.966      613.990     1105.645      623.315        0.256        0.117       48.982       20.151        0.169      343.877       20.299      863.445
08/11/2013  09:58:00       17.955        3.051       22.683       26.602       32.528       25.951      707.658     1058.099      673.438        0.164        0.122       18.213       16.890        0.860      344.096       20.675      863.445
08/11/2013  09:59:00       79.478       79.145       81.244       75.357       44.833       36.530     5678.704     2010.007     1334.442        1.410        0.451      112.164       16.591        0.022      343.847       20.246      863.442
08/11/2013  10:00:00      146.318      103.630       42.410       43.875       25.224       43.578     1925.002      636.231     1899.010        1.920        0.223      179.299       11.531        0.004      343.314       19.338      863.447
08/11/2013  10:01:00      111.103       85.452       32.613       44.431       41.545       35.448     1974.107     1725.966     1256.577        1.283        0.248      140.164       13.336        0.009      343.666       19.939      863.444
08/11/2013  10:02:00       69.350       60.004       -1.152       41.859       37.347       23.440     1752.157     1394.781      549.451        0.605        0.185       91.705       13.072        0.020      343.498       19.650      863.438
08/11/2013  10:03:00        5.050       81.850        5.136       38.076       56.543       35.559     1449.793     3197.056     1264.468        0.633        0.296       82.006       35.097        0.183      343.994       20.498      863.419
08/11/2013  10:04:00      -12.197       69.726        4.647       30.412       67.980       32.136      924.870     4621.241     1032.705        0.580        0.329       70.784       39.099        0.305      344.426       21.238      863.395
08/11/2013  10:05:00       25.676       40.029       49.610       33.820       32.156       27.986     1143.822     1034.007      783.216        0.384        0.148       47.556       15.778        0.110      344.413       21.216      863.389
08/11/2013  10:06:00      107.652       53.925       30.839       36.108       46.153       40.155     1303.808     2130.144     1612.394        1.025        0.252      120.403       25.189        0.044      343.667       19.941      863.379
08/11/2013  10:07:00        5.444       19.533       12.339       28.564       32.758       26.943      815.905     1073.094      725.913        0.159        0.131       20.277       25.026        1.523      344.419       21.226      863.358
08/11/2013  10:08:00       23.928        9.966       45.500       41.271       40.504       35.118     1703.334     1640.561     1233.307        0.366        0.229       25.921        9.826        0.144      344.571       21.485      863.344
08/11/2013  10:09:00       16.461        5.244       52.587       38.730       45.007       31.704     1500.037     2025.615     1005.174        0.380        0.227       17.276       33.813        3.831      344.515       21.388      863.336
08/11/2013  10:10:00       25.794      -30.397       28.531       58.902       53.890       50.746     3469.412     2904.111     2575.200        0.567        0.447       39.866       31.211        0.613      344.208       20.865      863.309
08/11/2013  10:11:00       85.518     -132.455      -30.974       58.068       64.236       45.591     3371.914     4126.225     2078.509        1.770        0.479      157.663       44.459        0.080      343.885       20.312      863.315
08/11/2013  10:12:00       25.193       21.714       47.856       52.677       50.003       48.471     2774.885     2500.313     2349.459        0.551        0.381       33.259       34.741        1.091      344.348       21.104      863.311
08/11/2013  10:13:00       13.156        9.825       48.268       36.633       44.403       30.909     1341.946     1971.591      955.362        0.343        0.213       16.420       20.531        1.563      344.402       21.196      863.306
08/11/2013  10:14:00       -0.819       14.699        2.817       23.517       45.385       26.228      553.055     2059.776      687.933        0.176        0.165       14.722       27.190        3.411      343.870       20.288      863.295
08/11/2013  10:15:00      -18.078      -38.897       -4.777       32.385       56.557       27.167     1048.757     3198.689      738.072        0.342        0.249       42.893       14.901        0.121      344.155       20.774      863.286
08/11/2013  10:16:00       27.027      -71.183        6.947       36.460       72.357       43.668     1329.320     5235.595     1906.892        0.716        0.424       76.141       38.485        0.255      344.350       21.106      863.290
08/11/2013  10:17:00       33.530        1.828       26.990       56.254       36.081       29.577     3164.533     1301.808      874.783        0.360        0.267       33.580       32.909        0.960      344.038       20.574      863.291
08/11/2013  10:18:00       25.030       10.956       38.803       48.065       40.210       26.008     2310.228     1616.876      676.400        0.343        0.230       27.322       28.844        1.114      344.100       20.680      863.288
08/11/2013  10:19:00        7.250       12.695       27.358       13.792       20.474       13.688      190.217      419.198      187.359        0.088        0.040       14.620        8.492        0.337      344.349       21.107      863.280
08/11/2013  10:20:00       15.816        5.851       17.583       19.948       17.423       17.636      397.922      303.558      311.045        0.080        0.051       16.863       10.695        0.402      344.326       21.066      863.276
08/11/2013  10:21:00      -26.420       51.733      -11.074       18.692       22.291       30.414      349.404      496.878      925.026        0.263        0.089       58.089       13.941        0.058      344.047       20.589      863.271
08/11/2013  10:22:00       -4.524       16.317       10.332       21.153       19.299       25.843      447.440      372.462      667.875        0.094        0.074       16.932       11.713        0.479      344.401       21.194      863.263
08/11/2013  10:23:00       51.545        7.614       14.451       29.554       20.785       21.887      873.416      432.008      479.022        0.235        0.089       52.104       20.683        0.158      344.331       21.076      863.259
08/11/2013  10:24:00       18.134       27.319       15.855       21.529       30.713       28.319      463.504      943.297      801.983        0.177        0.110       32.790       20.294        0.383      344.762       21.810      863.247
08/11/2013  10:25:00       11.054       29.304       47.004       35.737       30.689       22.368     1277.109      941.788      500.318        0.295        0.136       31.319       20.178        0.415      345.079       22.353      863.249
08/11/2013  10:26:00       28.341       49.436       -1.129       34.526       45.179       33.288     1192.042     2041.182     1108.061        0.379        0.217       56.984        9.210        0.026      344.580       21.500      863.242
08/11/2013  10:27:00       71.664      -64.355       17.138       70.313       68.441       41.330     4943.937     4684.192     1708.190        1.045        0.567       96.319       37.991        0.156      344.292       21.008      863.237
08/11/2013  10:28:00       43.386      -34.649       27.909       39.656       52.816       49.942     1572.590     2789.508     2494.176        0.536        0.343       55.524       37.570        0.458      344.526       21.407      863.232
08/11/2013  10:29:00       47.505      -13.407       56.311       71.531       99.508       51.933     5116.646     9901.916     2697.083        1.166        0.886       49.360       63.094        1.634      344.484       21.337      863.227
08/11/2013  10:30:00       83.374        2.886       46.686       62.494       80.158       65.524     3905.524     6425.372     4293.424        1.188        0.731       83.424       59.705        0.512      344.130       20.730      863.234
08/11/2013  10:31:00       58.740      -26.976       16.496       43.953       62.131       36.157     1931.848     3860.257     1307.327        0.577        0.355       64.638       27.912        0.186      344.234       20.908      863.226
08/11/2013  10:32:00       60.483       72.206       52.365       53.849       39.097       52.432     2899.728     1528.597     2749.066        0.939        0.359       94.191       21.789        0.054      344.410       21.211      863.232
08/11/2013  10:33:00       36.783      -18.749       31.334       35.382       45.287       46.217     1251.861     2050.904     2135.967        0.406        0.272       41.286       40.996        0.986      344.348       21.103      863.233
08/11/2013  10:34:00       63.455      -97.190      -16.606       28.658       24.970       23.419      821.286      623.507      548.451        0.787        0.100      116.071       14.237        0.015      343.540       19.722      863.233
08/11/2013  10:35:00       37.012      -28.444       32.158       29.805       41.882       20.871      888.351     1754.066      435.580        0.315        0.154       46.679       21.160        0.205      343.891       20.323      863.220
08/11/2013  10:36:00        5.811       21.574       44.852       24.928       33.788       26.818      621.430     1141.630      719.211        0.250        0.124       22.343       21.530        0.929      344.655       21.629      863.215
08/11/2013  10:37:00       26.051        3.845       34.653       43.885       65.450       38.270     1925.931     4283.674     1464.600        0.478        0.384       26.333       44.621        2.871      344.383       21.164      863.209
08/11/2013  10:38:00       55.294       57.826       39.063       55.614       39.832       29.532     3092.962     1586.608      872.129        0.674        0.278       80.009       19.806        0.061      344.324       21.063      863.200
08/11/2013  10:39:00      100.409       80.308       41.631       48.863       28.604       34.690     2387.622      818.207     1203.419        1.134        0.220      128.575       10.433        0.007      344.282       20.988      863.195
08/11/2013  10:40:00       37.242       26.870       24.571       31.522       33.299       25.628      993.620     1108.805      656.800        0.274        0.138       45.923       18.849        0.168      344.286       20.998      863.190
08/11/2013  10:41:00        8.834       10.969       36.058       19.525       26.994       14.858      381.216      728.685      220.770        0.141        0.067       14.084       10.304        0.535      344.936       22.109      863.173
08/11/2013  10:42:00       21.883      -33.640        6.073       16.363       34.025       24.447      267.742     1157.716      597.642        0.183        0.101       40.131       25.101        0.391      344.419       21.225      863.163
08/11/2013  10:43:00       17.282      -51.751       -1.655       23.059       27.829       23.678      531.723      774.434      560.647        0.242        0.093       54.560        9.026        0.027      343.746       20.076      863.151
08/11/2013  10:44:00       29.075        0.976       17.027       20.141       37.576       23.527      405.661     1411.942      553.513        0.175        0.119       29.092       13.632        0.220      344.457       21.289      863.143
08/11/2013  10:45:00       16.424      -10.309        5.125       22.678       22.831       20.390      514.283      521.252      415.742        0.093        0.073       19.391       13.310        0.471      344.333       21.077      863.136
08/11/2013  10:46:00       40.938      -32.424        5.844       45.818       47.926       45.073     2099.326     2296.907     2031.545        0.459        0.321       52.223       31.799        0.371      344.494       21.351      863.129
08/11/2013  10:47:00       12.276       -8.072       25.876       43.913       44.286       29.619     1928.316     1961.223      877.273        0.283        0.238       14.692       28.496        3.762      345.000       22.218      863.115
08/11/2013  10:48:00       31.456      -16.452       26.229       32.384       42.916       34.990     1048.721     1841.763     1224.298        0.303        0.206       35.498       22.273        0.394      344.896       22.041      863.102
08/11/2013  10:49:00        8.022      -34.867       30.459       34.090       69.275       45.235     1162.103     4799.079     2046.173        0.511        0.400       35.778       38.057        1.131      345.130       22.442      863.091
08/11/2013  10:50:00        1.858      -46.119       37.959       38.571       47.192       39.373     1487.721     2227.055     1550.269        0.442        0.263       46.157       20.607        0.199      345.079       22.353      863.084
08/11/2013  10:51:00       53.853      -23.557        4.866       46.471       40.660       38.584     2159.600     1653.229     1488.739        0.439        0.265       58.780       23.161        0.155      344.434       21.251      863.075
08/11/2013  10:52:00       73.648       62.176       35.707       50.075       21.078       32.060     2507.555      444.284     1027.849        0.727        0.199       96.384       22.460        0.054      344.441       21.262      863.054
08/11/2013  10:53:00       99.684       41.904       24.469       46.335       34.388       32.558     2146.960     1182.510     1060.034        0.834        0.219      108.134       10.515        0.009      344.707       21.717      863.053
08/11/2013  10:54:00       62.141       58.491       27.695       55.990       46.256       41.685     3134.883     2139.573     1737.658        0.753        0.351       85.339       26.684        0.098      345.098       22.386      863.041
08/11/2013  10:55:00       -3.363      195.068      -13.082       39.049       57.640       36.423     1524.828     3322.322     1326.647        2.220        0.309      195.097       21.570        0.012      344.812       21.894      863.041
08/11/2013  10:56:00      101.523      138.485        3.130       89.324       55.061       39.293     7978.835     3031.768     1543.922        2.102        0.628      171.712       28.150        0.027      344.969       22.164      863.035
08/11/2013  10:57:00       66.113       73.944       -0.728       52.968       39.397       28.318     2805.607     1552.150      801.901        0.750        0.258       99.190       28.931        0.085      344.637       21.596      863.053
08/11/2013  10:58:00       62.406       56.548       14.993       46.403       34.960       39.272     2153.243     1222.215     1542.323        0.612        0.246       84.215       29.615        0.124      344.784       21.849      863.029
08/11/2013  10:59:00      100.123       74.409        9.487       64.573       33.083       29.689     4169.676     1094.490      881.422        1.090        0.307      124.745       14.238        0.013      344.857       21.974      863.015
08/11/2013  11:00:00       74.393       50.367       15.725       44.789       37.915       21.237     2006.097     1437.576      451.010        0.611        0.195       89.839       21.589        0.058      344.557       21.460      862.999
08/11/2013  11:01:00        7.957       30.881       16.684       29.039       34.887       25.227      843.279     1217.091      636.406        0.200        0.135       31.890       16.122        0.256      345.251       22.649      862.988
08/11/2013  11:02:00       54.593       44.845       16.647       17.743       29.365       28.742      314.824      862.303      826.102        0.364        0.100       70.650       17.191        0.059      345.041       22.289      862.968
08/11/2013  11:03:00       19.244       58.916        0.212       37.425       34.839       33.553     1400.608     1213.767     1125.781        0.379        0.187       61.979       26.093        0.177      344.983       22.191      862.952
08/11/2013  11:04:00       -6.972       41.839       24.156       29.504       42.294       26.632      870.466     1788.797      709.267        0.288        0.168       42.416       24.917        0.345      345.698       23.414      862.930
08/11/2013  11:05:00       11.571      -36.387       -1.681       31.202       47.475       21.108      973.548     2253.873      445.545        0.257        0.184       38.182       17.194        0.203      344.815       21.903      862.924
08/11/2013  11:06:00       28.993      -26.075       10.615       21.774       40.148       23.451      474.121     1611.851      549.958        0.213        0.132       38.994       26.948        0.478      344.349       21.104      862.897
08/11/2013  11:07:00       43.023       30.908       11.687       27.675       20.663       29.473      765.898      426.950      868.667        0.250        0.103       52.974       15.437        0.085      344.530       21.415      862.889
08/11/2013  11:08:00       18.470      106.103        9.656       57.739       56.382       44.213     3333.735     3178.883     1954.755        1.008        0.423      107.698       43.062        0.160      345.072       22.341      862.880
08/11/2013  11:09:00       31.561       34.381       14.225       44.678       39.757       40.052     1996.083     1580.588     1604.147        0.378        0.259       46.671       25.881        0.308      345.597       23.241      862.876
08/11/2013  11:10:00       60.298        1.260        0.137       34.206       56.746       32.595     1170.079     3220.064     1062.406        0.454        0.273       60.312       26.434        0.192      344.743       21.779      862.862
08/11/2013  11:11:00       75.631      -56.808       -7.092       66.396       40.920       40.953     4408.420     1674.406     1677.189        0.838        0.388       94.589       33.565        0.126      344.230       20.901      862.854
08/11/2013  11:12:00       -8.534      -11.742       13.932       37.943       31.393       19.851     1439.641      985.544      394.076        0.161        0.141       14.516       20.853        2.064      344.975       22.176      862.843
08/11/2013  11:13:00       19.831       -2.710       25.203       30.127       55.278       46.992      907.613     3055.606     2208.233        0.360        0.309       20.016       46.508        5.399      344.780       21.844      862.825
08/11/2013  11:14:00       24.779        9.746       32.194       41.306       53.452       36.691     1706.151     2857.161     1346.240        0.383        0.295       26.627       38.574        2.099      344.801       21.877      862.817
08/11/2013  11:15:00       80.809      106.139       67.027       66.305       60.043       59.478     4396.316     3605.153     3537.637        1.691        0.577      133.400       51.070        0.147      344.938       22.111      862.794
08/11/2013  11:16:00       69.604       59.588       31.960       71.325       68.015       46.075     5087.210     4626.021     2122.925        1.062        0.592       91.627       35.086        0.147      345.021       22.253      862.796
08/11/2013  11:17:00       13.279      -38.289       19.830       19.884       39.126       26.039      395.368     1530.824      678.055        0.232        0.130       40.527       19.538        0.232      344.885       22.023      862.785
08/11/2013  11:18:00      111.468       91.434       35.538       73.346       44.305       35.099     5379.606     1962.960     1231.921        1.531        0.429      144.171       37.884        0.069      344.810       21.892      862.769
08/11/2013  11:19:00       45.273       36.514       15.862       40.880       52.632       42.774     1671.173     2770.151     1829.601        0.495        0.314       58.163       27.559        0.225      345.272       22.685      862.766
08/11/2013  11:20:00       97.973       83.181       44.386       67.430       34.324       38.505     4546.804     1178.168     1482.610        1.285        0.360      128.521       13.177        0.011      345.178       22.525      862.747
08/11/2013  11:21:00      105.589       38.044        8.727       64.986       64.217       30.262     4223.131     4123.805      915.796        1.097        0.463      112.233       27.734        0.061      344.589       21.515      862.741
08/11/2013  11:22:00       28.790      -16.653       26.860       39.702       55.202       28.358     1576.231     3047.219      804.169        0.363        0.271       33.259       32.336        0.945      344.934       22.105      862.717
08/11/2013  11:23:00       48.056       29.609       -4.705       27.628       25.254       24.598      763.331      637.766      605.067        0.261        0.100       56.445       16.521        0.086      344.682       21.674      862.707
08/11/2013  11:24:00        3.884      -78.672       10.078       23.211       28.928       23.409      538.774      836.831      548.000        0.411        0.096       78.767        4.771        0.004      344.888       22.026      862.697
08/11/2013  11:25:00       20.700      -26.591       23.290       31.506       43.497       29.122      992.598     1891.963      848.114        0.270        0.187       33.699       17.145        0.259      345.117       22.420      862.679
08/11/2013  11:26:00       41.784      -59.976       -9.795       25.497       27.335       23.080      650.091      747.212      532.692        0.368        0.096       73.096       15.326        0.044      344.306       21.031      862.679
08/11/2013  11:27:00        6.318      -28.479      -12.014       39.842       30.275       18.617     1587.395      916.600      346.583        0.192        0.143       29.171       16.034        0.302      344.715       21.731      862.679
08/11/2013  11:28:00     -136.191      -16.439      -22.414       29.203       40.799       25.526      852.795     1664.562      651.571        1.124        0.158      137.180       11.596        0.007      344.771       21.828      862.670
08/11/2013  11:29:00      -62.598      -58.758      -12.393       21.814       19.190       22.916      475.864      368.257      525.124        0.445        0.068       85.855        9.909        0.013      344.808       21.890      862.662
08/11/2013  11:30:00      -15.416      -17.473       -7.320       25.753       21.411       14.917      663.218      458.425      222.526        0.097        0.067       23.302       12.748        0.299      345.091       22.374      862.641
08/11/2013  11:31:00      -27.052      -19.226       -6.005       17.401       12.863       13.263      302.799      165.458      175.895        0.089        0.032       33.188        9.928        0.089      345.078       22.354      862.624
08/11/2013  11:32:00        0.377       17.282       31.137       14.182       22.320       19.343      201.126      498.162      374.153        0.117        0.054       17.287       11.057        0.409      346.144       24.180      862.604
08/11/2013  11:33:00       52.881       49.784       21.574       55.092       26.619       31.787     3035.125      708.594     1010.444        0.525        0.238       72.628       12.165        0.028      345.230       22.613      862.588
08/11/2013  11:34:00       11.716       26.235       26.699       50.446       45.945       25.186     2544.801     2110.947      634.320        0.341        0.265       28.733       23.141        0.649      345.422       22.942      862.568
08/11/2013  11:35:00       10.369        6.646       17.381       25.289       26.008       21.503      639.546      676.406      462.363        0.112        0.089       12.316       17.006        1.907      346.017       23.961      862.548
08/11/2013  11:36:00       91.496       60.843        2.326       45.660       32.303       26.843     2084.840     1043.462      720.549        0.796        0.192      109.879        9.363        0.007      345.089       22.369      862.529
08/11/2013  11:37:00       66.474       60.095       18.375       51.171       31.507       36.676     2618.420      992.663     1345.138        0.666        0.248       89.611       21.778        0.059      345.368       22.849      862.514
08/11/2013  11:38:00      137.970       81.232       18.887       58.072       51.640       44.046     3372.364     2666.694     1940.028        1.698        0.399      160.108       39.422        0.061      345.217       22.589      862.492
08/11/2013  11:39:00       40.897       25.309       48.842       50.831       65.778       47.149     2583.784     4326.794     2223.052        0.691        0.457       48.095       44.159        0.843      345.134       22.448      862.466
08/11/2013  11:40:00      103.837      -70.102        3.697       44.452       51.071       33.360     1975.973     2608.196     1112.905        1.070        0.285      125.285       28.439        0.052      344.838       21.941      862.459
08/11/2013  11:41:00      101.017       34.956       12.851       48.897       50.024       37.031     2390.874     2502.373     1371.325        0.893        0.313      106.894       18.043        0.028      345.433       22.960      862.444
08/11/2013  11:42:00       55.066       45.108       46.800       44.053       76.401       51.585     1940.691     5837.060     2660.969        0.885        0.522       71.183       38.827        0.298      345.248       22.644      862.441
08/11/2013  11:43:00       16.335      -27.415       11.712       25.531       39.324       35.670      651.818     1546.354     1272.384        0.231        0.174       31.913       32.901        1.063      345.412       22.924      862.434
08/11/2013  11:44:00       -3.876      -33.827       11.461       18.714       35.457       26.505      350.206     1257.226      702.520        0.180        0.115       34.048       22.168        0.424      345.458       23.005      862.423
08/11/2013  11:45:00     -116.478      -47.921      -21.465       35.646       37.943       21.533     1270.628     1439.701      463.663        0.975        0.159      125.951        8.762        0.005      345.232       22.615      862.402
08/11/2013  11:46:00     -102.781      -17.741        2.304       50.653       44.502       29.297     2565.739     1980.468      858.334        0.814        0.270      104.301       32.048        0.094      345.640       23.316      862.386
08/11/2013  11:47:00      -27.196       12.283       19.017       24.000       16.012       19.710      576.008      256.374      388.498        0.124        0.061       29.841       17.809        0.356      346.107       24.118      862.378
08/11/2013  11:48:00       19.480        0.254       16.141       37.177       35.763       33.022     1382.166     1278.974     1090.484        0.220        0.188       19.481       20.695        1.128      345.820       23.625      862.370
08/11/2013  11:49:00       33.325      -17.373       21.731       48.110       60.038       39.901     2314.537     3604.591     1592.092        0.470        0.376       37.581       38.744        1.063      346.073       24.060      862.348
08/11/2013  11:50:00      -26.305       11.604       33.469       34.971       48.264       27.288     1222.957     2329.366      744.652        0.312        0.215       28.751        3.916        0.019      346.075       24.061      862.332
08/11/2013  11:51:00        5.903      -48.340       55.017       39.918       57.271       37.541     1593.433     3279.927     1409.293        0.584        0.314       48.699       27.174        0.311      346.140       24.174      862.313
08/11/2013  11:52:00        8.139      -41.353       36.013       24.382       53.461       28.425      594.476     2858.041      807.969        0.367        0.213       42.147       22.250        0.279      346.065       24.045      862.316
08/11/2013  11:53:00       39.864      -89.821       -1.367       34.820       50.128       45.599     1212.433     2512.770     2079.259        0.773        0.290       98.270       32.699        0.111      345.806       23.601      862.295
08/11/2013  11:54:00       70.150      -75.542        3.263       29.673       38.366       27.107      880.510     1471.942      734.763        0.686        0.154      103.090       23.738        0.053      345.645       23.325      862.286
08/11/2013  11:55:00       22.121      -22.442       31.437       29.638       57.219       31.351      878.407     3273.981      982.907        0.356        0.257       31.511       31.623        1.007      345.981       23.900      862.273
08/11/2013  11:56:00      -14.230        1.939       14.061       26.656       26.477       22.758      710.531      701.011      517.907        0.117        0.096       14.361       17.084        1.415      346.169       24.224      862.265
08/11/2013  11:57:00       35.666        5.258       -0.991       39.017       33.243       22.616     1522.312     1105.085      511.478        0.222        0.157       36.051       16.719        0.215      345.560       23.179      862.254
08/11/2013  11:58:00       -1.576      -13.280       18.749       18.807       41.875       18.768      353.717     1753.539      352.225        0.149        0.123       13.374        7.856        0.345      346.063       24.042      862.238
08/11/2013  11:59:00       15.974       47.201       20.938       40.177       43.565       32.203     1614.159     1897.867     1037.034        0.373        0.227       49.831       16.902        0.115      345.894       23.752      862.231
08/11/2013  12:00:00       38.195       56.704        0.369       47.080       57.004       35.124     2216.535     3249.496     1233.705        0.569        0.335       68.368       17.850        0.068      345.860       23.695      862.220
08/11/2013  12:01:00       59.010       40.285       10.003       52.828       39.471       41.060     2790.766     1557.981     1685.922        0.562        0.302       71.450       31.500        0.194      345.511       23.095      862.220
08/11/2013  12:02:00      -27.763       35.880       18.882       39.737       32.253       31.643     1578.994     1040.237     1001.260        0.302        0.181       45.367       23.241        0.262      346.280       24.414      862.213
08/11/2013  12:03:00      -20.950       63.085       18.810       50.471       68.326       35.800     2547.306     4668.417     1281.661        0.663        0.425       66.473       39.312        0.350      346.330       24.499      862.207
08/11/2013  12:04:00      -98.201       67.558        1.323       56.439       44.016       41.645     3185.369     1937.451     1734.267        1.053        0.343      119.196       35.056        0.086      345.955       23.855      862.193
08/11/2013  12:05:00      -93.497      117.234       -5.301       62.109       56.369       45.564     3857.486     3177.495     2076.120        1.581        0.456      149.952       44.388        0.088      345.941       23.830      862.188
08/11/2013  12:06:00     -143.560       77.195      -32.114       56.982       48.251       32.608     3246.909     2328.186     1063.285        1.712        0.332      162.999       32.796        0.040      345.579       23.208      862.183
08/11/2013  12:07:00     -198.524       38.224      -32.506       39.510       41.535       24.676     1561.011     1725.119      608.900        2.291        0.195      202.170       18.585        0.008      345.539       23.139      862.172
08/11/2013  12:08:00     -127.310       30.478       -7.819       35.850       37.732       23.909     1285.201     1423.729      571.637        1.024        0.164      130.907       16.939        0.017      345.656       23.343      862.166
08/11/2013  12:09:00      -97.492      -15.170       -2.550       40.664       36.525       20.830     1653.563     1334.065      433.892        0.658        0.171       98.665       14.853        0.023      345.761       23.521      862.143
08/11/2013  12:10:00     -102.805      -69.745       11.920       86.493       58.170       44.948     7480.987     3383.730     2020.367        1.423        0.644      124.231       43.790        0.124      345.833       23.645      862.124
08/11/2013  12:11:00     -113.254      -56.454       -5.580       73.207       49.486       34.514     5359.209     2448.882     1191.242        1.252        0.450      126.545       30.348        0.058      345.709       23.433      862.119
08/11/2013  12:12:00        6.848      -80.149       15.963       18.548       46.332       22.863      344.023     2146.613      522.695        0.487        0.151       80.441       20.284        0.064      345.498       23.069      862.121
08/11/2013  12:13:00      -18.654      -42.586        0.774       28.663       29.983       22.041      821.563      899.000      485.818        0.218        0.110       46.492       21.334        0.211      345.684       23.391      862.100
08/11/2013  12:14:00      -73.555      -14.262       -3.928       34.607       32.817       16.883     1197.632     1076.948      285.029        0.409        0.128       74.925       13.759        0.034      345.634       23.304      862.097
08/11/2013  12:15:00     -126.781       -5.769      -21.950       28.745       26.153       20.042      826.250      683.954      401.674        0.925        0.096      126.912       15.541        0.015      345.673       23.372      862.082
08/11/2013  12:16:00     -118.083      -33.075      -26.101       37.812       42.647       20.891     1429.779     1818.728      436.416        0.970        0.184      122.628       13.785        0.013      345.521       23.110      862.085
08/11/2013  12:17:00       -3.529      -12.851        3.761       24.209       23.879       28.348      586.070      570.183      803.589        0.108        0.098       13.327       19.484        2.138      346.096       24.099      862.074
08/11/2013  12:18:00       10.800      -29.112        1.599       33.422       28.153       30.711     1117.051      792.619      943.168        0.191        0.143       31.051       24.996        0.648      345.895       23.752      862.075
08/11/2013  12:19:00        5.885       21.202       -6.329       37.940       35.882       29.819     1439.407     1287.530      889.147        0.207        0.181       22.004       22.549        1.050      346.054       24.025      862.049
08/11/2013  12:20:00      -14.621       12.470        3.118       16.379       31.546       27.078      268.272      995.164      733.204        0.119        0.100       19.216       23.625        1.511      346.182       24.245      862.045
08/11/2013  12:21:00       11.798      -39.135      -10.810       28.985       34.704       24.792      840.106     1204.342      614.660        0.222        0.133       40.875       20.884        0.261      345.979       23.897      862.023
08/11/2013  12:22:00      -17.100        0.165       12.262       25.155       28.871       26.652      632.768      833.529      710.311        0.131        0.109       17.101       12.647        0.547      346.707       25.151      862.008
08/11/2013  12:23:00      -15.956       95.744       10.072       51.446       60.901       38.380     2646.674     3708.981     1473.017        0.867        0.391       97.065       37.422        0.149      346.523       24.832      861.990
08/11/2013  12:24:00     -137.415       90.883       -4.232       81.046       55.940       48.365     6568.476     3129.267     2339.159        1.960        0.602      164.750       46.468        0.080      346.077       24.063      861.980
08/11/2013  12:25:00     -186.869       56.821      -24.291       61.052       49.136       38.221     3727.382     2414.333     1460.855        2.317        0.380      195.317       31.933        0.027      345.665       23.354      861.965
08/11/2013  12:26:00     -157.353       41.580      -34.496       33.185       52.909       26.605     1101.234     2799.363      707.819        1.614        0.230      162.754       31.184        0.037      345.532       23.130      861.971
08/11/2013  12:27:00      -61.173      -88.746       -9.212       37.019       81.239       39.878     1370.416     6599.823     1590.222        1.063        0.478      107.787       28.187        0.068      345.755       23.513      861.983
08/11/2013  12:28:00      -36.697      -94.482      -13.804       23.790       27.197       21.650      565.971      739.672      468.733        0.612        0.089      101.359       18.634        0.034      345.572       23.198      861.972
08/11/2013  12:29:00      -30.451      -62.608       -6.007       36.507       29.317       23.056     1332.734      859.499      531.570        0.380        0.136       69.620       13.418        0.037      345.691       23.402      861.954
08/11/2013  12:30:00       50.779       12.904       17.087       32.089       29.091       25.796     1029.693      846.301      665.408        0.279        0.127       52.392       18.729        0.128      345.660       23.349      861.930
08/11/2013  12:31:00       13.872        2.031       14.492       30.536       22.905       28.343      932.460      524.654      803.314        0.133        0.113       14.020       21.101        2.265      345.976       23.894      861.921
08/11/2013  12:32:00      -27.744      110.904       -5.079       30.550       59.756       31.695      933.284     3570.782     1004.604        0.930        0.275      114.322       29.377        0.066      346.089       24.085      861.914
08/11/2013  12:33:00      -91.522       63.570      -21.313       39.580       29.214       19.564     1566.585      853.437      382.739        0.784        0.140      111.434       15.857        0.020      345.890       23.744      861.915
08/11/2013  12:34:00      -82.568        7.074      -21.079       29.693       17.882        9.322      881.667      319.783       86.893        0.430        0.064       82.870        6.352        0.006      345.698       23.413      861.902
08/11/2013  12:35:00        4.802      -44.421        8.187       30.370       36.109       23.108      922.337     1303.849      533.993        0.241        0.138       44.680       21.352        0.228      346.077       24.065      861.879
08/11/2013  12:36:00      -34.000      -20.480        2.263       31.974       26.455       22.096     1022.306      699.852      488.233        0.190        0.111       39.692       15.835        0.159      346.374       24.576      861.854
08/11/2013  12:37:00     -103.310       34.098        9.882       72.508       45.579       35.029     5257.406     2077.401     1227.036        1.025        0.428      108.792       38.138        0.123      346.446       24.699      861.844
08/11/2013  12:38:00      -27.537       35.734       30.687       50.008       46.296       36.692     2500.781     2143.354     1346.302        0.448        0.300       45.113       20.851        0.214      347.094       25.815      861.822
08/11/2013  12:39:00      -24.200       96.509       -8.051       75.903       72.501       40.232     5761.288     5256.389     1618.632        1.130        0.632       99.497       39.717        0.159      346.251       24.365      861.816
08/11/2013  12:40:00       -0.065      115.588        6.413       37.703       86.386       46.332     1421.537     7462.466     2146.665        1.221        0.552      115.588       42.999        0.138      346.781       25.275      861.790
08/11/2013  12:41:00      -13.739       52.001       24.789       45.824       70.897       38.619     2099.832     5026.376     1491.434        0.606        0.431       53.786       45.344        0.711      347.280       26.136      861.791
08/11/2013  12:42:00      -64.699      136.434       -1.824       58.342       67.363       49.472     3403.768     4537.715     2447.506        1.659        0.519      150.997       44.913        0.088      346.652       25.053      861.780
08/11/2013  12:43:00     -119.058      119.392      -23.084       41.641       58.734       36.270     1733.959     3449.659     1315.486        1.773        0.325      168.609       27.696        0.027      346.432       24.677      861.763
08/11/2013  12:44:00     -125.190       17.893      -13.746       55.545       63.006       31.803     3085.249     3969.697     1011.453        1.212        0.403      126.462       29.599        0.055      346.276       24.405      861.760
08/11/2013  12:45:00      -91.616       31.593       -6.328       27.441       37.819       34.671      753.030     1430.304     1202.071        0.641        0.169       96.910       16.903        0.030      346.295       24.441      861.738
08/11/2013  12:46:00     -119.232       15.069      -18.336       42.538       35.707       33.491     1809.478     1274.989     1121.667        0.949        0.210      120.181       21.428        0.032      346.186       24.253      861.733
08/11/2013  12:47:00     -119.956      -78.293      -20.375       66.142       79.751       31.820     4374.762     6360.177     1012.527        1.634        0.587      143.245       24.661        0.030      345.974       23.886      861.728
08/11/2013  12:48:00        1.949      -35.916       -0.146       35.516       48.956       27.825     1261.384     2396.644      774.244        0.286        0.222       35.968       17.384        0.234      346.050       24.020      861.736
08/11/2013  12:49:00       14.987       56.005       -7.625       59.884       48.685       34.956     3586.084     2370.248     1221.929        0.530        0.359       57.975       33.452        0.333      346.306       24.459      861.737
08/11/2013  12:50:00       52.000       29.882        0.402       58.397       44.922       36.736     3410.233     2017.949     1349.542        0.519        0.339       59.975       30.781        0.263      346.416       24.647      861.708
08/11/2013  12:51:00      -72.477      -41.906       10.996       84.075       44.738       35.727     7068.673     2001.474     1276.399        0.874        0.517       83.720       45.528        0.296      346.750       25.222      861.700
08/11/2013  12:52:00     -181.387      -53.301       -2.812       52.818       52.911       34.976     2789.753     2799.576     1223.291        2.128        0.341      189.057       22.145        0.014      346.310       24.463      861.683
08/11/2013  12:53:00      -72.607      -55.946        9.441       58.585       38.084       25.540     3432.260     1450.389      652.285        0.701        0.277       91.661       24.282        0.070      346.623       25.005      861.682
08/11/2013  12:54:00      -48.226      -48.862       12.088       55.251       56.787       39.470     3052.649     3224.797     1557.884        0.635        0.392       68.653       42.407        0.382      346.722       25.177      861.668
08/11/2013  12:55:00      -54.804      -56.040        8.709       34.368       42.631       23.001     1181.177     1817.375      529.036        0.487        0.176       78.384       22.311        0.081      346.635       25.025      861.662
08/11/2013  12:56:00        4.043       24.219       13.477       33.230       23.042       32.785     1104.201      530.921     1074.828        0.175        0.135       24.554       17.767        0.524      347.212       26.018      861.653
08/11/2013  12:57:00       -6.357       10.171       25.785       43.273       23.807       31.139     1872.557      566.750      969.646        0.211        0.170       11.994       23.360        3.793      347.263       26.105      861.633
08/11/2013  12:58:00       30.133        8.660        7.949       44.748       57.634       30.524     2002.380     3321.665      931.710        0.365        0.313       31.353       22.881        0.533      346.547       24.873      861.628
08/11/2013  12:59:00        5.885      -57.724        5.864       33.720       34.468       32.590     1137.046     1188.048     1062.137        0.339        0.169       58.023       23.650        0.166      346.566       24.907      861.606
08/11/2013  13:00:00      -40.619      -54.441       11.102       73.780       45.752       37.751     5443.557     2093.276     1425.175        0.685        0.448       67.925       33.981        0.250      346.769       25.255      861.595
08/11/2013  13:01:00      -42.573      -48.708       24.096       61.888       43.212       35.260     3830.175     1867.235     1243.274        0.585        0.347       64.691       25.160        0.151      347.184       25.970      861.591
08/11/2013  13:02:00     -110.646      -82.808        8.391       77.411       78.715       35.719     5992.461     6196.021     1275.875        1.631        0.673      138.201       37.916        0.075      346.798       25.304      861.574
08/11/2013  13:03:00      -86.707      -32.245      -11.876       42.774       33.828       17.252     1829.619     1144.301      297.642        0.598        0.164       92.509       13.465        0.021      346.447       24.701      861.570
08/11/2013  13:04:00      -66.072      -30.204        9.578       69.774       57.023       44.364     4868.444     3251.570     1968.194        0.773        0.504       72.648       41.110        0.320      346.970       25.602      861.554
08/11/2013  13:05:00      -46.335      -78.972       15.711       58.784       54.045       35.302     3455.577     2920.837     1246.259        0.813        0.381       91.562       34.811        0.145      347.041       25.725      861.553
08/11/2013  13:06:00      -55.082      -81.179       -3.831       47.352       45.325       37.870     2242.259     2054.391     1434.130        0.768        0.287       98.103       18.254        0.035      346.970       25.601      861.543
08/11/2013  13:07:00       17.010      -32.512       20.620       67.339       90.688       74.001     4534.563     8224.318     5476.129        1.000        0.912       36.693       66.713        3.306      347.240       26.067      861.527
08/11/2013  13:08:00      -20.851      -63.911       33.606       54.578       79.235       47.356     2978.779     6278.154     2242.610        0.857        0.575       67.226       57.020        0.719      347.068       25.770      861.517
08/11/2013  13:09:00      -68.530     -100.321        1.610       60.341       51.341       28.656     3640.983     2635.850      821.184        1.093        0.355      121.494       12.990        0.011      346.602       24.967      861.511
08/11/2013  13:10:00     -114.987       -3.108      -12.882       23.793       37.915       22.778      566.107     1437.570      518.833        0.796        0.126      115.029       22.203        0.037      346.536       24.855      861.499
08/11/2013  13:11:00      -76.903       20.512       -1.480       34.268       22.778       17.637     1174.297      518.849      311.048        0.417        0.100       79.592       12.451        0.024      346.705       25.143      861.478
08/11/2013  13:12:00      -44.241       21.025       -2.486       20.727       23.305       26.457      429.610      543.103      699.996        0.204        0.084       48.983       17.868        0.133      347.001       25.656      861.464
08/11/2013  13:13:00       26.155      -71.022      -18.887       77.353       66.554       28.873     5983.553     4429.436      833.635        0.866        0.562       75.685       19.830        0.069      346.894       25.469      861.460
08/11/2013  13:14:00       14.451       35.141       74.370       35.591       49.083       32.282     1266.697     2409.096     1042.101        0.585        0.236       37.997       31.380        0.682      347.327       26.215      861.442
08/11/2013  13:15:00      -11.452       23.975       71.940       17.485       41.624       25.799      305.714     1732.564      665.572        0.429        0.135       26.570       25.787        0.942      347.735       26.920      861.439
08/11/2013  13:16:00      -30.998      -12.533       14.165       32.169       35.144       22.047     1034.848     1235.068      486.090        0.204        0.138       33.436       27.159        0.660      347.275       26.126      861.428
08/11/2013  13:17:00       48.473      -59.691       -3.762       42.865       49.331       37.241     1837.420     2433.538     1386.921        0.579        0.283       76.894       36.196        0.222      346.966       25.595      861.419
08/11/2013  13:18:00      -11.072      -83.457        9.878       47.360       77.548       34.185     2243.013     6013.708     1168.630        0.830        0.471       84.188       23.214        0.076      347.075       25.783      861.397
08/11/2013  13:19:00       47.146      -19.534       40.823       51.355       64.184       50.821     2637.341     4119.553     2582.774        0.680        0.467       51.032       40.041        0.616      347.621       26.724      861.390
08/11/2013  13:20:00       55.881      -56.205       12.186       51.864       83.446       51.802     2689.918     6963.198     2683.459        0.938        0.617       79.257       57.170        0.520      347.167       25.940      861.399
08/11/2013  13:21:00      -15.966      -66.038       16.737       48.782       55.835       37.905     2379.696     3117.536     1436.803        0.591        0.347       67.941       31.832        0.220      347.275       26.127      861.394
08/11/2013  13:22:00      -75.923      -33.151       16.202       44.761       46.371       25.711     2003.578     2150.226      661.064        0.597        0.241       82.845       23.884        0.083      347.136       25.887      861.400
08/11/2013  13:23:00      -76.172      -26.515       -2.328       52.884       26.285       21.448     2796.682      690.888      460.038        0.523        0.197       80.655       16.789        0.043      347.080       25.791      861.385
08/11/2013  13:24:00      -43.769       -7.234        5.725       38.714       30.343       25.372     1498.764      920.681      643.732        0.253        0.153       44.362       21.937        0.245      347.626       26.732      861.368
08/11/2013  13:25:00       13.644       13.691       24.777       27.097       20.919       22.336      734.268      437.618      498.875        0.133        0.084       19.328        7.608        0.155      348.017       27.408      861.356
08/11/2013  13:26:00       20.877        5.798       15.091       36.694       17.176       28.785     1346.472      295.019      828.573        0.158        0.124       21.668       21.710        1.004      347.704       26.867      861.331
08/11/2013  13:27:00        9.619        2.321       14.493       25.240       31.178       17.790      637.063      972.083      316.493        0.112        0.096        9.896       14.502        2.148      347.867       27.147      861.333
08/11/2013  13:28:00      -26.859      -34.382       -0.682       34.093       44.663       28.126     1162.349     1994.805      791.066        0.293        0.197       43.630       17.730        0.165      347.611       26.707      861.314
08/11/2013  13:29:00      -61.325      -55.535        0.122       49.724       43.494       31.548     2472.507     1891.767      995.298        0.610        0.268       82.734       24.809        0.090      347.430       26.393      861.320
08/11/2013  13:30:00       -0.566       47.476       66.720       20.734       27.948       30.420      429.890      781.118      925.358        0.442        0.107       47.479       18.173        0.146      347.204       26.005      861.324
08/11/2013  13:31:00      -21.453       33.645       19.059       69.468       42.069       32.393     4825.856     1769.832     1049.314        0.480        0.382       39.902       32.849        0.678      347.483       26.486      861.308
08/11/2013  13:32:00      -26.916       19.408        4.508       67.038       32.488       28.417     4494.140     1055.501      807.513        0.374        0.318       33.184       21.040        0.402      347.092       25.811      861.306
08/11/2013  13:33:00      116.700       89.745       33.183       54.290       37.739       39.629     2947.435     1424.222     1570.436        1.436        0.297      147.218       25.904        0.031      347.106       25.835      861.277
08/11/2013  13:34:00      129.650       67.182       69.110       76.597       65.744       56.124     5867.176     4322.272     3149.930        1.972        0.667      146.022       40.100        0.075      347.284       26.141      861.260
08/11/2013  13:35:00       43.198       55.184       16.887       86.899       71.077       53.030     7551.522     5051.972     2812.233        1.030        0.771       70.081       43.849        0.391      347.434       26.401      861.239
08/11/2013  13:36:00       93.173       85.578       17.877       74.684       72.345       66.581     5577.752     5233.822     4433.005        1.578        0.762      126.510       37.261        0.087      347.285       26.143      861.221
08/11/2013  13:37:00      103.192      119.094       -2.061       83.199       70.497       60.971     6922.002     4969.807     3717.465        2.022        0.780      157.581       49.892        0.100      347.211       26.014      861.203
08/11/2013  13:38:00      140.316      113.872       -3.984       76.121       73.082       70.708     5794.476     5341.027     4999.596        2.440        0.807      180.708       52.223        0.084      347.266       26.109      861.182
08/11/2013  13:39:00      167.668      135.266       17.035      106.614       72.217       44.118    11366.501     5215.252     1946.365        3.261        0.926      215.428       29.705        0.019      347.368       26.285      861.174
08/11/2013  13:40:00      165.668       91.745       21.123       93.759       57.722       54.558     8790.760     3331.859     2976.565        2.570        0.755      189.376       30.945        0.027      347.434       26.399      861.167
08/11/2013  13:41:00      168.240      107.870       25.765       75.935       62.755       58.226     5766.115     3938.196     3390.233        2.685        0.655      199.852       28.639        0.021      347.439       26.408      861.165
08/11/2013  13:42:00       97.970       77.822       14.391       86.064       63.492       54.342     7406.944     4031.236     2953.035        1.512        0.720      125.118       35.131        0.079      347.558       26.614      861.159
08/11/2013  13:43:00       67.266      105.453       17.029       91.786       74.510       53.050     8424.712     5551.751     2814.280        1.636        0.840      125.080       41.447        0.110      347.543       26.588      861.160
08/11/2013  13:44:00       35.637      123.319       -6.351       72.886      102.142       49.905     5312.314    10432.970     2490.508        1.737        0.912      128.365       54.137        0.178      347.684       26.830      861.151
08/11/2013  13:45:00       44.657       90.170       -5.541       58.632       64.173       48.266     3437.685     4118.148     2329.574        1.002        0.494      100.623       48.070        0.228      347.718       26.890      861.143
08/11/2013  13:46:00       91.884      112.898       -1.262       69.199       56.108       43.764     4788.476     3148.069     1915.301        1.552        0.493      145.564       32.870        0.051      347.794       27.021      861.143
08/11/2013  13:47:00       49.310       95.744       -0.186       80.186       77.422       50.951     6429.738     5994.091     2595.996        1.331        0.751      107.696       44.968        0.174      347.886       27.180      861.135
08/11/2013  13:48:00      -16.298      256.767      -31.134       57.471       88.427       39.082     3302.892     7819.388     1527.382        3.990        0.632      257.284       42.010        0.027      347.266       26.107      861.152
08/11/2013  13:49:00      -46.313      162.453      -25.867       33.711       89.292       32.743     1136.401     7973.111     1072.136        1.969        0.509      168.925       31.204        0.034      347.347       26.249      861.151
08/11/2013  13:50:00      -84.544       22.234      -22.273       54.872       90.507       47.132     3010.986     8191.498     2221.452        1.078        0.671       87.419       25.306        0.084      347.326       26.215      861.131
08/11/2013  13:51:00       77.207       71.428       22.213       81.015       51.962       51.611     6563.384     2700.087     2663.663        1.174        0.596      105.181       22.520        0.046      347.515       26.540      861.126
08/11/2013  13:52:00       57.863       58.091       -2.615       63.624       50.557       39.920     4048.063     2555.963     1593.590        0.746        0.410       81.992       25.407        0.096      347.659       26.789      861.119
08/11/2013  13:53:00      154.544       87.342       34.371      108.030       62.172       57.447    11670.514     3865.338     3300.146        2.576        0.942      177.518       53.861        0.092      347.656       26.782      861.106
08/11/2013  13:54:00      166.306      121.444       49.971       96.456       77.376       89.327     9303.793     5987.002     7979.364        3.408        1.164      205.928       62.846        0.093      347.566       26.625      861.071
08/11/2013  13:55:00      199.856       82.204       86.815      112.418      106.336       85.122    12637.725    11307.439     7245.834        4.271        1.560      216.102       79.128        0.134      347.121       25.858      861.076
08/11/2013  13:56:00      137.193       50.851       14.705       87.414       61.126       57.311     7641.162     3736.427     3284.563        1.814        0.733      146.314       31.929        0.048      347.255       26.091      861.110
08/11/2013  13:57:00      101.518      122.833      -12.207       71.312       84.927       52.893     5085.333     7212.561     2797.630        2.032        0.755      159.354       45.802        0.083      347.227       26.041      861.080
08/11/2013  13:58:00       56.851     -123.734        8.888       60.092      102.813       45.588     3611.083    10570.599     2078.300        1.744        0.813      136.170       37.664        0.077      347.247       26.077      861.063
08/11/2013  13:59:00       27.994       13.382       53.996       36.309       76.838       33.878     1318.353     5904.104     1147.694        0.612        0.419       31.028       34.739        1.254      347.512       26.534      861.058
08/11/2013  14:00:00       19.133      -65.056      -25.704       30.723       53.259       29.349      943.895     2836.557      861.388        0.495        0.232       67.811       30.193        0.198      347.473       26.469      861.059
08/11/2013  14:01:00       -4.194      -55.318        9.373       42.254       40.545       38.826     1785.404     1643.884     1507.428        0.405        0.247       55.477       19.077        0.118      347.422       26.380      861.047
08/11/2013  14:02:00        6.703      -30.732       22.144       28.604       37.935       30.929      818.186     1439.062      956.598        0.235        0.161       31.454       25.718        0.669      347.686       26.835      861.042
08/11/2013  14:03:00      -88.871       20.428       -0.932       51.104       24.259       28.687     2611.585      588.481      822.961        0.617        0.201       91.188       31.054        0.116      347.456       26.439      861.026
08/11/2013  14:04:00     -105.274      -12.440       -6.448       66.297       70.546       37.881     4395.323     4976.799     1434.957        1.104        0.540      106.006       33.701        0.101      347.533       26.572      861.002
08/11/2013  14:05:00      -29.615      -34.411       12.262       72.057       57.628       36.207     5192.202     3320.929     1310.943        0.602        0.491       45.400       32.767        0.521      347.682       26.829      860.988
08/11/2013  14:06:00      -19.193      -21.187       25.994       54.683       42.378       37.391     2990.279     1795.894     1398.071        0.384        0.309       28.588       24.025        0.706      348.006       27.388      860.973
08/11/2013  14:07:00      -44.523      -48.975       13.228       68.358       56.377       48.878     4672.765     3178.400     2389.061        0.740        0.512       66.188       42.848        0.419      347.666       26.802      860.978
08/11/2013  14:08:00       10.168      -18.809       -1.327       41.595       18.720       30.700     1730.141      350.420      942.496        0.174        0.151       21.381       28.641        1.794      347.606       26.699      860.968
08/11/2013  14:09:00       48.615      -33.172       30.020       46.738       28.627       42.611     2184.407      819.531     1815.693        0.459        0.241       58.854       37.519        0.406      347.581       26.653      860.951
08/11/2013  14:10:00       15.506       29.116       -3.813       24.134       38.156       36.557      582.460     1455.845     1336.430        0.224        0.169       32.988       20.450        0.384      347.589       26.668      860.940
08/11/2013  14:11:00        4.414       40.899       26.687       18.882       22.539       27.423      356.538      508.009      752.006        0.201        0.081       41.137       18.408        0.200      347.913       27.227      860.930
08/11/2013  14:12:00      -39.381      -12.115      -24.734       18.542       32.202       11.995      343.808     1036.996      143.885        0.192        0.076       41.203       11.114        0.073      347.406       26.354      860.922
08/11/2013  14:13:00       -7.356      -28.651      -15.699       23.573       18.926       21.109      555.666      358.203      445.583        0.124        0.068       29.580       16.860        0.325      347.689       26.840      860.921
08/11/2013  14:14:00       99.681       15.473       35.164       50.174       83.805       39.692     2517.445     7023.314     1575.429        1.126        0.556      100.875       25.914        0.066      347.689       26.840      860.891
08/11/2013  14:15:00      157.691       79.786       44.720       69.179       55.415       51.010     4785.671     3070.792     2602.065        2.184        0.523      176.727       32.301        0.033      347.756       26.954      860.865
08/11/2013  14:16:00       12.122       16.647       53.150       52.956       61.420       68.083     2804.357     3772.442     4635.276        0.723        0.561       20.593       56.539        7.538      348.096       27.544      860.856
08/11/2013  14:17:00       26.033       35.052       41.225       67.067       56.311       41.446     4497.947     3170.965     1717.788        0.649        0.469       43.662       36.360        0.694      348.045       27.456      860.865
08/11/2013  14:18:00       28.087       37.037       64.196       87.165       67.818       48.033     7597.671     4599.226     2307.186        1.039        0.725       46.483       54.022        1.351      348.290       27.879      860.825
08/11/2013  14:19:00      119.436      103.938       75.626       68.392       68.356       85.496     4677.503     4672.580     7309.596        2.372        0.833      158.329       44.028        0.077      347.883       27.173      860.830
08/11/2013  14:20:00      241.578      145.080       67.133       95.314       63.543       64.651     9084.742     4037.722     4179.757        5.061        0.865      281.794       26.862        0.009      347.593       26.671      860.832
08/11/2013  14:21:00       49.433       56.926       81.584       74.925       75.614       49.235     5613.695     5717.415     2424.059        1.305        0.688       75.393       45.690        0.367      347.905       27.212      860.786
08/11/2013  14:22:00      147.548      133.657       43.552       91.661       63.676       75.471     8401.802     4054.609     5695.807        2.984        0.908      199.085       66.940        0.113      347.683       26.827      860.770
08/11/2013  14:23:00      177.492      132.701       34.047       58.402       54.163       46.714     3410.809     2933.657     2182.229        2.940        0.426      221.614       32.776        0.022      347.545       26.589      860.765
08/11/2013  14:24:00      146.800       81.395       41.597       70.319       53.677       60.397     4944.825     2881.249     3647.824        2.069        0.574      167.855       32.080        0.037      347.581       26.653      860.742
08/11/2013  14:25:00      104.951       57.869       75.139       96.752       85.047       57.825     9360.864     7233.000     3343.683        1.997        0.997      119.848       64.832        0.293      347.604       26.692      860.735
08/11/2013  14:26:00       65.322       30.399       23.849       57.976       43.250       40.714     3361.251     1870.556     1657.650        0.632        0.344       72.049       16.282        0.051      347.865       27.144      860.731
08/11/2013  14:27:00       -7.934       18.706      -10.997       44.227       45.352       37.452     1956.048     2056.799     1402.689        0.297        0.271       20.319       28.648        1.988      347.735       26.919      860.695
08/11/2013  14:28:00       39.176      -57.343       12.986       49.157       45.084       34.925     2416.434     2032.573     1219.745        0.533        0.283       69.448       35.938        0.268      347.874       27.159      860.675
08/11/2013  14:29:00       68.079     -135.008       -3.633       68.006      117.215       57.102     4624.786    13739.433     3260.680        2.225        1.081      151.202       65.734        0.189      347.987       27.353      860.659
08/11/2013  14:30:00       73.595     -138.549      -18.534       48.342       51.038       39.006     2336.997     2604.855     1521.501        1.571        0.323      156.882       33.623        0.046      347.745       26.937      860.648
08/11/2013  14:31:00       40.100      -67.724       23.782       37.296       77.469       27.416     1390.994     6001.421      751.649        0.745        0.407       78.706       31.333        0.158      348.124       27.593      860.634
08/11/2013  14:32:00       84.291       65.505       86.797       81.069       83.391       73.028     6572.218     6954.044     5333.094        1.889        0.943      106.752       60.257        0.319      347.703       26.862      860.614
08/11/2013  14:33:00      150.582       89.632       62.781       98.968       71.151       68.287     9794.685     5062.408     4663.139        2.708        0.976      175.240       53.497        0.093      347.922       27.241      860.583
08/11/2013  14:34:00      104.348      123.194      115.877      118.426      115.228       74.363    14024.706    13277.594     5529.869        3.616        1.642      161.447       80.958        0.251      347.969       27.321      860.585
08/11/2013  14:35:00      193.934       54.422       46.118       74.836       85.912       60.517     5600.356     7380.815     3662.257        2.967        0.832      201.426       49.607        0.061      347.794       27.018      860.591
08/11/2013  14:36:00      156.974       70.759       43.920       87.451       81.491       66.032     7647.730     6640.860     4360.163        2.511        0.932      172.185       57.343        0.111      348.059       27.477      860.572
08/11/2013  14:37:00       97.025       56.963       96.726       82.110       89.045       50.392     6741.993     7928.957     2539.318        1.961        0.861      112.510       51.084        0.206      347.887       27.181      860.571
08/11/2013  14:38:00      116.225        2.480       46.530       78.292       66.055       53.087     6129.671     4363.320     2818.256        1.449        0.666      116.252       40.304        0.120      347.860       27.133      860.577
08/11/2013  14:39:00       30.416       16.483       42.661       58.731       67.546       71.279     3449.288     4562.522     5080.701        0.805        0.655       34.596       52.363        2.291      347.812       27.053      860.567
08/11/2013  14:40:00        6.722      -55.252       -0.201       28.281       65.617       22.564      799.800     4305.646      509.155        0.436        0.281       55.660       16.287        0.086      347.680       26.824      860.562
08/11/2013  14:41:00       36.608      -17.842       15.187       34.065       34.402       37.116     1160.406     1183.491     1377.566        0.280        0.186       40.725       31.097        0.583      347.863       27.141      860.549
08/11/2013  14:42:00       53.845       -2.280       26.025       31.769       41.794       29.696     1009.256     1746.745      881.831        0.361        0.182       53.893       24.318        0.204      347.913       27.227      860.538
08/11/2013  14:43:00       38.148      -68.883       18.823       62.192       71.958       47.501     3867.792     5177.962     2256.341        0.893        0.565       78.741       36.395        0.214      348.258       27.823      860.515
08/11/2013  14:44:00       42.244      -85.680       44.186       73.176      130.180       72.325     5354.788    16946.838     5230.861        1.930        1.377       95.528       79.206        0.687      348.263       27.830      860.506
08/11/2013  14:45:00       45.976      -59.221        3.735       44.433       47.630       33.854     1974.252     2268.649     1146.088        0.551        0.269       74.973       22.768        0.092      347.884       27.179      860.518
08/11/2013  14:46:00        5.894     -101.439      -10.942       55.702       56.215       36.627     3102.679     3160.115     1341.512        0.902        0.380      101.610       26.445        0.068      348.283       27.865      860.494
08/11/2013  14:47:00      -42.732      -97.176       -9.306       41.098       38.650       33.521     1689.024     1493.816     1123.682        0.783        0.215      106.156       23.499        0.049      348.196       27.717      860.469
08/11/2013  14:48:00      -40.614        7.009       -8.795       26.014       29.404       16.124      676.747      864.584      259.968        0.179        0.090       41.214       14.086        0.117      347.816       27.060      860.451
08/11/2013  14:49:00       14.537      -28.252       -6.544       36.798       40.568       34.479     1354.126     1645.770     1188.805        0.262        0.209       31.773       29.216        0.846      348.143       27.626      860.432
08/11/2013  14:50:00       48.834      -77.636        4.376       42.971       65.401       44.564     1846.531     4277.255     1985.928        0.827        0.405       91.718       38.035        0.172      348.113       27.574      860.428
08/11/2013  14:51:00      -48.464      -41.930        2.877       56.636       54.323       26.633     3207.596     2950.943      709.339        0.549        0.343       64.085       28.122        0.193      348.328       27.945      860.416
08/11/2013  14:52:00      -35.833      -21.270       10.801       47.206       29.317       20.622     2228.423      859.468      425.287        0.268        0.176       41.670       20.978        0.253      348.400       28.069      860.404
08/11/2013  14:53:00       -4.266       -7.136       32.995       28.472       32.444       23.296      810.667     1052.641      542.683        0.178        0.120        8.314       19.768        5.654      348.634       28.474      860.389
08/11/2013  14:54:00      -53.694      -31.474       -0.339       48.002       36.558       22.936     2304.153     1336.487      526.040        0.402        0.208       62.239       21.682        0.121      348.567       28.358      860.373
08/11/2013  14:55:00      -21.355      -21.643       17.763       41.216       22.934       19.812     1698.747      525.973      392.499        0.193        0.131       30.405       16.512        0.295      348.636       28.477      860.371
08/11/2013  14:56:00       47.420      -91.633        7.891       58.507       92.319       50.217     3423.079     8522.716     2521.726        1.259        0.723      103.176       43.215        0.175      348.192       27.708      860.369
08/11/2013  14:57:00       43.026      -82.325       10.321       45.653      105.717       52.604     2084.162    11176.105     2767.129        1.238        0.801       92.890       58.110        0.391      348.247       27.803      860.378
08/11/2013  14:58:00       46.133      -43.134       26.278       31.816       42.089       34.004     1012.256     1771.524     1156.286        0.431        0.197       63.157       24.479        0.150      348.351       27.984      860.375
08/11/2013  14:59:00       46.453      -88.731       11.340       58.923       65.467       52.475     3471.869     4285.919     2753.658        1.033        0.526      100.155       36.941        0.136      348.304       27.902      860.354
08/11/2013  15:00:00       60.984      -84.071       10.912       60.234       86.446       71.963     3628.087     7472.894     5178.636        1.359        0.814      103.860       56.396        0.295      348.304       27.903      860.350
08/11/2013  15:01:00      104.645     -135.773       -9.821       65.969       67.873       42.503     4351.905     4606.806     1806.540        2.012        0.538      171.420       41.681        0.059      348.112       27.569      860.335
08/11/2013  15:02:00       74.867      -89.616        0.954       64.676       88.131       47.015     4183.030     7766.992     2210.365        1.390        0.708      116.773       55.939        0.229      348.245       27.801      860.322
08/11/2013  15:03:00       89.972     -179.866       -3.415       68.587       94.760       55.031     4704.119     8979.399     3028.416        2.858        0.836      201.114       58.373        0.084      348.094       27.537      860.295
08/11/2013  15:04:00       28.348      -20.176        7.383       27.814       80.932       39.813      773.608     6550.028     1585.106        0.509        0.445       34.795       48.491        1.942      347.904       27.211      860.313
08/11/2013  15:05:00       24.016       21.244        7.834       31.456       19.892       27.370      989.476      395.695      749.125        0.161        0.107       32.064        6.285        0.038      348.020       27.411      860.301
08/11/2013  15:06:00       44.416       42.034       -0.024       27.550       31.106       23.806      759.017      967.605      566.723        0.302        0.115       61.153       21.238        0.121      347.832       27.087      860.283
08/11/2013  15:07:00       -6.210       30.478       18.217       37.962       25.180       30.494     1441.140      634.009      929.891        0.215        0.150       31.105       20.708        0.443      348.390       28.052      860.285
08/11/2013  15:08:00      -16.582       41.760       25.683       52.234       29.403       44.220     2728.361      864.565     1955.399        0.411        0.277       44.932       41.511        0.854      348.411       28.088      860.279
08/11/2013  15:09:00      -71.153       36.599       -7.755       25.725       23.449       23.466      661.781      549.864      550.664        0.411        0.088       80.014       14.934        0.035      348.248       27.807      860.273
08/11/2013  15:10:00      -67.127       -1.792      -10.157       26.307       29.871       21.025      692.083      892.250      442.033        0.332        0.101       67.151       18.612        0.077      348.063       27.486      860.249
08/11/2013  15:11:00      -20.383       52.230       -2.007       30.254       67.404       30.608      915.290     4543.276      936.858        0.477        0.320       56.067       35.904        0.410      348.565       28.354      860.231
08/11/2013  15:12:00       62.863       70.365        3.786       40.569       35.779       27.461     1645.829     1280.154      754.093        0.630        0.184       94.356       14.473        0.024      348.329       27.945      860.216
08/11/2013  15:13:00       17.422       31.431       18.656       38.413       26.299       28.031     1475.533      691.639      785.750        0.230        0.148       35.936       18.558        0.267      348.499       28.241      860.194
08/11/2013  15:14:00      113.054       75.782       -3.836       64.036       43.922       35.209     4100.583     1929.133     1239.684        1.290        0.363      136.103       14.664        0.012      348.105       27.559      860.168
08/11/2013  15:15:00       48.395       28.683       13.634       59.772       37.844       36.452     3572.691     1432.191     1328.754        0.484        0.317       56.257       24.342        0.187      348.461       28.175      860.160
08/11/2013  15:16:00      125.876       97.573       25.828       75.845       50.026       43.325     5752.468     2502.596     1877.049        1.808        0.507      159.265       38.265        0.058      348.154       27.641      860.154
08/11/2013  15:17:00       -1.165       66.296       -7.111       44.559       37.631       23.868     1985.524     1416.104      569.690        0.421        0.199       66.307       19.731        0.089      348.159       27.651      860.148
08/11/2013  15:18:00      -19.858      104.337      -15.051       30.516       42.413       20.962      931.214     1798.826      439.391        0.734        0.158      106.210       13.232        0.016      348.144       27.626      860.155
08/11/2013  15:19:00        3.916       96.314      -25.737       30.483       35.409       22.360      929.221     1253.809      499.981        0.632        0.134       96.394       17.027        0.031      348.182       27.690      860.152
08/11/2013  15:20:00        5.653       74.829       -1.731       37.261       48.389       37.854     1388.358     2341.480     1432.952        0.540        0.258       75.043       29.401        0.153      348.641       28.484      860.139
08/11/2013  15:21:00      -23.420       90.824        3.103       41.927       51.881       37.045     1757.901     2691.656     1372.328        0.731        0.291       93.795       34.446        0.135      348.521       28.279      860.141
08/11/2013  15:22:00       29.327       42.508        8.695       22.320       26.626       28.744      498.189      708.957      826.208        0.239        0.102       51.643        7.984        0.024      348.540       28.310      860.133
08/11/2013  15:23:00        4.823       42.727       26.704       34.182       34.611       28.359     1168.437     1197.943      804.220        0.287        0.159       42.998       23.595        0.301      348.688       28.566      860.120
08/11/2013  15:24:00       77.082       41.354       49.906       81.127       76.420       49.705     6581.665     5839.986     2470.576        1.251        0.745       87.474       45.041        0.265      348.528       28.289      860.097
08/11/2013  15:25:00      101.246       -9.118       52.595       79.388      108.906       69.767     6302.486    11860.591     4867.458        1.806        1.152      101.656       79.640        0.614      348.161       27.652      860.069
08/11/2013  15:26:00       62.567        4.651        0.580       63.718       57.182       30.384     4059.971     3269.725      923.165        0.609        0.413       62.739       30.376        0.234      348.218       27.753      860.061
08/11/2013  15:27:00      110.119       88.652       43.532       31.469       20.027       23.545      990.300      401.097      554.351        1.191        0.097      141.370       14.919        0.011      348.206       27.732      860.035
08/11/2013  15:28:00       -8.560       18.641        9.850       58.369       39.259       34.816     3406.957     1541.297     1212.181        0.334        0.308       20.513       23.216        1.281      348.632       28.471      860.026
08/11/2013  15:29:00       14.758       18.087       10.421       16.098       13.255       25.308      259.141      175.686      640.487        0.086        0.054       23.343        8.811        0.142      348.752       28.677      860.038
08/11/2013  15:30:00      -55.107      -25.609        1.580       44.241       28.108       23.013     1957.247      790.075      529.603        0.349        0.164       60.766        4.797        0.006      348.692       28.574      860.042
08/11/2013  15:31:00      -41.716      -10.671       16.788       50.676       33.897       18.670     2568.106     1148.998      348.574        0.310        0.203       43.060       18.234        0.179      348.865       28.874      860.049
08/11/2013  15:32:00        8.707       10.378       38.108       53.255       32.274       28.133     2836.129     1041.589      791.480        0.315        0.233       13.547       24.685        3.320      348.416       28.096      860.043
08/11/2013  15:33:00       98.958       97.030       78.449       43.327       29.130       32.017     1877.242      848.555     1025.059        1.456        0.188      138.591       31.550        0.052      348.071       27.499      860.007
08/11/2013  15:34:00      102.636       22.968       18.980       63.327       62.433       34.906     4010.372     3897.869     1218.428        1.027        0.456      105.175       21.002        0.040      348.360       27.998      859.968
08/11/2013  15:35:00      -67.428      -23.214       37.220      170.965      102.127      106.917    29229.102    10429.927    11431.237        2.877        2.555       71.312      114.670        2.586      348.592       28.397      859.971
08/11/2013  15:36:00      -63.842     -120.515       -1.124       98.586       96.584       37.469     9719.153     9328.544     1403.912        1.952        1.023      136.380       35.272        0.067      348.810       28.778      859.997
08/11/2013  15:37:00      -98.661     -114.040        1.579      143.318       82.386       49.529    20539.927     6787.466     2453.130        2.626        1.489      150.795       55.578        0.136      348.624       28.454      859.991
08/11/2013  15:38:00     -109.940      -80.517       16.929      103.632       79.748       49.472    10739.659     6359.720     2447.483        1.920        0.977      136.271       36.045        0.070      348.610       28.430      860.010
08/11/2013  15:39:00      -15.472     -147.714       -1.555       62.591       81.278       42.893     3917.577     6606.049     1839.784        1.721        0.618      148.522       39.042        0.069      348.687       28.564      860.033
08/11/2013  15:40:00      -15.136     -126.282       -2.743       27.896       77.819       30.490      778.195     6055.774      929.618        1.197        0.388      127.186       36.297        0.081      348.395       28.058      860.002
08/11/2013  15:41:00       10.440       90.845      106.307       38.680       60.460       48.636     1496.138     3655.353     2365.460        1.359        0.376       91.443       45.674        0.249      348.084       27.523      859.959
08/11/2013  15:42:00       22.130       59.792       81.596       43.230       57.511       32.236     1868.828     3307.565     1039.167        0.847        0.311       63.756       27.486        0.186      347.814       27.055      859.932
08/11/2013  15:43:00       68.979      -24.918       47.875       45.730       41.724       44.229     2091.209     1740.873     1956.232        0.673        0.289       73.342       31.972        0.190      348.245       27.802      859.912
08/11/2013  15:44:00       26.809      -74.915       -2.970       30.880       43.920       22.238      953.552     1928.947      494.550        0.486        0.169       79.567       13.728        0.030      348.460       28.172      859.908
08/11/2013  15:45:00       22.007      -86.002        4.867       75.692       64.542       51.677     5729.323     4165.700     2670.475        1.023        0.628       88.773       41.349        0.217      348.508       28.254      859.901
08/11/2013  15:46:00      -32.325     -113.215      -22.803       63.224       57.047       44.861     3997.316     3254.405     2012.549        1.182        0.463      117.739       26.253        0.050      349.184       29.426      859.895
08/11/2013  15:47:00      -13.766      -54.545       23.030       78.244       80.914       41.472     6122.198     6547.076     1719.943        0.904        0.719       56.255       50.194        0.796      348.866       28.874      859.886
08/11/2013  15:48:00       75.707     -114.763       -5.826       51.520      137.284       54.184     2654.351    18846.920     2935.931        2.168        1.222      137.485       70.928        0.266      348.380       28.031      859.836
08/11/2013  15:49:00       34.619      -30.584        8.213       58.815       46.349       37.930     3459.230     2148.208     1438.665        0.462        0.352       46.193       28.645        0.385      348.853       28.851      859.834
08/11/2013  15:50:00     -168.748      -20.743      -21.534       89.386       82.366       52.327     7989.787     6784.145     2738.143        2.344        0.876      170.018       41.111        0.058      348.775       28.714      859.848
08/11/2013  15:51:00      -73.735       17.830        4.149       44.529       41.115       33.314     1982.844     1690.445     1109.835        0.528        0.239       75.860       32.275        0.181      348.767       28.704      859.830
08/11/2013  15:52:00      -41.992        2.787       22.910       43.681       42.477       33.090     1908.039     1804.272     1094.968        0.355        0.240       42.084       26.527        0.397      348.767       28.704      859.803
08/11/2013  15:53:00       -2.037      -34.830        8.972       43.959       39.650       33.875     1932.353     1572.155     1147.538        0.297        0.233       34.889       23.689        0.461      348.759       28.691      859.797
08/11/2013  15:54:00       63.693     -183.555       12.606       94.101      112.466       77.134     8854.987    12648.664     5949.673        3.268        1.373      194.292       76.854        0.156      348.870       28.879      859.774
08/11/2013  15:55:00      -29.840      -84.221       18.703       78.723      112.684       78.696     6197.247    12697.588     6193.121        1.671        1.254       89.351       56.622        0.402      348.832       28.816      859.748
08/11/2013  15:56:00       25.666      -92.405        7.946       91.074       79.705       45.936     8294.427     6352.916     2110.094        1.301        0.838       95.903       37.882        0.156      348.527       28.287      859.772
08/11/2013  15:57:00      105.963     -106.645        8.573      109.439      131.508       59.983    11976.813    17294.410     3598.002        2.777        1.643      150.338       81.271        0.292      348.543       28.313      859.751
08/11/2013  15:58:00        7.788      -61.426       32.392       66.621       73.181       53.104     4438.340     5355.400     2819.996        0.875        0.631       61.918       57.313        0.857      348.520       28.276      859.746
08/11/2013  15:59:00      -78.076     -108.969        2.030       89.151       71.653       38.394     7947.836     5134.194     1474.090        1.626        0.728      134.053       32.430        0.059      348.807       28.772      859.745
08/11/2013  16:00:00       -8.883      -45.919       10.098       40.405       55.136       30.520     1632.598     3040.015      931.462        0.395        0.280       46.770       29.029        0.385      348.840       28.830      859.753
08/11/2013  16:01:00       -9.033      -26.455       20.598       39.348       32.170       26.894     1548.244     1034.884      723.301        0.226        0.165       27.954       22.613        0.654      349.362       29.735      859.754
08/11/2013  16:02:00     -186.716     -157.752       -1.650      115.731       85.180       49.863    13393.586     7255.613     2486.313        4.144        1.157      244.436       49.202        0.041      348.658       28.512      859.740
08/11/2013  16:03:00     -177.709     -143.507        0.598       99.291       81.737       43.024     9858.644     6681.006     1851.028        3.528        0.920      228.418       37.414        0.027      348.580       28.377      859.731
08/11/2013  16:04:00      -39.724      -43.637        7.742       64.602       35.439       30.795     4173.452     1255.918      948.344        0.496        0.319       59.010       39.532        0.449      348.770       28.709      859.725
08/11/2013  16:05:00      -24.447      -69.650       10.330       66.343       60.741       28.830     4401.374     3689.451      831.159        0.724        0.446       73.815       31.499        0.182      349.030       29.159      859.719
08/11/2013  16:06:00      -82.334     -131.448       -2.183       86.564      130.391       47.872     7493.315    17001.796     2291.728        2.542        1.339      155.105       27.684        0.032      348.680       28.552      859.739
08/11/2013  16:07:00      -72.941     -162.286      -16.224       52.853       63.376       29.880     2793.419     4016.535      892.791        1.981        0.385      177.925       23.743        0.018      348.499       28.239      859.724
08/11/2013  16:08:00      -44.963     -123.576      -22.404       63.201       58.593       37.711     3994.323     3433.095     1422.144        1.332        0.442      131.502       27.615        0.044      348.686       28.563      859.711
08/11/2013  16:09:00       16.550      -73.730        1.021       53.708       80.733       44.690     2884.592     6517.750     1997.169        0.855        0.570       75.565       49.261        0.425      348.761       28.692      859.692
08/11/2013  16:10:00       -1.703      -21.691       11.941       33.029       65.396       30.953     1090.910     4276.615      958.082        0.347        0.316       21.758       35.876        2.719      348.795       28.752      859.658
08/11/2013  16:11:00      -17.636      -43.820       18.097       72.825       60.743       36.677     5303.495     3689.734     1345.175        0.645        0.517       47.236       29.575        0.392      348.616       28.441      859.653
08/11/2013  16:12:00      -94.692      -63.944       -5.482      112.953       69.957       35.702    12758.295     4894.005     1274.625        1.600        0.946      114.260       31.707        0.077      349.218       29.484      859.649
08/11/2013  16:13:00      -95.330     -142.378       -2.611       82.640       89.334       41.239     6829.452     7980.533     1700.620        2.294        0.826      171.345       30.692        0.032      348.868       28.878      859.658
08/11/2013  16:14:00     -219.665      -79.032      -10.084       87.926       83.470       47.396     7731.030     6967.246     2246.391        3.577        0.847      233.449       31.567        0.018      348.789       28.738      859.645
08/11/2013  16:15:00     -177.953      -45.079       11.658       91.853       64.566       43.501     8437.036     4168.796     1892.343        2.416        0.725      183.574       46.108        0.063      348.965       29.045      859.626
08/11/2013  16:16:00     -103.260      -85.643       20.465      103.281       97.727       45.654    10667.064     9550.549     2084.310        2.036        1.115      134.155       45.959        0.117      348.964       29.042      859.638
08/11/2013  16:17:00      -39.907        2.110       12.440       57.242       35.433       29.337     3276.639     1255.506      860.688        0.357        0.270       39.963       19.348        0.234      349.026       29.151      859.623
08/11/2013  16:18:00        8.689      -98.760        0.343       50.178       76.352       51.808     2517.860     5829.646     2684.019        1.043        0.552       99.142       35.968        0.132      348.846       28.838      859.591
08/11/2013  16:19:00       33.809      -27.779       36.711       46.515       65.441       45.527     2163.605     4282.463     2072.748        0.589        0.426       43.757       42.664        0.951      348.698       28.584      859.567
08/11/2013  16:20:00      125.827     -175.000      -11.411       82.612      132.991       65.896     6824.686    17686.492     4342.256        3.772        1.443      215.540       74.457        0.119      348.570       28.361      859.566
08/11/2013  16:21:00      145.443     -252.821       -6.089       45.728       99.915       45.093     2091.061     9982.923     2033.410        4.961        0.705      291.671       39.537        0.018      348.354       27.981      859.568
08/11/2013  16:22:00      112.012     -119.871        7.908       56.338       90.686       58.736     3173.920     8224.027     3449.972        2.091        0.742      164.060       59.096        0.130      348.429       28.116      859.545
08/11/2013  16:23:00       75.348        2.429       73.014       79.158       59.600       44.456     6266.039     3552.215     1976.374        1.140        0.590       75.387       49.775        0.436      348.637       28.479      859.521
08/11/2013  16:24:00       30.899       -6.895       60.501       76.371       50.696       43.014     5832.462     2570.059     1850.175        0.746        0.513       31.659       40.272        1.618      348.749       28.672      859.504
08/11/2013  16:25:00      106.333       39.874       77.537       63.099       54.752       55.523     3981.481     2997.781     3082.789        1.448        0.503      113.563       37.516        0.109      348.388       28.047      859.498
08/11/2013  16:26:00       68.717      185.640      231.662      141.642      260.824      255.018    20062.428    68029.149    65034.267       12.296        7.656      197.950      248.490        1.576      348.372       28.016      859.387
08/11/2013  16:27:00     -227.261      192.011      -17.734      164.374      131.226      115.596    27018.731    17220.262    13362.426        7.321        2.880      297.516      110.556        0.138      348.874       28.885      859.353
08/11/2013  16:28:00     -102.482      -38.306        1.896      144.155       83.319       59.444    20780.522     6941.978     3533.614        2.161        1.563      109.408       59.668        0.297      349.192       29.439      859.518
08/11/2013  16:29:00     -288.095       29.876      -18.217       92.147       93.806       53.127     8491.147     8799.479     2822.488        5.216        1.006      289.640       42.511        0.022      349.125       29.320      859.515
08/11/2013  16:30:00     -275.783     -101.844      -30.748      108.324       88.327       59.415    11734.051     7801.672     3530.125        5.522        1.153      293.987       67.409        0.053      349.054       29.196      859.517
08/11/2013  16:31:00     -263.630     -176.845        6.723      140.412      140.531       54.524    19715.478    19748.986     2972.913        7.162        2.122      317.451       56.479        0.032      348.855       28.853      859.504
08/11/2013  16:32:00     -138.684     -169.324       13.362      127.760      102.495       56.696    16322.611    10505.147     3214.483        3.906        1.502      218.869       65.637        0.090      348.766       28.699      859.485
08/11/2013  16:33:00     -239.508      -69.897       -4.827       87.169       88.915       38.328     7598.373     7905.874     1469.052        3.962        0.849      249.499       34.491        0.019      349.019       29.136      859.482
08/11/2013  16:34:00     -268.390      -67.197       -0.183      121.293       87.717       52.505    14712.078     7694.206     2756.788        5.085        1.258      276.675       60.751        0.048      349.143       29.352      859.491
08/11/2013  16:35:00     -157.366      -91.639       -0.006      140.023      106.400       47.885    19606.517    11320.901     2292.973        3.319        1.661      182.104       46.657        0.066      349.272       29.575      859.484
08/11/2013  16:36:00     -361.232     -244.323       -9.232      203.409      151.791       84.075    41375.235    23040.655     7068.650       13.086        3.574      436.099       94.435        0.047      349.133       29.333      859.492
08/11/2013  16:37:00     -337.294     -255.461        0.536      187.064      211.640       95.063    34993.070    44791.545     9036.923       13.391        4.441      423.117       81.803        0.037      348.743       28.658      859.490
08/11/2013  16:38:00     -357.854     -251.943      -10.831      192.765      113.214       80.514    37158.155    12817.307     6482.531       12.405        2.823      437.647       79.836        0.033      348.834       28.815      859.495
08/11/2013  16:39:00     -169.102      -74.641       -1.446      137.068      102.620       53.264    18787.719    10530.916     2837.042        3.316        1.608      184.842       54.739        0.088      349.143       29.352      859.517
08/11/2013  16:40:00     -238.407     -150.421       21.746      156.823      145.755       83.565    24593.382    21244.484     6983.031        6.637        2.641      281.894       91.503        0.105      349.091       29.260      859.540
08/11/2013  16:41:00     -330.010      -77.964       -9.698      210.022      174.148       80.221    44109.443    30327.521     6435.395        9.796        4.044      339.095       76.656        0.051      348.917       28.958      859.549
08/11/2013  16:42:00     -420.082     -185.689       -3.107      243.270      171.327       78.573    59180.468    29352.813     6173.715       15.282        4.735      459.292       90.363        0.039      348.640       28.480      859.578
08/11/2013  16:43:00     -116.941     -304.332       -9.444      191.352      138.598       61.954    36615.417    19209.387     3838.326        8.301        2.983      326.026       65.854        0.041      348.443       28.138      859.595
08/11/2013  16:44:00     -232.950     -137.541       -6.154      100.444       78.314       59.517    10088.944     6133.067     3542.298        4.649        0.988      270.524       52.374        0.037      348.665       28.524      859.544
08/11/2013  16:45:00     -186.148      -98.603       -5.267       68.823       73.701       42.281     4736.597     5431.840     1787.708        2.818        0.598      210.651       36.093        0.029      348.800       28.758      859.584
08/11/2013  16:46:00     -187.545     -129.807        5.300      116.925       83.065       54.837    13671.420     6899.864     3007.131        3.781        1.179      228.085       59.343        0.068      349.021       29.141      859.595
08/11/2013  16:47:00     -144.128      -88.505       -8.579      138.658       92.289       62.978    19226.032     8517.291     3966.237        3.019        1.585      169.133       46.638        0.076      349.136       29.340      859.601
08/11/2013  16:48:00     -174.731     -148.449       -8.841      118.223       90.848       60.007    13976.762     8253.313     3600.893        3.923        1.292      229.277       46.909        0.042      348.794       28.746      859.598
08/11/2013  16:49:00      -53.899     -133.749       12.327       67.901       52.157       37.037     4610.484     2720.380     1371.729        1.482        0.435      144.201       27.028        0.035      348.612       28.435      859.560
08/11/2013  16:50:00     -175.050      -27.049      -10.404      129.779       98.915       40.852    16842.665     9784.097     1668.847        2.988        1.415      177.128       43.786        0.061      348.862       28.865      859.536
08/11/2013  16:51:00     -272.388       19.687      -32.973       90.308      118.476       53.868     8155.489    14036.497     2901.796        5.038        1.255      273.099       50.553        0.034      348.824       28.797      859.513
08/11/2013  16:52:00     -129.637      -37.159       -3.087      101.720      108.611       46.206    10347.004    11796.435     2135.026        2.123        1.214      134.858       42.222        0.098      348.898       28.929      859.513
08/11/2013  16:53:00     -105.423     -113.946        4.258       76.432       73.913       48.334     5841.925     5463.128     2336.197        1.888        0.682      155.234       46.899        0.091      349.081       29.245      859.544
08/11/2013  16:54:00     -289.602      -43.962      -24.102      226.575       91.253       69.697    51336.181     8327.086     4857.725        7.544        3.226      292.920       88.775        0.092      349.112       29.297      859.516
08/11/2013  16:55:00     -444.323     -215.394      -18.234      206.704      154.987       94.185    42726.603    24021.098     8870.858       15.987        3.781      493.778      113.091        0.052      348.782       28.727      859.492
08/11/2013  16:56:00     -161.388      -44.120       -0.029       91.779       89.057       47.498     8423.416     7931.206     2256.089        2.330        0.931      167.310       43.244        0.067      349.046       29.184      859.518
08/11/2013  16:57:00     -197.532      -28.795       14.184      172.909      116.751       64.242    29897.500    13630.871     4127.033        4.384        2.383      199.620       72.156        0.131      349.263       29.560      859.514
08/11/2013  16:58:00     -363.481     -242.848        6.423      209.459      172.064       93.311    43873.232    29606.142     8707.013       13.665        4.109      437.143      104.561        0.057      348.921       28.966      859.523
08/11/2013  16:59:00     -282.063     -152.002        0.649      186.861      162.086       72.163    34917.135    26271.985     5207.563        8.452        3.320      320.412       83.364        0.068      348.878       28.893      859.524
08/11/2013  17:00:00     -253.452     -187.279       15.208      177.791      128.682       79.753    31609.625    16559.117     6360.608        7.703        2.726      315.137       91.136        0.084      348.847       28.838      859.506
08/11/2013  17:01:00     -250.318     -125.925       10.028      149.869      113.691       69.155    22460.721    12925.624     4782.376        5.939        2.008      280.207       73.020        0.068      348.886       28.907      859.504
08/11/2013  17:02:00     -359.437      -88.777      -12.129      184.298      143.690       69.791    33965.771    20646.847     4870.778        9.834        2.974      370.238       81.785        0.049      348.845       28.835      859.506
08/11/2013  17:03:00     -368.892     -191.968      -17.760      149.415      159.465       73.598    22324.879    25429.076     5416.709       11.320        2.659      415.852       79.911        0.037      348.612       28.433      859.488
08/11/2013  17:04:00     -322.242     -179.202      -10.588      171.360      126.101       72.075    29364.172    15901.400     5194.846        9.325        2.523      368.718       73.402        0.040      348.672       28.537      859.483
08/11/2013  17:05:00     -239.939     -158.603      -19.203      103.016       98.134       56.909    10612.398     9630.233     3238.638        5.328        1.174      287.620       45.537        0.025      348.886       28.904      859.500
08/11/2013  17:06:00     -187.479        9.060       -1.018      136.496      105.103       54.585    18631.147    11046.718     2979.510        3.394        1.633      187.698       50.294        0.072      348.963       29.040      859.502
08/11/2013  17:07:00     -422.961      -54.284      -27.026      147.895      138.689       68.685    21872.886    19234.736     4717.571       11.419        2.291      426.430       80.788        0.036      348.795       28.748      859.505
08/11/2013  17:08:00     -337.988     -131.142       -8.760      178.753      116.361       70.746    31952.612    13539.994     5005.022        9.100        2.525      362.538       77.396        0.046      348.597       28.405      859.505
08/11/2013  17:09:00     -417.518       33.057      -30.071      106.471      148.339       57.267    11336.163    22004.450     3279.518       10.646        1.831      418.825       44.492        0.011      348.654       28.503      859.494
08/11/2013  17:10:00     -228.335       27.295      -21.919      118.318      115.579       49.593    13999.122    13358.411     2459.472        4.158        1.491      229.961       50.421        0.048      348.711       28.603      859.482
08/11/2013  17:11:00     -151.763     -102.686        2.478      119.843       85.330       54.940    14362.345     7281.265     3018.397        2.912        1.233      183.239       64.772        0.125      348.767       28.700      859.491
08/11/2013  17:12:00     -221.273     -176.584        9.478      156.513      109.970       73.204    24496.351    12093.472     5358.792        6.108        2.097      283.097       86.014        0.092      348.939       28.998      859.494
08/11/2013  17:13:00     -309.782     -155.873      -15.007      204.391      157.648       87.103    41775.769    24852.795     7586.998        9.734        3.711      346.787       95.360        0.076      348.793       28.745      859.473
08/11/2013  17:14:00     -353.628      -43.874      -30.154      134.966      171.537       68.311    18215.777    29424.962     4666.365        9.009        2.615      356.339       59.597        0.028      348.852       28.846      859.479
08/11/2013  17:15:00     -422.524     -100.451      -43.599      169.942      125.393       70.925    28880.138    15723.416     5030.313       12.007        2.482      434.300       81.217        0.035      348.734       28.642      859.469
08/11/2013  17:16:00     -351.734     -211.614      -16.938      182.094      134.943       81.440    33158.319    18209.542     6632.515       11.338        2.900      410.485       74.182        0.033      348.864       28.868      859.454
08/11/2013  17:17:00     -408.329     -120.802      -15.224      170.103      124.676       69.021    28934.868    15544.027     4763.945       11.539        2.462      425.824       53.143        0.016      348.945       29.008      859.499
08/11/2013  17:18:00     -305.190       -9.348      -14.355      172.916      124.661       69.690    29899.902    15540.473     4856.720        7.186        2.515      305.333       80.336        0.069      349.002       29.107      859.518
08/11/2013  17:19:00     -198.404     -103.792       13.363      198.003      139.391       83.443    39204.995    19429.954     6962.732        5.795        3.280      223.913       84.703        0.143      349.014       29.128      859.511
08/11/2013  17:20:00     -242.495      -89.014        5.705      206.162      154.749       89.998    42502.783    23947.210     8099.605        7.064        3.727      258.316       98.219        0.145      348.783       28.728      859.534
08/11/2013  17:21:00     -215.409      -28.469       -5.939      154.625      153.483       67.537    23908.837    23557.050     4561.257        4.963        2.601      217.282       55.276        0.065      348.895       28.922      859.550
08/11/2013  17:22:00     -361.286     -187.328      -36.050      184.949      116.584       83.400    34206.056    13591.760     6955.482       11.083        2.738      406.963       67.793        0.028      348.681       28.551      859.508
08/11/2013  17:23:00     -382.920     -155.859      -18.233      213.118      137.612       79.461    45419.178    18937.008     6314.044       12.095        3.534      413.425       73.963        0.032      348.620       28.446      859.523
08/11/2013  17:24:00     -262.091      -25.065       -8.812      188.646      111.610       69.857    35587.323    12456.689     4879.987        6.115        2.646      263.287       75.107        0.081      348.762       28.691      859.542
08/11/2013  17:25:00     -422.029       65.179      -38.845      117.046      101.507       52.687    13699.774    10303.764     2775.924       10.532        1.339      427.032       50.055        0.014      348.585       28.385      859.552
08/11/2013  17:26:00     -180.994      -55.526       -9.465      151.130      127.066       60.484    22840.361    16145.824     3658.348        3.928        2.132      189.320       63.767        0.113      348.752       28.675      859.530
08/11/2013  17:27:00     -217.942      -70.015       -6.047      148.579       85.818       73.446    22075.672     7364.671     5394.360        4.363        1.742      228.913       75.918        0.110      348.698       28.583      859.514
08/11/2013  17:28:00     -280.184      -81.028      -35.000      110.589       90.056       57.531    12229.817     8110.014     3309.819        5.497        1.182      291.665       51.068        0.031      348.696       28.577      859.525
08/11/2013  17:29:00     -320.011     -119.683      -24.743       96.993      102.896       52.896     9407.573    10587.614     2798.033        7.006        1.140      341.659       44.768        0.017      348.811       28.775      859.566
08/11/2013  17:30:00     -128.640     -100.654       18.498      153.833      125.981       75.748    23664.619    15871.213     5737.818        3.614        2.264      163.339       80.639        0.244      348.780       28.723      859.553
08/11/2013  17:31:00     -265.660     -185.493       -1.626      151.729      111.425       74.043    23021.783    12415.639     5482.396        7.295        2.046      324.011       75.818        0.055      348.653       28.503      859.551
08/11/2013  17:32:00     -233.516     -109.779       -6.316      101.890       77.624       49.612    10381.575     6025.481     2461.345        4.274        0.943      258.033       59.388        0.053      348.793       28.745      859.572
08/11/2013  17:33:00     -162.822      -36.771        2.328      102.993       75.831       50.325    10607.467     5750.325     2532.642        2.338        0.945      166.923       51.223        0.094      348.924       28.972      859.566
08/11/2013  17:34:00     -211.186        2.662       -0.301      152.519      110.278       68.694    23261.922    12161.218     4718.810        4.237        2.007      211.203       89.090        0.178      348.927       28.977      859.563
08/11/2013  17:35:00     -178.137      -99.974       13.045      153.076      102.484       65.400    23432.318    10503.034     4277.130        4.005        1.911      204.273       67.093        0.108      348.749       28.669      859.576
08/11/2013  17:36:00     -357.766     -113.154      -24.884      164.126      136.068       74.914    26937.399    18514.627     5612.120        9.623        2.553      375.234       81.777        0.047      348.562       28.346      859.595
08/11/2013  17:37:00     -245.572      -58.300      -10.842      118.062      118.094       55.829    13938.627    13946.182     3116.900        4.741        1.550      252.397       59.274        0.055      348.700       28.585      859.608
08/11/2013  17:38:00     -465.512       14.633      -21.440      322.900      188.103       83.445   104264.417    35382.710     6963.058       18.197        7.331      465.742      143.712        0.095      348.486       28.216      859.592
08/11/2013  17:39:00     -404.971     -231.363      -16.785      199.173      183.698      105.791    39670.026    33744.983    11191.640       15.119        4.230      466.401      109.429        0.055      348.470       28.185      859.603
08/11/2013  17:40:00     -324.707      -12.532      -13.698      135.641       85.324       60.149    18398.529     7280.208     3617.943        6.753        1.465      324.949       44.275        0.019      348.464       28.175      859.655
08/11/2013  17:41:00     -207.120     -128.951        1.553       89.416      122.576       59.129     7995.236    15024.947     3496.223        4.302        1.326      243.982       52.161        0.046      348.604       28.419      859.654
08/11/2013  17:42:00     -128.839     -115.361        2.276       99.675      121.163       50.800     9935.187    14680.509     2580.623        2.855        1.360      172.938       54.503        0.099      348.574       28.367      859.645
08/11/2013  17:43:00     -177.558     -101.888       -4.678      123.607       87.984       48.174    15278.739     7741.181     2320.692        3.363        1.267      204.714       44.467        0.047      348.526       28.283      859.641
08/11/2013  17:44:00     -164.106     -141.364       -6.269       79.925       71.435       61.315     6387.955     5102.896     3759.544        3.110        0.763      216.597       44.851        0.043      348.537       28.301      859.659
08/11/2013  17:45:00     -288.320       12.864      -27.072      155.992      127.237       49.569    24333.376    16189.169     2457.130        6.350        2.149      288.607       58.827        0.042      348.610       28.427      859.644
08/11/2013  17:46:00     -199.459      -16.482      -26.746       90.145       74.503       27.139     8126.094     5550.652      736.533        2.759        0.721      200.139       26.801        0.018      348.411       28.087      859.636
08/11/2013  17:47:00     -259.821      -60.319       -9.024      146.433      126.683       55.714    21442.496    16048.623     3104.043        5.590        2.030      266.731       22.758        0.007      348.675       28.543      859.614
08/11/2013  17:48:00     -243.288     -114.037      -26.151      132.033      102.137       55.690    17432.759    10431.992     3101.418        5.192        1.548      268.688       42.734        0.025      348.537       28.302      859.583
08/11/2013  17:49:00     -166.750     -140.589        5.903      157.158      106.115       68.473    24698.793    11260.446     4688.576        4.412        2.032      218.107       73.904        0.115      348.615       28.436      859.588
08/11/2013  17:50:00     -246.373     -160.417       -6.396      170.433       98.189       61.496    29047.358     9641.035     3781.765        6.447        2.124      293.996       58.570        0.040      348.550       28.324      859.589
08/11/2013  17:51:00     -202.294     -168.866       15.618      191.539      115.590       85.926    36687.086    13361.112     7383.308        6.355        2.872      263.512      101.345        0.148      348.450       28.152      859.575
08/11/2013  17:52:00     -265.061     -153.306        2.091      165.954      136.914       67.669    27540.731    18745.314     4579.047        7.231        2.543      306.203       79.558        0.068      348.402       28.067      859.564
08/11/2013  17:53:00     -328.748     -231.736       -3.931      234.241      162.840      103.935    54868.961    26516.768    10802.452       12.697        4.609      402.215      108.846        0.073      348.268       27.836      859.527
08/11/2013  17:54:00     -168.547     -133.927        3.616      174.484      120.134       84.406    30444.595    14432.239     7124.330        4.917        2.600      215.278       87.317        0.165      348.367       28.009      859.525
08/11/2013  17:55:00     -271.606     -128.443        8.587      202.248      119.473       83.847    40904.156    14273.816     7030.329        7.626        3.110      300.446       97.344        0.105      348.394       28.055      859.561
08/11/2013  17:56:00     -203.095     -156.891       -4.394      171.410      126.023       85.612    29381.334    15881.705     7329.395        5.923        2.630      256.636       95.706        0.139      348.398       28.062      859.573
08/11/2013  17:57:00     -205.983     -185.012       -4.244      174.658      132.563       81.234    30505.392    17572.959     6598.955        6.567        2.734      276.873       96.536        0.122      348.327       27.938      859.563
08/11/2013  17:58:00     -251.875     -146.849       -1.708      187.530      127.512       61.978    35167.636    16259.361     3841.300        7.013        2.763      291.557       94.326        0.105      348.234       27.779      859.559
08/11/2013  17:59:00     -365.221     -110.864       -3.689      162.987      123.951       67.695    26564.661    15363.905     4582.672        9.609        2.326      381.677       59.308        0.024      348.291       27.876      859.558
08/11/2013  18:00:00     -349.461     -201.859      -39.453      179.592      118.324       82.128    32253.337    14000.561     6745.066       10.870        2.650      403.572       93.375        0.054      348.226       27.763      859.547
08/11/2013  18:01:00     -270.272     -114.364       -2.819      189.196      148.253       91.105    35795.117    21978.813     8300.193        7.609        3.304      293.473      101.809        0.120      348.270       27.841      859.548
08/11/2013  18:02:00     -206.139      -25.660        6.566      141.040      114.250       66.861    19892.406    13052.994     4470.446        4.030        1.871      207.730       65.291        0.099      348.399       28.063      859.594
08/11/2013  18:03:00     -238.513      -93.245       -3.522      159.060      160.974       67.973    25300.212    25912.686     4620.296        6.070        2.792      256.092       80.763        0.099      348.320       27.928      859.598
08/11/2013  18:04:00     -381.030     -187.799      -24.753      194.156      148.747       79.932    37696.597    22125.758     6389.052       12.363        3.311      424.797       76.090        0.032      348.180       27.684      859.602
08/11/2013  18:05:00     -230.274     -202.338       -5.686      115.513      127.785       71.840    13343.341    16328.940     5161.025        6.441        1.742      306.540       69.445        0.051      348.187       27.697      859.616
08/11/2013  18:06:00     -202.394      -13.579       13.992      158.509      117.536       69.492    25125.151    13814.722     4829.134        4.255        2.188      202.849       65.706        0.105      348.377       28.026      859.626
08/11/2013  18:07:00     -236.639       -5.457       11.204      123.241      114.712       57.794    15188.222    13158.834     3340.113        4.392        1.584      236.702       63.138        0.071      348.325       27.936      859.614
08/11/2013  18:08:00     -219.701      -33.264        7.262      131.147       87.040       64.150    17199.524     7575.949     4115.190        3.915        1.445      222.204       67.875        0.093      348.263       27.828      859.606
08/11/2013  18:09:00     -246.253     -107.478        2.595      155.972      126.115       72.404    24327.125    15904.935     5242.321        5.883        2.274      268.686       76.710        0.082      348.319       27.926      859.634
08/11/2013  18:10:00     -477.242      -84.902      -23.824      189.738      116.214       76.609    36000.559    13505.805     5868.875       14.545        2.769      484.735       92.066        0.036      348.177       27.680      859.627
08/11/2013  18:11:00     -250.444     -194.890       -2.815      160.608      136.643       81.214    25794.900    18671.311     6595.754        7.588        2.553      317.339       98.169        0.096      348.247       27.800      859.644
08/11/2013  18:12:00     -424.704     -199.896      -11.830      215.915      176.112       93.675    46619.472    31015.603     8774.945       15.343        4.321      469.395      107.198        0.052      348.120       27.580      859.641
08/11/2013  18:13:00     -363.711     -133.032      -14.845      168.811      137.135       76.032    28497.049    18806.028     5780.935       10.163        2.654      387.276       82.387        0.045      348.129       27.596      859.647
08/11/2013  18:14:00     -264.912     -115.043       -1.448      190.353      171.646       84.397    36234.344    29462.264     7122.902        7.811        3.641      288.813       93.034        0.104      348.163       27.656      859.662
08/11/2013  18:15:00     -376.707     -174.723        5.218      205.062      100.690       86.473    42050.589    10138.400     7477.631       11.605        2.983      415.254      101.195        0.059      348.067       27.488      859.667
08/11/2013  18:16:00     -368.398     -227.746      -22.324      173.112      150.351       74.369    29967.730    22605.277     5530.752       12.308        2.905      433.111       71.758        0.027      348.033       27.430      859.672
08/11/2013  18:17:00     -269.548     -169.140       -0.965      180.152      143.388       79.968    32454.908    20560.115     6394.875        8.033        2.970      318.221       90.773        0.081      348.100       27.545      859.672
08/11/2013  18:18:00     -427.771     -168.941      -10.532      211.712      140.454       88.830    44821.839    19727.336     7890.751       14.203        3.622      459.924      105.637        0.053      347.981       27.340      859.677
08/11/2013  18:19:00     -282.024     -199.213        5.033      198.839      170.627      104.972    39536.964    29113.484    11019.080        9.945        3.983      345.288      101.866        0.087      347.935       27.261      859.680
08/11/2013  18:20:00     -378.514     -253.515      -15.603      175.857      138.229       97.943    30925.600    19107.133     9592.861       13.370        2.981      455.568      103.845        0.052      347.886       27.177      859.677
08/11/2013  18:21:00     -320.845     -228.239       12.726      252.775      199.015      111.425    63895.064    39606.911    12415.592       13.554        5.796      393.744      139.113        0.125      347.865       27.141      859.655
08/11/2013  18:22:00     -473.519     -232.584      -28.332      260.936      176.815      106.154    68087.561    31263.611    11268.661       19.485        5.531      527.556      118.077        0.050      347.789       27.009      859.678
08/11/2013  18:23:00     -200.638     -117.151        1.420      192.325      153.432       83.820    36988.856    23541.391     7025.716        6.076        3.378      232.335       96.219        0.172      347.888       27.181      859.686
08/11/2013  18:24:00     -394.300      -42.066      -19.239      152.319      110.701       65.811    23200.943    12254.661     4331.127        9.869        1.989      396.537       69.247        0.030      347.893       27.189      859.690
08/11/2013  18:25:00     -371.793      -77.393      -17.812      146.150      138.308       81.375    21359.740    19129.088     6621.881        9.582        2.356      379.762       76.266        0.040      347.906       27.210      859.697
08/11/2013  18:26:00     -367.603      -27.317      -13.612      263.595      155.364       84.590    69482.098    24138.116     7155.397       11.840        5.039      368.617      112.422        0.093      347.922       27.238      859.705
08/11/2013  18:27:00     -471.748      -63.781      -17.413      190.925      155.020       93.020    36452.169    24031.313     8652.809       14.802        3.457      476.040       92.064        0.037      347.839       27.095      859.712
08/11/2013  18:28:00     -343.311     -149.592        3.014      223.031      151.046       74.709    49743.028    22814.915     5581.441       10.918        3.907      374.487       83.948        0.050      347.849       27.112      859.713
08/11/2013  18:29:00     -373.437     -196.356      -22.098      194.554      126.655       75.104    37851.149    16041.459     5640.642       11.901        2.977      421.914       92.154        0.048      347.749       26.941      859.727
08/11/2013  18:30:00     -375.641     -206.161       -6.617      202.539      181.726       76.488    41022.155    33024.324     5850.470       13.176        3.995      428.495       98.869        0.053      347.735       26.917      859.733
08/11/2013  18:31:00     -392.367     -141.564      -19.989      189.332      166.624       81.787    35846.440    27763.720     6689.106       12.233        3.515      417.124       81.343        0.038      347.751       26.945      859.751
08/11/2013  18:32:00     -343.110      -90.782      -12.081      177.342      139.434       92.588    31450.017    19441.760     8572.489        9.278        2.973      354.917      100.394        0.080      347.731       26.909      859.739
08/11/2013  18:33:00     -419.823      -93.261      -38.687      177.994      144.508       82.812    31681.717    20882.460     6857.770       12.292        2.971      430.057       78.782        0.034      347.679       26.819      859.758
08/11/2013  18:34:00     -262.367      -86.373       27.658      172.415      131.691       77.192    29727.065    17342.602     5958.594        6.504        2.651      276.218       81.153        0.086      347.739       26.922      859.760
08/11/2013  18:35:00     -467.968     -112.237      -41.219      141.697      174.644       79.500    20078.181    30500.366     6320.280       14.509        2.845      481.239       71.666        0.022      347.645       26.761      859.747
08/11/2013  18:36:00     -281.012      -97.837       -5.589      193.528      118.001       78.242    37452.915    13924.268     6121.860        7.303        2.875      297.557       90.825        0.093      347.732       26.910      859.760
08/11/2013  18:37:00     -277.147      -54.168       -1.368      157.068       98.775       67.381    24670.490     9756.492     4540.239        5.935        1.948      282.391       72.367        0.066      347.746       26.936      859.785
08/11/2013  18:38:00     -281.018     -121.667        7.796      209.038      146.953       74.872    43696.956    21595.240     5605.876        8.235        3.545      306.225       82.116        0.072      347.678       26.819      859.770
08/11/2013  18:39:00     -342.943     -252.105        7.542      274.140      188.661      123.734    75152.837    35592.799    15310.014       15.362        6.303      425.637      138.811        0.106      347.617       26.713      859.780
08/11/2013  18:40:00     -303.258     -224.353      -16.077      200.983      140.742       98.928    40394.289    19808.270     9786.775       10.626        3.499      377.227      108.696        0.083      347.586       26.661      859.791
08/11/2013  18:41:00     -284.163     -189.608       -7.553      159.011      164.377       74.703    25284.610    27019.828     5580.464        8.731        2.894      341.614       78.356        0.053      347.620       26.717      859.811
08/11/2013  18:42:00     -394.116     -166.358      -17.539      186.918      165.285       91.682    34938.329    27319.040     8405.666       12.697        3.533      427.788       95.190        0.050      347.546       26.589      859.802
08/11/2013  18:43:00     -387.798     -217.413      -11.209      236.418      192.361       98.406    55893.276    37002.607     9683.816       15.016        5.129      444.584      111.644        0.063      347.538       26.576      859.791
08/11/2013  18:44:00     -261.551     -155.203        2.827      222.157      148.448       84.406    49353.822    22036.744     7124.292        8.550        3.926      304.133       87.389        0.083      347.586       26.660      859.799
08/11/2013  18:45:00     -406.901     -177.876      -28.563      199.269      173.293       90.343    39708.066    30030.472     8161.844       13.795        3.895      444.082       98.213        0.049      347.531       26.565      859.810
08/11/2013  18:46:00     -331.533     -269.273      -12.681      175.653      134.219       86.680    30853.931    18014.779     7513.437       11.947        2.819      427.109       87.393        0.042      347.537       26.575      859.816
08/11/2013  18:47:00     -270.244     -142.896       -2.210      160.550      131.592       83.736    25776.315    17316.375     7011.693        7.177        2.505      305.697       91.854        0.090      347.580       26.648      859.837
08/11/2013  18:48:00     -243.222      -93.640       21.864      171.516      150.870       93.362    29417.685    22761.875     8716.387        6.464        3.045      260.625       87.079        0.112      347.595       26.675      859.813
08/11/2013  18:49:00     -177.174     -121.801       10.798      151.718      145.542       88.521    23018.227    21182.368     7835.882        4.918        2.602      215.002       77.566        0.130      347.556       26.607      859.833
08/11/2013  18:50:00     -368.078     -119.615       -4.858      142.579      170.951       72.760    20328.741    29224.187     5294.067       10.232        2.742      387.026       78.024        0.041      347.524       26.552      859.833
08/11/2013  18:51:00     -412.919      -57.463      -15.082      196.695      147.284       82.002    38688.970    21692.713     6724.408       12.056        3.355      416.898       92.833        0.050      347.497       26.505      859.821
08/11/2013  18:52:00     -362.657      -82.172      -11.081      166.929      155.545       67.313    27865.428    24194.330     4531.012        9.748        2.830      371.850       84.875        0.052      347.498       26.508      859.839
08/11/2013  18:53:00     -260.842      -26.418       -8.409      157.263       96.631       65.492    24731.632     9337.533     4289.205        5.358        1.918      262.176       65.400        0.062      347.558       26.611      859.839
08/11/2013  18:54:00     -459.794      -13.147      -37.471      192.405      150.034       73.628    37019.728    22510.084     5421.048       13.896        3.248      459.982       81.714        0.032      347.424       26.379      859.848
08/11/2013  18:55:00     -460.977     -192.956      -27.466      199.580      151.816       85.128    39831.981    23048.232     7246.812       16.029        3.506      499.731       92.330        0.034      347.397       26.334      859.841
08/11/2013  18:56:00     -426.554      -64.585      -18.284      237.339      179.076      100.208    56329.722    32068.035    10041.645       14.243        4.922      431.416      121.496        0.079      347.393       26.326      859.829
08/11/2013  18:57:00     -476.149      -45.341      -36.320      211.745      199.316       79.883    44835.929    39726.888     6381.337       16.050        4.547      478.303       80.682        0.028      347.382       26.308      859.865
08/11/2013  18:58:00     -483.085     -173.583      -16.325      242.986      141.876       93.714    59042.250    20128.666     8782.288       17.585        4.398      513.325      107.707        0.044      347.293       26.152      859.836
08/11/2013  18:59:00     -285.459      -48.616       -6.726      175.933      152.868       82.641    30952.330    23368.587     6829.566        7.251        3.058      289.570       92.647        0.102      347.330       26.217      859.851
08/11/2013  19:00:00     -346.621      -32.797       13.321      191.657      149.094       84.195    36732.244    22228.895     7088.738        9.371        3.302      348.169       82.063        0.056      347.368       26.284      859.882
08/11/2013  19:01:00     -446.846      -87.644        7.015      221.945      183.815       95.554    49259.437    33788.080     9130.598       14.977        4.609      455.360      120.306        0.070      347.294       26.156      859.858
08/11/2013  19:02:00     -324.009      -85.477        2.400      213.157      117.638       72.462    45436.026    13838.663     5250.773        8.840        3.226      335.094       93.783        0.078      347.295       26.157      859.874
08/11/2013  19:03:00     -328.654     -113.011      -12.044      184.848      129.601       70.782    34168.956    16796.465     5010.082        8.844        2.799      347.541       72.269        0.043      347.303       26.170      859.888
08/11/2013  19:04:00     -438.138     -208.434      -15.187      233.994      186.324       92.617    54753.063    34716.652     8577.903       16.683        4.902      485.190      121.040        0.062      347.252       26.082      859.901
08/11/2013  19:05:00     -236.379      -64.966       -1.774      210.727      144.672       75.705    44406.030    20930.106     5731.190        6.557        3.553      245.144       97.998        0.160      347.300       26.167      859.880
08/11/2013  19:06:00     -302.365     -177.360        3.232      229.068      179.801       99.257    52472.102    32328.295     9851.884       10.876        4.733      350.544      131.167        0.140      347.228       26.042      859.881
08/11/2013  19:07:00     -532.590      -79.839      -18.688      232.927      146.608       97.619    54254.989    21494.016     9529.482       18.781        4.264      538.541      105.819        0.039      347.215       26.021      859.894
08/11/2013  19:08:00     -484.185     -229.015      -26.086      196.310      151.802       72.504    38537.777    23043.733     5256.796       17.719        3.342      535.615       79.799        0.022      347.180       25.960      859.909
08/11/2013  19:09:00     -430.775      -94.133      -29.093      168.909      152.327       88.116    28530.086    23203.609     7764.492       12.738        2.975      440.940       89.022        0.041      347.189       25.976      859.929
08/11/2013  19:10:00     -364.637     -181.248       -8.554      268.772      213.991       86.911    72238.656    45792.006     7553.546       14.571        6.279      407.199      113.196        0.077      347.184       25.966      859.930
08/11/2013  19:11:00     -275.328     -126.685       -1.679      185.772      125.726       81.477    34511.216    15806.973     6638.475        7.440        2.848      303.075       91.673        0.091      347.195       25.986      859.956
08/11/2013  19:12:00     -323.220     -157.572      -19.009      179.143      140.583       96.492    32092.332    19763.580     9310.628        9.540        3.058      359.583      110.555        0.095      347.160       25.925      859.968
08/11/2013  19:13:00     -191.818     -103.690       21.898      177.557      170.624       97.536    31526.334    29112.399     9513.178        5.908        3.508      218.050       97.417        0.200      347.169       25.939      859.976
08/11/2013  19:14:00     -346.701     -142.240       -2.592      167.604      127.080       78.431    28091.129    16149.392     6151.435        9.541        2.520      374.745       80.895        0.047      347.113       25.843      860.000
08/11/2013  19:15:00     -283.747     -120.760        2.557      174.027      149.131       99.569    30285.354    22239.990     9913.977        7.876        3.122      308.375      100.127        0.105      347.108       25.833      860.007
08/11/2013  19:16:00     -265.703     -146.922        2.189      188.216      145.796       88.343    35425.321    21256.433     7804.415        7.833        3.224      303.618       90.873        0.090      347.083       25.793      860.018
08/11/2013  19:17:00     -383.725     -182.313       -7.655      274.941      170.047       90.588    75592.553    28916.069     8206.185       14.661        5.636      424.833      111.917        0.069      347.078       25.785      860.019
08/11/2013  19:18:00     -424.024     -215.053       -8.520      195.399      166.996       87.900    38180.680    27887.779     7726.439       14.994        3.690      475.441       94.976        0.040      347.014       25.672      860.032
08/11/2013  19:19:00     -329.678     -258.592      -13.182      197.733      184.179       98.721    39098.444    33921.759     9745.907       12.923        4.138      418.996      113.024        0.073      347.001       25.652      860.032
08/11/2013  19:20:00     -516.728     -213.676      -38.906      217.481      194.721       96.085    47297.893    37916.157     9232.385       20.430        4.722      559.165      109.483        0.038      346.981       25.616      860.026
08/11/2013  19:21:00     -420.957     -269.570      -21.991      230.047      163.656       96.251    52921.427    26783.169     9264.233       16.965        4.448      499.873      109.369        0.048      346.947       25.556      860.050
08/11/2013  19:22:00     -291.862     -178.517      -18.937      175.950      191.713       85.498    30958.566    36753.891     7309.983        9.620        3.751      342.128       97.937        0.082      346.953       25.568      860.070
08/11/2013  19:23:00     -209.579     -119.158       -0.348      138.605       90.170       72.578    19211.341     8130.555     5267.576        4.536        1.630      241.085       76.657        0.101      346.961       25.582      860.088
08/11/2013  19:24:00     -185.294      -83.993        5.347      123.164       92.465       56.554    15169.271     8549.852     3198.311        3.416        1.346      203.442       65.074        0.102      346.967       25.592      860.100
08/11/2013  19:25:00     -314.626     -259.202       -2.533      205.823      167.013      103.410    42363.007    27893.215    10693.528       12.355        4.047      407.646      114.846        0.079      346.898       25.471      860.087
08/11/2013  19:26:00     -438.951     -169.617      -20.613      219.438      210.254       83.309    48153.211    44206.752     6940.432       16.057        4.965      470.582       86.362        0.034      346.880       25.442      860.099
08/11/2013  19:27:00     -352.339     -253.979        8.755      243.466      172.397      130.387    59275.642    29720.746    17000.651       14.734        5.300      434.336      147.901        0.116      346.837       25.368      860.105
08/11/2013  19:28:00     -211.851     -146.562       12.326      189.118      130.674       94.402    35765.489    17075.773     8911.761        6.412        3.088      257.607      111.624        0.188      346.849       25.390      860.149
08/11/2013  19:29:00     -295.017     -111.868       -2.581      198.516      146.886       83.745    39408.681    21575.600     7013.292        8.377        3.400      315.515       87.428        0.077      346.808       25.320      860.157
08/11/2013  19:30:00     -227.160      -95.495       -0.857      176.114      104.049       55.914    31016.211    10826.283     3126.359        5.284        2.248      246.417       64.206        0.068      346.837       25.370      860.188
08/11/2013  19:31:00     -113.933      -46.854       13.233      141.390       81.315       53.243    19991.162     6612.094     2834.855        2.239        1.472      123.191       67.341        0.299      346.802       25.310      860.190
08/11/2013  19:32:00     -133.691      -20.037        2.287      157.205       82.794       50.485    24713.319     6854.865     2548.751        2.619        1.706      135.185       58.138        0.185      346.801       25.309      860.207
08/11/2013  19:33:00     -367.484      -25.928      -22.915      148.724      121.405       62.233    22118.910    14739.083     3872.913        8.848        2.037      368.397       64.891        0.031      346.754       25.226      860.217
08/11/2013  19:34:00     -231.072       -1.798       -6.294      139.293       86.155       48.868    19402.407     7422.694     2388.092        4.132        1.461      231.079       42.967        0.035      346.751       25.222      860.237
08/11/2013  19:35:00     -210.856      -28.450        0.078      138.434       81.129       57.427    19164.075     6581.867     3297.918        3.715        1.452      212.767       67.723        0.101      346.713       25.156      860.261
08/11/2013  19:36:00     -247.599      -75.017       -9.081      143.110      114.632       62.314    20480.358    13140.518     3883.021        5.225        1.875      258.713       66.958        0.067      346.704       25.139      860.280
08/11/2013  19:37:00     -306.291      -65.238      -24.822      138.541      125.301       55.434    19193.661    15700.314     3072.965        6.832        1.898      313.161       44.944        0.021      346.700       25.133      860.289
08/11/2013  19:38:00     -355.286       57.951       -7.195      138.990      133.348       71.499    19318.215    17781.799     5112.154        8.592        2.111      359.981       68.862        0.037      346.663       25.070      860.315
08/11/2013  19:39:00     -383.302      -19.375      -24.824      128.942      120.897       67.925    16625.966    14616.050     4613.852        9.188        1.793      383.792       69.039        0.032      346.677       25.094      860.339
08/11/2013  19:40:00     -370.587     -100.039      -16.180      146.859      116.204       63.946    21567.648    13503.340     4089.046        9.338        1.958      383.852       67.355        0.031      346.669       25.079      860.357
08/11/2013  19:41:00     -303.050      -28.366      -23.461      158.608      108.625       62.590    25156.530    11799.371     3917.531        6.703        2.044      304.375       72.669        0.057      346.660       25.065      860.374
08/11/2013  19:42:00     -301.425      -78.451       -6.802      116.150       90.189       52.847    13490.758     8133.994     2792.811        6.073        1.221      311.467       53.707        0.030      346.633       25.018      860.397
08/11/2013  19:43:00     -233.347      -45.660       -7.925      143.184       84.817       59.437    20501.638     7193.870     3532.755        4.391        1.561      237.773       65.696        0.076      346.606       24.973      860.416
08/11/2013  19:44:00     -292.992      -51.154      -29.016      140.606      140.680       65.243    19770.154    19790.857     4256.694        6.655        2.191      297.424       64.353        0.047      346.618       24.992      860.460
08/11/2013  19:45:00     -242.512      -45.871      -15.638      175.094       77.956       51.813    30657.892     6077.202     2684.550        5.028        1.971      246.812       45.532        0.034      346.628       25.008      860.480
08/11/2013  19:46:00     -122.940       17.826      -14.565      132.524       89.477       47.950    17562.705     8006.067     2299.172        2.175        1.393      124.226       38.547        0.096      346.553       24.883      860.515
08/11/2013  19:47:00     -208.807      -20.564       -1.882      175.841       97.208       71.479    30919.962     9449.400     5109.190        4.475        2.274      209.818       88.474        0.178      346.526       24.834      860.528
08/11/2013  19:48:00     -246.518      -20.333      -14.489      134.580       88.798       44.652    18111.803     7885.009     1993.814        4.469        1.400      247.355       46.657        0.036      346.554       24.883      860.555
08/11/2013  19:49:00      -87.198      100.430       -4.355       54.222       74.794       41.806     2940.066     5594.180     1747.712        1.399        0.514      133.003       33.026        0.062      346.434       24.677      860.581
08/11/2013  19:50:00     -120.086       67.669      -18.054       60.007       56.682       32.773     3600.798     3212.903     1074.086        1.361        0.394      137.839       28.936        0.044      346.438       24.685      860.554
08/11/2013  19:51:00     -138.645      194.118      -19.273       92.365       92.122       52.063     8531.333     8486.548     2710.520        3.850        0.986      238.546       56.856        0.057      346.441       24.688      860.564
08/11/2013  19:52:00     -179.062      130.352      -26.403      103.074       72.045       44.658    10624.162     5190.438     1994.336        3.378        0.890      221.483       45.979        0.043      346.472       24.742      860.581
08/11/2013  19:53:00     -124.823      115.870      -12.057       97.085       73.790       48.993     9425.567     5444.903     2400.272        2.321        0.864      170.313       49.395        0.084      346.451       24.704      860.595
08/11/2013  19:54:00     -141.654      184.455      -31.608       75.008       95.468       34.742     5626.181     9114.109     1206.997        3.552        0.797      232.571       37.055        0.025      346.503       24.792      860.604
08/11/2013  19:55:00     -138.750      131.018      -24.418       53.707       71.843       42.279     2884.404     5161.462     1787.528        2.342        0.492      190.833       33.666        0.031      346.497       24.785      860.628
08/11/2013  19:56:00     -151.784      136.757      -22.063       96.773      122.506       47.050     9365.010    15007.652     2213.683        3.440        1.329      204.306       54.774        0.072      346.486       24.768      860.646
08/11/2013  19:57:00     -138.215      153.451      -20.741       68.909      111.937       39.821     4748.442    12529.993     1585.682        3.097        0.943      206.520       44.078        0.046      346.449       24.703      860.664
08/11/2013  19:58:00     -169.567      166.245      -26.373       86.318       82.904       54.898     7450.879     6873.124     3013.781        3.721        0.867      237.466       50.863        0.046      346.454       24.711      860.694
08/11/2013  19:59:00     -153.403      111.517      -25.776      102.005      102.012       58.310    10405.095    10406.545     3400.111        3.042        1.211      189.654       56.991        0.090      346.437       24.680      860.707
08/11/2013  20:00:00     -172.403      250.980      -27.026       92.363       92.823       69.443     8530.855     8616.156     4822.349        5.770        1.098      304.489       57.427        0.036      346.410       24.632      860.695
08/11/2013  20:01:00     -167.191      125.620      -34.100       74.827      122.780       52.851     5599.146    15074.810     2793.245        3.418        1.173      209.125       56.548        0.073      346.455       24.712      860.692
08/11/2013  20:02:00     -159.805      162.727      -24.433      138.274       95.407       64.067    19119.703     9102.552     4104.619        4.247        1.616      228.073       74.964        0.108      346.424       24.659      860.705
08/11/2013  20:03:00     -288.145      162.174      -45.093      184.976      116.028       62.906    34216.024    13462.563     3957.218        8.149        2.582      330.648       63.859        0.037      346.410       24.634      860.707
08/11/2013  20:04:00     -237.866      212.520      -39.071      110.477      157.188       58.788    12205.196    24708.126     3456.050        7.181        2.018      318.975       55.734        0.031      346.403       24.621      860.710
08/11/2013  20:05:00     -159.308      119.921      -15.973       90.879       71.379       53.451     8258.908     5094.995     2856.997        2.811        0.811      199.400       48.408        0.059      346.366       24.559      860.704
08/11/2013  20:06:00     -120.250      115.348      -15.029       59.924       89.233       41.895     3590.827     7962.532     1755.204        2.065        0.665      166.629       36.154        0.047      346.379       24.582      860.714
08/11/2013  20:07:00     -233.473      125.041      -35.479      139.416       94.759       64.526    19436.795     8979.281     4163.548        5.199        1.629      264.849       67.114        0.064      346.411       24.636      860.711
08/11/2013  20:08:00     -163.470      186.888      -33.727      102.075      162.558       70.471    10419.363    26425.033     4966.195        5.229        2.091      248.294       58.519        0.056      346.420       24.652      860.717
08/11/2013  20:09:00     -277.666      217.807      -56.011      124.906      177.342       65.564    15601.607    31450.358     4298.608        8.950        2.568      352.900       67.779        0.037      346.425       24.661      860.745
08/11/2013  20:10:00      -88.618      136.674      -10.582       75.904       95.665       51.560     5761.434     9151.764     2658.425        2.211        0.879      162.889       35.935        0.049      346.375       24.573      860.761
08/11/2013  20:11:00     -165.068      252.593      -28.142       96.254      141.625       71.804     9264.839    20057.606     5155.837        6.315        1.724      301.745       50.947        0.029      346.363       24.552      860.756
08/11/2013  20:12:00     -199.353      120.232      -35.227      140.746      101.452       59.754    19809.349    10292.520     3570.581        4.455        1.684      232.803       70.048        0.091      346.364       24.556      860.809
08/11/2013  20:13:00     -333.278      182.212      -62.140      151.678      166.631       83.272    23006.205    27765.804     6934.189       10.291        2.885      379.836       74.591        0.039      346.374       24.572      860.829
08/11/2013  20:14:00     -140.210      115.060      -14.092      121.327      229.895       84.443    14720.248    52851.709     7130.691        5.389        3.735      181.377       71.103        0.154      346.327       24.493      860.820
08/11/2013  20:15:00     -241.988       33.954      -20.926      111.707       91.463       53.516    12478.389     8365.542     2863.934        4.192        1.185      244.358       54.213        0.049      346.359       24.546      860.851
08/11/2013  20:16:00     -195.578       86.276      -40.251      124.188      104.440       56.120    15422.694    10907.777     3149.412        3.839        1.474      213.762       49.115        0.053      346.335       24.505      860.862
08/11/2013  20:17:00     -157.246       98.578      -14.743      127.433       79.652       46.775    16239.211     6344.425     2187.899        2.971        1.239      185.591       51.027        0.076      346.314       24.470      860.851
08/11/2013  20:18:00     -213.749      110.363      -28.778      101.116      104.879       59.197    10224.513    10999.505     3504.248        4.171        1.236      240.559       48.009        0.040      346.317       24.477      860.855
08/11/2013  20:19:00     -217.829       91.884      -31.014      126.714       94.911       62.573    16056.365     9008.186     3915.387        4.291        1.449      236.415       64.384        0.074      346.296       24.439      860.862
08/11/2013  20:20:00     -227.789       13.011      -38.773      119.134      131.947       63.942    14193.025    17409.987     4088.524        4.462        1.785      228.160       53.329        0.055      346.294       24.436      860.857
08/11/2013  20:21:00     -280.906       32.718      -41.403      107.930       98.405       63.788    11648.957     9683.641     4068.883        5.354        1.270      282.805       46.315        0.027      346.268       24.390      860.858
08/11/2013  20:22:00     -205.069       82.449      -32.495       83.973      102.655       53.122     7051.432    10538.052     2821.933        3.516        1.021      221.023       39.360        0.032      346.229       24.324      860.866
08/11/2013  20:23:00     -254.586       63.762      -63.686       78.116      131.291       57.522     6102.184    17237.404     3308.784        4.979        1.332      262.449       49.254        0.035      346.279       24.407      860.878
08/11/2013  20:24:00     -131.040       40.145       -6.395       83.686       86.156       47.209     7003.327     7422.866     2228.666        1.774        0.833      137.052       36.921        0.073      346.229       24.325      860.894
08/11/2013  20:25:00     -193.526       87.120      -25.519       93.113       99.441       55.051     8670.012     9888.486     3030.651        3.364        1.079      212.231       43.493        0.042      346.201       24.275      860.887
08/11/2013  20:26:00     -216.034      -30.957      -29.597      140.857      125.054       63.045    19840.733    15638.605     3974.659        4.397        1.973      218.241       67.803        0.097      346.183       24.242      860.886
08/11/2013  20:27:00     -377.377      -40.370      -24.480      125.818      113.167       66.240    15830.055    12806.747     4387.771        8.883        1.651      379.530       63.610        0.028      346.133       24.156      860.927
08/11/2013  20:28:00     -234.830      -22.579      -20.790       76.681      126.713       55.776     5880.041    16056.303     3110.934        4.056        1.252      235.913       48.884        0.043      346.103       24.105      860.923
08/11/2013  20:29:00     -196.416       68.857      -33.798      113.975      104.182       50.312    12990.381    10853.885     2531.346        3.541        1.319      208.136       59.067        0.081      346.112       24.122      860.922
08/11/2013  20:30:00     -256.208      -24.736      -19.534      203.516       98.148       62.657    41418.890     9632.947     3925.909        6.080        2.749      257.399       86.926        0.114      346.044       24.006      860.924
08/11/2013  20:31:00     -461.140      -47.910      -52.832      151.934      108.654       68.321    23083.826    11805.653     4667.743       12.864        1.978      463.622       49.508        0.011      346.086       24.076      860.932
08/11/2013  20:32:00     -208.203      -69.854      -19.227      120.021      102.198       55.372    14405.008    10444.398     3066.082        3.825        1.396      219.609       47.849        0.047      346.074       24.058      860.910
08/11/2013  20:33:00     -244.996      -58.328      -24.967       74.418       85.158       39.638     5537.997     7251.817     1571.166        3.920        0.718      251.843       20.625        0.007      346.038       23.994      860.904
08/11/2013  20:34:00     -364.808      -82.818      -26.389      123.413      100.665       56.913    15230.702    10133.453     3239.136        8.462        1.430      374.091       60.050        0.026      345.963       23.866      860.916
08/11/2013  20:35:00     -389.024     -106.560      -15.146      131.219       98.826       68.069    17218.395     9766.526     4633.446        9.727        1.581      403.354       70.587        0.031      345.932       23.813      860.936
08/11/2013  20:36:00     -273.265      -68.771        0.264      105.333      106.333       59.942    11094.970    11306.693     3592.987        5.269        1.300      281.786       64.355        0.052      345.906       23.767      860.958
08/11/2013  20:37:00     -416.284      -59.755      -31.723      118.309       84.979       53.490    13996.921     7221.370     2861.129       10.097        1.204      420.551       50.667        0.015      345.843       23.661      860.962
08/11/2013  20:38:00     -410.330      -45.460      -27.501      108.177      121.762       53.686    11702.361    14826.044     2882.179       10.030        1.471      412.840       55.741        0.018      345.855       23.681      860.967
08/11/2013  20:39:00     -402.391       16.488      -28.763      108.154       93.158       52.312    11697.348     8678.337     2736.589        9.306        1.156      402.729       56.257        0.020      345.816       23.614      860.982
08/11/2013  20:40:00     -284.723      -38.988      -15.534      130.525       68.976       60.355    17036.727     4757.637     3642.682        5.413        1.272      287.380       65.754        0.052      345.782       23.557      860.982
08/11/2013  20:41:00     -182.396      -43.039      -11.608      116.605       71.596       48.511    13596.828     5125.962     2353.308        2.816        1.054      187.405       56.555        0.091      345.809       23.604      860.967
08/11/2013  20:42:00     -266.692      -50.450      -15.132      102.317      101.619       55.626    10468.684    10326.322     3094.201        4.889        1.194      271.422       57.538        0.045      345.775       23.543      860.966
08/11/2013  20:43:00     -261.457      -49.247       -9.689      104.763       94.759       49.548    10975.332     8979.285     2455.039        4.664        1.120      266.054       51.796        0.038      345.724       23.457      860.961
08/11/2013  20:44:00     -308.668     -106.368        2.635      134.706      125.266       76.397    18145.603    15691.610     5836.512        7.313        1.984      326.481       69.564        0.045      345.772       23.539      860.964
08/11/2013  20:45:00     -327.777     -152.645      -14.115      109.238       76.914       62.254    11933.026     5915.806     3875.619        7.633        1.086      361.578       57.935        0.026      345.795       23.577      860.961
08/11/2013  20:46:00     -259.851     -130.297       -2.335      136.469      112.392       78.390    18623.788    12632.039     6144.989        6.095        1.870      290.688       69.853        0.058      345.786       23.562      860.949
08/11/2013  20:47:00     -355.289      -54.138      -18.516      151.724      113.059       66.942    23020.080    12782.361     4481.179        8.489        2.014      359.390       72.244        0.040      345.766       23.528      860.972
08/11/2013  20:48:00     -290.417      -54.119       -0.954      169.687      110.222       67.567    28793.694    12148.785     4565.254        6.638        2.275      295.417       81.252        0.076      345.717       23.446      860.982
08/11/2013  20:49:00     -284.374      -52.270      -21.213      121.264      102.002       63.827    14705.068    10404.454     4073.826        5.661        1.459      289.138       65.953        0.052      345.712       23.436      860.989
08/11/2013  20:50:00     -355.829      -45.125       -7.817      160.230      120.038       76.674    25673.521    14409.208     5878.950        8.733        2.298      358.679       80.572        0.050      345.700       23.415      860.977
08/11/2013  20:51:00     -382.981      -45.301      -21.532      169.992      123.331       67.614    28897.437    15210.444     4571.588        9.893        2.434      385.651       88.707        0.053      345.651       23.331      861.020
08/11/2013  20:52:00     -308.237      -45.271      -12.176      147.070      110.645       70.365    21629.503    12242.385     4951.206        6.801        1.941      311.544       80.702        0.067      345.657       23.342      861.053
08/11/2013  20:53:00     -247.318      -47.400       -4.916      144.824      126.019       72.926    20974.034    15880.779     5318.203        5.280        2.109      251.819       75.231        0.089      345.615       23.269      861.055
08/11/2013  20:54:00     -229.944      -56.079      -13.569      172.728      106.146       61.310    29835.096    11266.955     3758.954        5.052        2.243      236.684       76.216        0.104      345.626       23.286      861.056
08/11/2013  20:55:00     -313.224      -62.346      -10.002      121.192      127.557       63.151    14687.541    16270.876     3988.103        6.852        1.747      319.368       53.045        0.028      345.598       23.237      861.074
08/11/2013  20:56:00     -313.277     -120.845       10.127      175.328      133.435       88.222    30739.965    17804.803     7783.143        8.458        2.816      335.777       90.375        0.072      345.570       23.190      861.072
08/11/2013  20:57:00     -371.112      -29.803      -15.134      173.757      140.107       82.832    30191.545    19629.973     6861.108        9.775        2.834      372.307       86.549        0.054      345.581       23.211      861.083
08/11/2013  20:58:00     -250.965       12.527       -2.312      183.313       99.668       70.493    33603.547     9933.688     4969.291        5.582        2.425      251.277       80.120        0.102      345.580       23.209      861.090
08/11/2013  20:59:00     -268.052      -49.649      -22.448      128.156       83.020       55.552    16423.975     6892.380     3086.078        5.061        1.320      272.611       67.311        0.061      345.561       23.177      861.112
08/11/2013  21:00:00     -188.062       23.421        0.650      124.298       79.105       53.696    15449.954     6257.549     2883.313        3.025        1.230      189.515       63.200        0.111      345.528       23.120      861.126
08/11/2013  21:01:00     -199.403      -32.189        1.049      139.504       78.744       48.356    19461.456     6200.584     2338.339        3.439        1.400      201.984       66.724        0.109      345.448       22.984      861.135
08/11/2013  21:02:00     -380.908       11.111      -28.691      116.165      107.514       60.819    13494.202    11559.183     3698.968        8.739        1.438      381.070       58.597        0.024      345.508       23.087      861.126
08/11/2013  21:03:00     -237.050     -108.755      -12.335      133.805      129.136       65.038    17903.900    16676.143     4229.919        5.348        1.940      260.807       69.931        0.072      345.511       23.089      861.149
08/11/2013  21:04:00     -287.754     -118.318      -13.973      176.331       85.085       58.387    31092.777     7239.421     3409.035        6.936        2.087      311.130       75.197        0.058      345.533       23.128      861.160
08/11/2013  21:05:00     -171.636      -80.377        8.667      119.624       72.705       65.315    14309.901     5285.975     4266.105        2.992        1.193      189.524       59.788        0.100      345.492       23.057      861.175
08/11/2013  21:06:00     -222.489      -90.247        1.363      142.138      127.697       75.634    20203.236    16306.520     5720.526        4.993        2.112      240.096       88.916        0.137      345.470       23.021      861.165
08/11/2013  21:07:00     -142.875      -41.378       19.147      138.358      107.836       64.006    19142.823    11628.711     4096.786        2.867        1.743      148.746       70.217        0.223      345.410       22.919      861.185
08/11/2013  21:08:00     -201.354     -107.449       12.419      157.423      105.954       70.821    24781.934    11226.341     5015.611        4.663        2.051      228.230       79.892        0.123      345.474       23.027      861.209
08/11/2013  21:09:00     -188.946       -6.526       19.554      121.031      106.335       57.313    14648.578    11307.048     3284.821        3.268        1.462      189.059       57.221        0.092      345.432       22.954      861.181
08/11/2013  21:10:00     -249.121      -36.159        0.020      172.409      114.856       60.251    29724.905    13191.920     3630.227        5.495        2.327      251.731       79.180        0.099      345.406       22.911      861.184
08/11/2013  21:11:00     -182.945      -99.496        3.249      145.298      105.225       69.191    21111.640    11072.312     4787.347        4.017        1.849      208.251       80.131        0.148      345.419       22.933      861.191
08/11/2013  21:12:00     -251.608      -42.141       -2.711      147.225      141.983       69.824    21675.096    20159.212     4875.352        5.589        2.335      255.113       61.529        0.058      345.425       22.942      861.172
08/11/2013  21:13:00     -415.397     -118.325       -3.483      176.145      137.912       77.971    31027.124    19019.803     6079.477       12.134        2.806      431.921       82.876        0.037      345.408       22.913      861.208
08/11/2013  21:14:00     -304.627      -74.436       -2.091      192.318      144.261       75.735    36986.036    20811.315     5735.777        8.093        3.177      313.589       76.240        0.059      345.375       22.857      861.208
08/11/2013  21:15:00     -218.441     -100.185      -11.398      165.539      102.801       71.153    27403.200    10568.066     5062.695        5.045        2.152      240.319       79.132        0.108      345.392       22.887      861.214
08/11/2013  21:16:00     -353.007     -191.153       -2.344      146.684      159.348       75.959    21516.085    25391.849     5769.710       10.691        2.634      401.439       87.193        0.047      345.384       22.871      861.216
08/11/2013  21:17:00     -381.650      -94.987       -4.658      166.554      145.788       81.079    27740.285    21254.200     6573.776       10.513        2.778      393.293       85.934        0.048      345.365       22.840      861.235
08/11/2013  21:18:00     -232.224      -37.866        9.767      152.746      115.508       77.082    23331.244    13342.159     5941.669        4.903        2.131      235.291       84.109        0.128      345.337       22.791      861.247
08/11/2013  21:19:00     -331.584     -121.952      -31.424      177.791      123.858       70.672    31609.657    15340.774     4994.529        8.887        2.597      353.299       85.718        0.059      345.384       22.873      861.245
08/11/2013  21:20:00     -261.623     -114.915       -6.291      165.368      107.960       70.999    27346.573    11655.343     5040.926        6.286        2.202      285.748       71.683        0.063      345.341       22.797      861.224
08/11/2013  21:21:00     -208.711      -92.717        1.929      193.323      104.844       65.720    37373.958    10992.342     4319.151        5.241        2.634      228.378       91.902        0.162      345.296       22.721      861.249
08/11/2013  21:22:00     -424.566     -136.148      -15.773      170.837      168.008       79.006    29185.194    28226.793     6241.989       13.134        3.183      445.862       80.556        0.033      345.309       22.744      861.252
08/11/2013  21:23:00     -414.273        1.353      -10.439      223.842      144.930       75.630    50105.244    21004.585     5719.870       12.427        3.841      414.275       85.301        0.042      345.312       22.749      861.240
08/11/2013  21:24:00     -386.599      -68.681      -30.078      171.770      144.996       80.699    29504.907    21023.900     6512.334       10.605        2.852      392.652       96.260        0.060      345.319       22.759      861.248
08/11/2013  21:25:00     -255.884     -133.217        6.634      222.377      110.571       76.852    49451.325    12225.882     5906.266        7.541        3.379      288.485       80.259        0.077      345.310       22.744      861.278
08/11/2013  21:26:00     -431.870     -112.576      -15.504      281.160      176.036       95.496    79051.212    30988.678     9119.469       15.927        5.958      446.302      125.298        0.079      345.315       22.753      861.265
08/11/2013  21:27:00     -384.419      -96.756       -1.919      176.263      179.522       97.308    31068.740    32228.235     9468.942       11.494        3.638      396.408       98.584        0.062      345.276       22.687      861.258
08/11/2013  21:28:00     -276.315      -79.019      -17.828      154.361      136.958       60.623    23827.241    18757.588     3675.158        6.458        2.313      287.392       66.370        0.053      345.264       22.667      861.274
08/11/2013  21:29:00     -370.966     -111.160       -7.020      146.848      156.230       73.602    21564.403    24407.869     5417.275       10.070        2.569      387.262       72.802        0.035      345.253       22.647      861.274
08/11/2013  21:30:00     -257.656     -109.755        3.809      190.889      144.150       84.242    36438.504    20779.353     7096.630        7.137        3.216      280.059       98.899        0.125      345.263       22.665      861.282
08/11/2013  21:31:00     -366.190      -58.429       -5.331      178.593      122.955       80.559    31895.622    15117.907     6489.743        9.551        2.675      370.822       84.029        0.051      345.252       22.647      861.302
08/11/2013  21:32:00     -410.405     -147.658      -18.486      190.104      173.003       87.977    36139.566    29930.198     7739.882       13.218        3.690      436.159       92.369        0.045      345.267       22.671      861.316
08/11/2013  21:33:00     -275.355     -172.160        6.705      192.020      133.833       91.700    36871.632    17911.260     8408.900        8.434        3.160      324.746      104.611        0.104      345.246       22.635      861.318
08/11/2013  21:34:00     -302.289      -67.386      -26.278      161.170      121.924       74.778    25975.773    14865.509     5591.817        7.151        2.322      309.708       74.258        0.057      345.238       22.622      861.302
08/11/2013  21:35:00     -402.531     -213.872        1.979      267.396      184.510      106.796    71500.412    34043.868    11405.379       16.234        5.847      455.820      108.413        0.057      345.224       22.598      861.300
08/11/2013  21:36:00     -396.808     -102.729      -10.060      221.795      185.260       93.993    49193.188    34321.373     8834.712       13.021        4.617      409.890       98.111        0.057      345.209       22.571      861.299
08/11/2013  21:37:00     -344.354     -121.774      -20.707      152.611      136.293       74.756    23290.190    18575.823     5588.474        9.064        2.373      365.251       72.731        0.040      345.201       22.558      861.301
08/11/2013  21:38:00     -324.292      -43.172      -22.074      232.382      128.234       89.322    54001.610    16443.946     7978.503        9.296        3.921      327.153      111.918        0.117      345.167       22.502      861.325
08/11/2013  21:39:00     -315.013     -123.781      -13.407      182.018      154.955       83.265    33130.718    24011.175     6933.044        8.939        3.204      338.460       97.950        0.084      345.182       22.526      861.314
08/11/2013  21:40:00     -304.111     -145.583       11.341      189.980      179.071      116.001    36092.363    32066.541    13456.147        9.770        4.081      337.161      115.320        0.117      345.174       22.512      861.326
08/11/2013  21:41:00     -258.445      -43.982        2.580      209.254      164.149       93.600    43787.227    26944.937     8760.869        7.410        3.975      262.161      119.692        0.208      345.131       22.440      861.329
08/11/2013  21:42:00     -203.826      -57.062      -11.866      122.748       91.619       67.037    15067.064     8394.001     4493.939        3.644        1.398      211.662       58.138        0.075      345.160       22.489      861.318
08/11/2013  21:43:00     -335.525     -131.007      -17.417      190.704      121.699       78.955    36368.172    14810.568     6233.958        9.372        2.871      360.195       96.086        0.071      345.162       22.491      861.306
08/11/2013  21:44:00     -351.784     -115.973       -0.436      233.819      151.029       90.856    54671.541    22809.795     8254.889       11.145        4.287      370.407      105.010        0.080      345.145       22.463      861.326
08/11/2013  21:45:00     -219.813      -87.981       14.364      190.976      142.931      103.124    36471.829    20429.133    10634.507        6.189        3.377      236.766      102.192        0.186      345.115       22.412      861.322
08/11/2013  21:46:00     -296.645     -125.566        0.643      227.134      189.966      110.889    51589.712    36087.130    12296.362       10.185        4.999      322.126      115.815        0.129      345.102       22.390      861.311
08/11/2013  21:47:00     -346.480      -72.653       12.147      248.422      161.621       87.553    61713.306    26121.242     7665.499       11.047        4.775      354.016       99.354        0.079      345.059       22.315      861.321
08/11/2013  21:48:00     -193.252     -180.831        5.214      143.058      125.079       80.352    20465.697    15644.731     6456.445        5.631        2.128      264.662       90.393        0.117      345.050       22.301      861.302
08/11/2013  21:49:00     -274.558     -154.288        9.793      209.967      187.434       88.055    44086.140    35131.566     7753.643        9.311        4.349      314.940       93.825        0.089      345.052       22.304      861.294
08/11/2013  21:50:00     -314.008     -201.672       -7.333      198.525      120.853       70.755    39412.044    14605.433     5006.329        9.917        2.951      373.193       73.976        0.039      345.053       22.306      861.327
08/11/2013  21:51:00     -425.273     -185.897      -22.958      208.938      200.317      115.780    43654.880    40127.058    13404.938       15.655        4.859      464.128      116.254        0.063      345.058       22.314      861.344
08/11/2013  21:52:00     -308.311     -143.204       -2.297      182.355      147.932       96.694    33253.478    21883.746     9349.690        9.002        3.224      339.946       91.107        0.072      345.044       22.291      861.345
08/11/2013  21:53:00     -366.316      -39.459      -20.499      139.211      163.106       58.180    19379.706    26603.529     3384.883        9.276        2.468      368.435       46.415        0.016      345.038       22.280      861.335
08/11/2013  21:54:00     -241.137     -117.803       -1.838      176.785      147.019       83.202    31253.055    21614.451     6922.492        6.590        2.989      268.374       96.008        0.128      344.988       22.197      861.340
08/11/2013  21:55:00     -191.557      -62.249       11.678      183.037      121.185       70.952    33502.417    14685.830     5034.189        4.695        2.661      201.417       79.553        0.156      344.966       22.159      861.357
08/11/2013  21:56:00     -233.522     -133.642       -1.465      194.860      142.525       89.153    37970.556    20313.235     7948.233        6.930        3.312      269.058       93.534        0.121      344.964       22.156      861.349
08/11/2013  21:57:00     -331.767     -165.070       -9.103      203.716      171.657       85.102    41500.068    29466.130     7242.298       10.779        3.910      370.564       99.040        0.071      344.959       22.144      861.337
08/11/2013  21:58:00     -284.241      -87.379       -7.078      168.760      138.825       77.470    28479.899    19272.357     6001.600        7.111        2.688      297.368       93.100        0.098      344.935       22.104      861.344
08/11/2013  21:59:00     -363.639     -142.077      -14.996      175.439      145.235       78.540    30778.836    21093.334     6168.514       10.533        2.902      390.409       88.385        0.051      344.960       22.145      861.369
08/11/2013  22:00:00     -270.705     -127.747       -3.668      176.437      133.965       67.315    31130.182    17946.688     4531.375        7.160        2.680      299.333       74.340        0.062      344.947       22.126      861.389
08/11/2013  22:01:00     -332.008     -187.399      -19.705      195.877      109.519       68.270    38367.648    11994.370     4660.832       10.037        2.751      381.245       75.475        0.039      344.960       22.145      861.365
08/11/2013  22:02:00     -344.656     -225.791        1.090      259.275      178.222      111.334    67223.278    31763.150    12395.255       14.056        5.569      412.031      133.325        0.105      344.954       22.136      861.375
08/11/2013  22:03:00     -428.376     -215.349      -17.690      196.029      130.272       80.152    38427.337    16970.820     6424.413       14.600        3.091      479.459       99.125        0.043      344.978       22.176      861.404
08/11/2013  22:04:00     -265.018      -35.565      -29.509      107.918      130.458       58.535    11646.377    17019.300     3426.376        5.223        1.605      267.394       51.953        0.038      344.976       22.174      861.448
08/11/2013  22:05:00     -216.855     -131.706       -5.981      139.104       68.176       53.956    19350.034     4647.913     2911.265        4.565        1.345      253.717       61.221        0.058      344.992       22.203      861.460
08/11/2013  22:06:00     -134.173     -161.356       11.629      100.962       99.064       52.596    10193.281     9813.636     2766.299        3.347        1.139      209.853       47.200        0.051      344.989       22.196      861.469
08/11/2013  22:07:00     -290.597     -148.437      -25.389       99.623       86.228       59.846     9924.794     7435.303     3581.525        6.403        1.047      326.313       52.294        0.026      344.977       22.173      861.522
08/11/2013  22:08:00     -184.111     -108.398      -13.115      113.440       73.360       57.970    12868.656     5381.717     3360.567        3.371        1.081      213.652       56.421        0.070      344.943       22.116      861.545
08/11/2013  22:09:00     -226.956     -115.914       -8.307      129.814       81.797       56.787    16851.683     6690.719     3224.776        4.589        1.338      254.843       71.485        0.079      344.878       22.005      861.566
08/11/2013  22:10:00     -176.988      -55.623        3.229      113.745      112.892       50.724    12937.885    12744.611     2572.934        3.134        1.413      185.523       41.376        0.050      344.883       22.015      861.607
08/11/2013  22:11:00     -269.660     -118.255      -23.304      101.428      122.911       56.652    10287.570    15107.144     3209.480        5.792        1.430      294.449       52.404        0.032      344.910       22.060      861.595
08/11/2013  22:12:00     -294.114      -60.448      -18.747      121.392       95.457       59.524    14735.906     9112.033     3543.142        5.895        1.370      300.262       52.171        0.030      344.844       21.947      861.597
08/11/2013  22:13:00     -185.919     -120.993        2.698      124.473       97.259       55.268    15493.472     9459.259     3054.592        3.861        1.400      221.823       55.133        0.062      344.821       21.909      861.630
08/11/2013  22:14:00     -144.148     -148.224       -1.282       93.404       73.148       56.077     8724.275     5350.629     3144.647        2.998        0.861      206.758       58.406        0.080      344.843       21.947      861.645
08/11/2013  22:15:00     -142.328      -81.196      -14.552       76.952       67.537       34.578     5921.609     4561.184     1195.665        1.937        0.584      163.860       28.534        0.030      344.860       21.977      861.651
08/11/2013  22:16:00     -153.996      -49.704      -12.530       65.781       49.151       33.771     4327.131     2415.855     1140.480        1.711        0.394      161.819       30.272        0.035      344.832       21.928      861.666
08/11/2013  22:17:00     -146.102      -22.196       -2.377       81.935       55.181       35.959     6713.265     3044.976     1293.075        1.645        0.553      147.778       28.965        0.038      344.766       21.816      861.696
08/11/2013  22:18:00     -238.254      -45.704       -7.770      108.800       83.374       48.769    11837.344     6951.221     2378.416        4.004        1.058      242.598       49.505        0.042      344.834       21.930      861.711
08/11/2013  22:19:00     -185.738      -55.817       -0.403      128.972       79.499       44.059    16633.801     6320.115     1941.175        3.125        1.245      193.944       52.778        0.074      344.800       21.873      861.743
08/11/2013  22:20:00     -202.954        1.833      -15.533      107.467       79.727       42.736    11549.085     6356.344     1826.378        3.058        0.987      202.962       50.267        0.061      344.885       22.020      861.780
08/11/2013  22:21:00     -189.295      -37.056      -21.863       83.958       52.073       34.903     7048.980     2711.565     1218.230        2.433        0.549      192.888       30.907        0.026      344.889       22.027      861.802
08/11/2013  22:22:00     -105.715      -17.189       -4.176       44.856       33.166       24.337     2012.060     1100.003      592.308        0.760        0.185      107.103       23.737        0.049      344.868       21.995      861.816
08/11/2013  22:23:00      -75.956      -21.962       -8.959       32.414       20.324       14.813     1050.686      413.066      219.412        0.401        0.084       79.067       11.219        0.020      344.829       21.925      861.829
08/11/2013  22:24:00     -101.985      -57.206       -3.846       42.706       33.168       21.445     1823.817     1100.135      459.893        0.854        0.169      116.933       14.111        0.015      344.883       22.017      861.849
08/11/2013  22:25:00      -83.964      -38.333      -21.888       39.025       35.836       16.280     1522.931     1284.214      265.034        0.603        0.154       92.300        5.118        0.003      344.977       22.179      861.851
08/11/2013  22:26:00      -29.319      -63.666        2.087       19.886       23.965       15.732      395.447      574.326      247.498        0.307        0.061       70.093       10.987        0.025      344.915       22.073      861.855
08/11/2013  22:27:00      -52.236      -35.927        2.659       32.973       34.767       15.692     1087.241     1208.765      246.250        0.328        0.127       63.398       13.539        0.046      344.881       22.015      861.876
08/11/2013  22:28:00      -62.490      -36.151       -7.794       48.354       24.209       15.297     2338.084      586.074      233.990        0.421        0.158       72.194       22.401        0.096      344.867       21.991      861.885
08/11/2013  22:29:00        0.898      -25.097        4.777       30.932       20.193       16.081      956.809      407.749      258.590        0.114        0.081       25.113       10.272        0.167      344.819       21.908      861.890
08/11/2013  22:30:00       -6.285       -5.294       10.019       20.995       16.300       15.540      440.770      265.686      241.490        0.056        0.047        8.217        7.568        0.848      344.679       21.668      861.871
08/11/2013  22:31:00        4.225      -56.019       -1.449       29.663       32.647       19.206      879.919     1065.831      368.889        0.274        0.116       56.178        7.282        0.017      344.324       21.062      861.865
08/11/2013  22:32:00      -17.937      -93.896        6.171       19.064       23.474       21.135      363.427      551.048      446.686        0.527        0.068       95.594       11.338        0.014      344.939       22.114      861.879
08/11/2013  22:33:00      -18.895      -93.572       11.488       40.286       39.933       23.427     1622.937     1594.664      548.819        0.650        0.188       95.461       25.049        0.069      344.944       22.124      861.859
08/11/2013  22:34:00      -92.190      -79.564        2.816       71.206       46.782       27.277     5070.293     2188.555      744.028        1.142        0.400      121.776       26.993        0.049      344.903       22.052      861.865
08/11/2013  22:35:00     -105.546      -40.365       -0.658       47.354       40.343       17.805     2242.426     1627.581      317.026        0.848        0.209      113.001       15.767        0.019      344.857       21.973      861.888
08/11/2013  22:36:00     -112.059      -62.636        2.046       58.190       42.312       22.196     3386.121     1790.339      492.677        1.108        0.283      128.376       25.737        0.040      344.789       21.856      861.922
08/11/2013  22:37:00      -27.589     -145.575      -13.478       41.168       55.070       31.066     1694.774     3032.715      965.092        1.391        0.285      148.167       28.949        0.038      344.880       22.013      861.873
08/11/2013  22:38:00     -118.974      -87.471       -8.740       69.192       57.753       32.316     4787.602     3335.435     1044.334        1.552        0.458      147.668       34.965        0.056      345.094       22.378      861.849
08/11/2013  22:39:00      -44.985      -37.067       13.390       63.125       43.124       29.307     3984.808     1859.700      858.899        0.514        0.335       58.289       27.004        0.215      345.009       22.234      861.869
08/11/2013  22:40:00      -45.131      -49.107        2.912       30.626       34.422       17.161      937.980     1184.906      294.508        0.344        0.121       66.695       16.994        0.065      344.928       22.096      861.872
08/11/2013  22:41:00       -8.512       -8.851        9.723       30.264       19.188       16.598      915.884      368.189      275.485        0.090        0.078       12.280       10.915        0.790      344.867       21.992      861.879
08/11/2013  22:42:00       32.351       -3.104       30.530       33.187       17.887       21.094     1101.369      319.945      444.956        0.193        0.093       32.500       16.859        0.269      344.018       20.541      861.876
08/11/2013  22:43:00       -0.721      -22.339       22.387       13.253       31.132       14.252      175.648      969.227      203.116        0.117        0.067       22.351       13.905        0.387      344.342       21.094      861.881
08/11/2013  22:44:00      -61.214      -96.129        4.122       56.437       59.332       32.072     3185.107     3520.314     1028.628        1.037        0.387      113.965       30.190        0.070      344.738       21.770      861.892
08/11/2013  22:45:00      -78.051      -99.765      -11.504       36.962       49.485       21.964     1366.193     2448.812      482.431        1.024        0.215      126.669       15.664        0.015      344.643       21.608      861.910
08/11/2013  22:46:00      -61.472      -50.923       -1.676       43.406       31.296       23.688     1884.060      979.425      561.134        0.490        0.171       79.825       21.398        0.072      344.650       21.617      861.922
08/11/2013  22:47:00      -75.426      -17.952       -0.314       73.614       33.827       26.195     5418.999     1144.265      686.172        0.663        0.362       77.533       33.926        0.191      344.558       21.463      861.942
08/11/2013  22:48:00       -2.478      -56.093        1.961       33.596       41.787       23.003     1128.709     1746.184      529.147        0.328        0.170       56.148       13.440        0.057      344.488       21.344      861.926
08/11/2013  22:49:00      -49.860        1.792        9.395       64.182       59.375       25.985     4119.353     3525.412      675.205        0.545        0.416       49.892        9.357        0.035      344.682       21.674      861.932
08/11/2013  22:50:00       45.091       -1.414       -8.311       30.743       34.802       37.460      945.147     1211.180     1403.247        0.283        0.178       45.113       11.550        0.066      344.502       21.368      861.917
08/11/2013  22:51:00       65.461       46.659       23.409       59.839       52.090       37.829     3580.674     2713.318     1431.060        0.737        0.386       80.388       31.542        0.154      344.315       21.047      861.906
08/11/2013  22:52:00       44.714       19.237        5.874       35.677       33.981       33.170     1272.867     1154.716     1100.271        0.297        0.176       48.677       19.587        0.162      344.547       21.442      861.919
08/11/2013  22:53:00      -23.008       25.948        7.883       19.332       13.039       15.114      373.734      170.008      228.442        0.102        0.039       34.679       11.350        0.107      344.298       21.017      861.939
08/11/2013  22:54:00      -18.635        8.652        7.856       20.405       24.690       14.525      416.347      609.580      210.984        0.086        0.062       20.546       13.806        0.452      344.067       20.622      861.939
08/11/2013  22:55:00       30.092        2.775       13.470       40.857       26.734       21.308     1669.268      714.717      454.045        0.197        0.142       30.219       22.123        0.536      343.735       20.056      861.931
08/11/2013  22:56:00       37.780       -5.941       -4.774       30.665       24.401       19.465      940.358      595.393      378.902        0.170        0.096       38.244       14.096        0.136      343.749       20.080      861.916
08/11/2013  22:57:00       26.086       41.473       -2.318       20.429       17.146       15.191      417.356      293.979      230.755        0.167        0.047       48.995        9.600        0.038      344.174       20.804      861.922
08/11/2013  22:58:00      -30.124       52.032        0.285       32.312       26.983       16.570     1044.035      728.082      274.564        0.283        0.102       60.123       11.448        0.036      344.339       21.088      861.924
08/11/2013  22:59:00      -14.494       52.093       -3.246       24.750       32.831       17.129      612.585     1077.847      293.410        0.246        0.099       54.071       19.755        0.133      344.444       21.266      861.918
08/11/2013  23:00:00      -46.175      112.293       -9.694       79.302       46.644       32.926     6288.860     2175.659     1084.103        1.219        0.477      121.416       41.523        0.117      344.380       21.157      861.912
08/11/2013  23:01:00      -77.390       29.091      -14.900       35.563       29.076       19.915     1264.699      845.423      396.610        0.478        0.125       82.677       16.892        0.042      344.445       21.266      861.920
08/11/2013  23:02:00      -51.652        2.205       -0.488       24.967       24.253       17.394      623.370      588.188      302.536        0.209        0.076       51.699       11.810        0.052      344.389       21.174      861.933
08/11/2013  23:03:00      -42.834       20.653       -7.679       21.787       28.208       19.781      474.664      795.707      391.275        0.199        0.083       47.553        6.432        0.018      344.416       21.220      861.939
08/11/2013  23:04:00      -53.680       59.192      -15.700       23.841       41.803       23.512      568.416     1747.450      552.804        0.475        0.143       79.907       18.965        0.056      344.359       21.121      861.943
08/11/2013  23:05:00      -67.386       71.969      -14.007       29.319       32.551       22.384      859.599     1059.542      501.037        0.617        0.121       98.592       16.646        0.029      344.344       21.097      861.944
08/11/2013  23:06:00      -61.134       52.726      -11.951       22.512       23.720       13.912      506.769      562.657      193.535        0.396        0.063       80.730       10.636        0.017      344.335       21.081      861.944
08/11/2013  23:07:00      -78.091       26.291       -8.996       36.422       37.697       25.047     1326.588     1421.038      627.375        0.512        0.169       82.398       26.720        0.105      344.348       21.102      861.949
08/11/2013  23:08:00      -82.072       56.074      -17.472       43.669       32.254       19.114     1906.997     1040.322      365.360        0.675        0.166       99.398       22.372        0.051      344.342       21.093      861.954
08/11/2013  23:09:00      -24.301       27.449       -4.105       24.912       18.770       13.960      620.611      352.305      194.882        0.126        0.058       36.660       11.320        0.095      344.262       20.957      861.970
08/11/2013  23:10:00      -14.716       27.750        3.325       27.630       20.944       13.523      763.424      438.649      182.875        0.119        0.069       31.411       13.079        0.173      344.231       20.903      861.967
08/11/2013  23:11:00      -27.534       72.621       -7.654       16.046       30.372       12.714      257.464      922.463      161.657        0.372        0.067       77.665        7.471        0.009      344.304       21.028      861.973
08/11/2013  23:12:00      -31.183      134.087       -5.349       39.001       58.662       33.442     1521.116     3441.252     1118.364        1.253        0.304      137.665       35.832        0.068      344.138       20.744      861.970
08/11/2013  23:13:00      -14.738       82.146       -1.001       21.828       43.585       26.359      476.469     1899.692      694.781        0.502        0.154       83.458       28.745        0.119      344.117       20.706      861.945
08/11/2013  23:14:00      -24.993       82.609       -7.545       27.878       24.506       18.729      777.168      600.535      350.770        0.462        0.086       86.307       17.617        0.042      344.141       20.750      861.949
08/11/2013  23:15:00      -27.512       64.323       -3.940       26.120       24.607       20.937      682.256      605.488      438.342        0.332        0.086       69.960       19.378        0.077      344.045       20.586      861.951
08/11/2013  23:16:00      -63.858       -5.563      -19.445       21.098       36.453       16.940      445.133     1328.852      286.970        0.327        0.103       64.100       16.900        0.070      344.166       20.792      861.942
08/11/2013  23:17:00      -50.377        3.569       -8.515       38.759       16.579       14.368     1502.291      274.848      206.426        0.230        0.099       50.503       15.143        0.090      344.131       20.731      861.958
08/11/2013  23:18:00     -105.772       -4.465      -24.933       25.724       22.259       21.561      661.699      495.480      464.866        0.673        0.081      105.867       11.575        0.012      344.111       20.699      861.956
08/11/2013  23:19:00      -69.768       20.873      -11.831       31.720       26.438       15.895     1006.139      698.973      252.659        0.370        0.098       72.824        8.697        0.014      344.152       20.768      861.939
08/11/2013  23:20:00      -66.999        8.052       -3.452       48.301       33.263       15.365     2333.003     1106.415      236.079        0.412        0.184       67.481       13.714        0.041      344.081       20.647      861.923
08/11/2013  23:21:00     -126.082       59.337      -21.218       80.506       51.735       28.227     6481.143     2676.463      796.740        1.491        0.498      139.346       38.282        0.075      344.082       20.647      861.920
08/11/2013  23:22:00      -51.503       66.441       -4.407       41.505       51.020       30.723     1722.683     2603.003      943.894        0.618        0.263       84.065       31.902        0.144      344.012       20.529      861.916
08/11/2013  23:23:00     -109.075       85.697      -16.886       39.055       43.883       31.561     1525.267     1925.752      996.100        1.199        0.222      138.713       25.747        0.034      344.044       20.584      861.923
08/11/2013  23:24:00      -69.470      -30.231      -10.829       17.771       22.315       14.626      315.803      497.946      213.934        0.344        0.051       75.763        9.249        0.015      344.092       20.667      861.933
08/11/2013  23:25:00       23.248       15.524       12.337       38.426       27.499       19.259     1476.594      756.195      370.906        0.177        0.130       27.954       10.219        0.134      343.808       20.180      861.931
08/11/2013  23:26:00      -19.502        4.682      -14.741       30.966       27.806       20.259      958.880      773.189      410.411        0.138        0.107       20.056       18.982        0.896      343.891       20.323      861.952
08/11/2013  23:27:00       19.389       -8.653        5.030       40.422       28.653       19.704     1633.915      820.989      388.262        0.166        0.142       21.232       14.222        0.449      343.563       19.764      861.967
08/11/2013  23:28:00       19.590       -9.019        5.478       20.725       11.807       11.080      429.523      139.406      122.762        0.059        0.035       21.566        6.319        0.086      343.230       19.194      861.979
08/11/2013  23:29:00      -44.247       29.848       -9.377       27.295       29.933       19.786      745.037      896.007      391.481        0.248        0.102       53.373       17.442        0.107      343.724       20.037      861.998
08/11/2013  23:30:00      -60.033       30.524       -7.528       16.541       23.328       12.302      273.621      544.179      151.327        0.278        0.048       67.347        7.657        0.013      343.837       20.229      862.005
08/11/2013  23:31:00      -82.068        6.934      -12.254       22.952       18.273       11.583      526.771      333.916      134.176        0.396        0.050       82.361        8.231        0.010      343.907       20.349      862.018
08/11/2013  23:32:00       28.897       37.025        2.521       32.501       27.345       17.171     1056.302      747.733      294.833        0.216        0.105       46.967       11.789        0.063      343.841       20.238      862.024
08/11/2013  23:33:00       53.631       36.316        1.177       21.607       23.689       19.244      466.882      561.174      370.346        0.280        0.070       64.770        7.632        0.014      343.870       20.286      862.004
08/11/2013  23:34:00       21.531       49.924       -0.290       26.067       28.715       18.922      679.478      824.550      358.045        0.241        0.093       54.369       17.199        0.100      343.801       20.169      861.996
08/11/2013  23:35:00        6.705       66.292      -10.704       13.010       16.448        9.718      169.262      270.532       94.442        0.254        0.027       66.631        6.738        0.010      343.950       20.421      862.016
08/11/2013  23:36:00        9.982       52.764       -6.767       23.899       17.776        8.444      571.163      315.998       71.299        0.194        0.048       53.700        7.924        0.022      343.998       20.503      862.014
08/11/2013  23:37:00       -8.715       55.896       -3.406       13.310       29.874       11.767      177.155      892.468      138.468        0.221        0.060       56.571       12.061        0.045      343.967       20.452      862.017
08/11/2013  23:38:00       33.513       24.982        5.508       26.705       21.185       15.608      713.161      448.797      243.619        0.159        0.070       41.799       11.519        0.076      343.522       19.693      862.014
08/11/2013  23:39:00       75.763       22.395        2.703       29.696       18.991       19.593      881.840      360.671      383.901        0.394        0.081       79.003       10.363        0.017      343.708       20.010      862.026
08/11/2013  23:40:00       86.159       50.293        0.996       21.827       26.323       18.585      476.399      692.885      345.392        0.573        0.076       99.763       11.026        0.012      343.765       20.108      862.038
08/11/2013  23:41:00       73.147       48.809       12.344       20.956       17.634       25.396      439.170      310.948      644.964        0.464        0.070       87.937       15.456        0.031      343.705       20.006      862.036
08/11/2013  23:42:00       74.303       55.485       -4.188       25.198       26.394       23.172      634.953      696.657      536.935        0.524        0.093       92.734        8.260        0.008      343.623       19.867      862.033
08/11/2013  23:43:00       47.943       60.385        7.049       21.150       19.320       18.644      447.334      373.268      347.611        0.358        0.058       77.103       11.837        0.024      343.798       20.163      862.049
08/11/2013  23:44:00       37.011       45.930       11.820       34.138       23.917       17.772     1165.422      572.030      315.861        0.284        0.103       58.986       16.568        0.079      343.756       20.091      862.056
08/11/2013  23:45:00       19.430       24.133       10.703       20.068       20.231       11.502      402.713      409.292      132.297        0.101        0.047       30.983        9.047        0.085      343.664       19.933      862.058
08/11/2013  23:46:00       41.612       -8.940        5.103       38.635       21.165       17.440     1492.656      447.960      304.138        0.204        0.112       42.562       10.913        0.066      343.047       18.884      862.053
08/11/2013  23:47:00       16.324        9.638       11.063       13.590       12.816       11.416      184.683      164.249      130.320        0.048        0.024       18.956        8.560        0.204      343.183       19.114      862.066
08/11/2013  23:48:00       58.762       36.235       23.735       25.348       14.174       17.922      642.530      200.893      321.200        0.325        0.058       69.036        9.209        0.018      343.419       19.517      862.068
08/11/2013  23:49:00       30.725       29.448       22.803       39.262       23.295       17.050     1541.527      542.640      290.692        0.235        0.119       42.558       12.799        0.090      343.416       19.512      862.074
08/11/2013  23:50:00        8.199       22.025       22.505       29.600       20.380       20.123      876.189      415.331      404.916        0.138        0.085       23.501       18.494        0.619      343.558       19.753      862.091
08/11/2013  23:51:00       22.038       11.352        7.409       27.116       19.967       17.613      735.276      398.680      310.216        0.106        0.072       24.790        8.556        0.119      343.445       19.562      862.087
08/11/2013  23:52:00       34.376        8.967       30.321       26.052       20.362       17.726      678.731      414.629      314.209        0.179        0.070       35.527       12.222        0.118      343.298       19.310      862.106
08/11/2013  23:53:00       20.120       10.343       17.531       25.652       15.378       15.286      658.024      236.487      233.659        0.097        0.056       22.623       12.829        0.322      343.446       19.563      862.117
08/11/2013  23:54:00       -3.103       12.327       24.589       13.939       27.031       13.156      194.294      730.669      173.093        0.093        0.055       12.712       13.571        1.140      343.070       18.924      862.115
08/11/2013  23:55:00       29.439        4.256       17.180       32.568       21.927       23.038     1060.689      480.806      530.749        0.163        0.104       29.745       21.602        0.527      343.159       19.073      862.123
08/11/2013  23:56:00       44.148       28.626        7.908       18.519       18.566       22.572      342.972      344.698      509.495        0.201        0.060       52.617       17.421        0.110      343.267       19.259      862.139
08/11/2013  23:57:00       61.898      -13.474        6.152       24.250       19.865       20.628      588.049      394.616      425.519        0.273        0.070       63.348       11.220        0.031      343.038       18.869      862.135
08/11/2013  23:58:00       28.390      -32.624        7.545       22.890       28.421       23.024      523.968      807.727      530.089        0.189        0.093       43.247       18.574        0.184      342.942       18.704      862.134
08/11/2013  23:59:00       60.589      -42.883       -0.590       31.819       26.145       23.456     1012.438      683.562      550.187        0.388        0.112       74.229        8.905        0.014      342.983       18.777      862.144
